[[{"header":{"parameterUnit":"m.s-1","parameterCategory":1,"la1":30.6,"la2":28.766,"lo1":-90.7593,"lo2":-88.6598,"dy":0.0162,"dx":0.0183,"nx":116,"ny":114,"refTime":"2023-10-10T00:00:00:Z","depth":0,"parameterNumber":2,"parameterNumberName":"U-component_of_WINDS"},"data":[0.0,0.0,0.0,0.0,0.0,0.0,0.0,0.0,0.0,0.0,0.0,0.0,0.0,0.0,0.0,0.0,0.0,0.0,0.0,0.0,0.0,0.0,0.0,0.0,0.0,0.0,0.0,0.0,0.0,0.0,0.0,0.0,0.0,0.0,0.0,0.0,0.0,0.0,0.0,0.0,0.0,0.0,0.0,0.0,0.0,0.0,0.0,0.0,0.0,0.0,0.0,0.0,0.0,0.0,0.0,0.0,0.0,0.0,0.0,0.0,0.0,0.0,0.0,0.0,0.0,0.0,0.0,0.0,0.0,0.0,0.0,0.0,0.0,0.0,0.0,0.0,0.0,0.0,0.0,0.0,0.0,0.0,0.0,0.0,0.0,0.0,0.0,0.0,0.0,0.0,0.0,0.0,0.0,0.0,0.0,0.0,0.0,0.0,0.0,0.0,0.0,0.0,0.0,0.0,0.0,0.0,0.0,0.0,0.0,0.0,0.0,0.0,0.0,0.0,0.0,0.0,0.0,0.0,0.0,0.0,0.0,0.0,0.0,0.0,0.0,0.0,0.0,0.0,0.0,0.0,0.0,0.0,0.0,0.0,0.0,0.0,0.0,0.0,0.0,0.0,0.0,0.0,0.0,0.0,0.0,0.0,0.0,0.0,0.0,0.0,0.0,0.0,0.0,0.0,0.0,0.0,0.0,0.0,0.0,0.0,0.0,0.0,0.0,0.0,0.0,0.0,0.0,0.0,0.0,0.0,0.0,0.0,0.0,0.0,0.0,0.0,0.0,0.0,0.0,0.0,0.0,0.0,0.0,0.0,0.0,0.0,0.0,0.0,0.0,0.0,0.0,0.0,0.0,0.0,0.0,0.0,0.0,0.0,0.0,0.0,0.0,0.0,0.0,0.0,0.0,0.0,0.0,0.0,0.0,0.0,0.0,0.0,0.0,0.0,0.0,0.0,0.0,0.0,0.0,0.0,0.0,0.0,0.0,0.0,0.0,0.0,0.0,0.0,0.0,0.0,0.0,0.0,0.0,0.0,0.0,0.0,0.0,0.0,0.0,0.0,0.0,0.0,0.0,0.0,0.0,0.0,0.0,0.0,0.0,0.0,0.0,0.0,0.0,0.0,0.0,0.0,0.0,0.0,0.0,0.0,0.0,0.0,0.0,0.0,0.0,0.0,0.0,0.0,0.0,0.0,0.0,0.0,0.0,0.0,0.0,0.0,0.0,0.0,0.0,0.0,0.0,0.0,0.0,0.0,0.0,0.0,0.0,0.0,0.0,0.0,0.0,0.0,0.0,0.0,0.0,0.0,0.0,0.0,0.0,0.0,0.0,0.0,0.0,0.0,0.0,0.0,0.0,0.0,0.0,0.0,0.0,0.0,0.0,0.0,0.0,0.0,0.0,0.0,0.0,0.0,0.0,0.0,0.0,0.0,0.0,0.0,0.0,0.0,0.0,0.0,0.0,0.0,0.0,0.0,0.0,0.0,0.0,0.0,0.0,0.0,0.0,0.0,0.0,0.0,0.0,0.0,0.0,0.0,0.0,0.0,0.0,0.0,0.0,0.0,0.0,0.0,0.0,0.0,0.0,0.0,0.0,0.0,0.0,0.0,0.0,0.0,0.0,0.0,0.0,0.0,0.0,0.0,0.0,0.0,0.0,0.0,0.0,0.0,0.0,0.0,0.0,0.0,0.0,0.0,0.0,0.0,0.0,0.0,0.0,0.0,0.0,0.0,0.0,0.0,0.0,0.0,0.0,0.0,0.0,0.0,0.0,0.0,0.0,0.0,0.0,0.0,0.0,0.0,0.0,0.0,0.0,0.0,0.0,0.0,0.0,0.0,0.0,0.0,0.0,0.0,0.0,0.0,0.0,0.0,0.0,0.0,0.0,0.0,0.0,0.0,0.0,0.0,0.0,0.0,0.0,0.0,0.0,0.0,0.0,0.0,0.0,0.0,0.0,0.0,0.0,0.0,0.0,0.0,0.0,0.0,0.0,0.0,0.0,0.0,0.0,0.0,0.0,0.0,0.0,0.0,0.0,0.0,0.0,0.0,0.0,0.0,0.0,0.0,0.0,0.0,0.0,0.0,0.0,0.0,0.0,0.0,0.0,0.0,0.0,0.0,0.0,0.0,0.0,0.0,0.0,0.0,0.0,0.0,0.0,0.0,0.0,0.0,0.0,0.0,0.0,0.0,0.0,0.0,0.0,0.0,0.0,0.0,0.0,0.0,0.0,0.0,0.0,0.0,0.0,0.0,0.0,0.0,0.0,0.0,0.0,0.0,0.0,0.0,0.0,0.0,0.0,0.0,0.0,0.0,0.0,0.0,0.0,0.0,0.0,0.0,0.0,0.0,0.0,0.0,0.0,0.0,0.0,0.0,0.0,0.0,0.0,0.0,0.0,0.0,0.0,0.0,0.0,0.0,0.0,0.0,0.0,0.0,0.0,0.0,0.0,0.0,0.0,0.0,0.0,0.0,0.0,0.0,0.0,0.0,0.0,0.0,0.0,0.0,0.0,0.0,0.0,0.0,0.0,0.0,0.0,0.0,0.0,0.0,0.0,0.0,0.0,0.0,0.0,0.0,0.0,0.0,0.0,0.0,0.0,0.0,0.0,0.0,0.0,0.0,0.0,0.0,0.0,0.0,0.0,0.0,0.0,0.0,0.0,0.0,0.0,0.0,0.0,0.0,0.0,0.0,0.0,0.0,0.0,0.0,0.0,0.0,0.0,0.0,0.0,0.0,0.0,0.0,0.0,0.0,0.0,0.0,0.0,0.0,0.0,0.0,0.0,0.0,0.0,0.0,0.0,0.0,0.0,0.0,0.0,0.0,0.0,0.0,0.0,0.0,0.0,0.0,0.0,0.0,0.0,0.0,0.0,0.0,0.0,0.0,0.0,0.0,0.0,0.0,0.0,0.0,0.0,0.0,0.0,0.0,0.0,0.0,0.0,0.0,0.0,0.0,0.0,0.0,0.0,0.0,0.0,0.0,0.0,0.0,0.0,0.0,0.0,0.0,0.0,0.0,0.0,0.0,0.0,0.0,0.0,0.0,0.0,0.0,0.0,0.0,0.0,0.0,0.0,0.0,0.0,0.0,0.0,0.0,0.0,0.0,0.0,0.0,0.0,0.0,0.0,0.0,0.0,0.0,0.0,0.0,0.0,0.0,0.0,0.0,0.0,0.0,0.0,0.0,0.0,0.0,0.0,0.0,0.0,0.0,0.0,0.0,0.0,0.0,0.0,0.0,0.0,0.0,0.0,0.0,0.0,0.0,0.0,0.0,0.0,0.0,0.0,0.0,0.0,0.0,0.0,0.0,0.0,0.0,0.0,0.0,0.0,0.0,0.0,0.0,0.0,0.0,0.0,0.0,0.0,0.0,0.0,0.0,0.0,0.0,0.0,0.0,0.0,0.0,0.0,0.0,0.0,0.0,0.0,0.0,0.0,0.0,0.0,0.0,0.0,0.0,0.0,0.0,0.0,0.0,0.0,0.0,0.0,0.0,0.0,0.0,0.0,0.0,0.0,0.0,0.0,0.0,0.0,0.0,0.0,0.0,0.0,0.0,0.0,0.0,0.0,0.0,0.0,0.0,0.0,0.0,0.0,0.0,0.0,0.0,0.0,0.0,0.0,0.0,0.0,0.0,0.0,0.0,0.0,0.0,0.0,0.0,0.0,0.0,0.0,0.0,0.0,0.0,0.0,0.0,0.0,0.0,0.0,0.0,0.0,0.0,0.0,0.0,0.0,0.0,0.0,0.0,0.0,0.0,0.0,0.0,0.0,0.0,0.0,0.0,0.0,0.0,0.0,0.0,0.0,0.0,0.0,0.0,0.0,0.0,0.0,0.0,0.0,0.0,0.0,0.0,0.0,0.0,0.0,0.0,0.0,0.0,0.0,0.0,0.0,0.0,0.0,0.0,0.0,0.0,0.0,0.0,0.0,0.0,0.0,0.0,0.0,0.0,0.0,0.0,0.0,0.0,0.0,0.0,0.0,0.0,0.0,0.0,0.0,0.0,0.0,0.0,0.0,0.0,0.0,0.0,0.0,0.0,0.0,0.0,0.0,0.0,0.0,0.0,0.0,0.0,0.0,0.0,0.0,0.0,0.0,0.0,0.0,0.0,0.0,0.0,0.0,0.0,0.0,0.0,0.0,0.0,0.0,0.0,0.0,0.0,0.0,0.0,0.0,0.0,0.0,0.0,0.0,0.0,0.0,0.0,0.0,0.0,0.0,0.0,0.0,0.0,0.0,0.0,0.0,0.0,0.0,0.0,0.0,0.0,0.0,0.0,0.0,0.0,0.0,0.0,0.0,0.0,0.0,0.0,0.0,0.0,0.0,0.0,0.0,0.0,0.0,0.0,0.0,0.0,0.0,0.0,0.0,0.0,0.0,0.0,0.0,0.0,0.0,0.0,0.0,0.0,0.0,0.0,0.0,0.0,0.0,0.0,0.0,0.0,0.0,0.0,0.0,0.0,0.0,0.0,0.0,0.0,0.0,0.0,0.0,0.0,0.0,0.0,0.0,0.0,0.0,0.0,0.0,0.0,0.0,0.0,0.0,0.0,0.0,0.0,0.0,0.0,0.0,0.0,0.0,0.0,0.0,0.0,0.0,0.0,0.0,0.0,0.0,0.0,0.0,0.0,0.0,0.0,0.0,0.0,0.0,0.0,0.0,0.0,0.0,0.0,0.0,0.0,0.0,0.0,0.0,0.0,0.0,0.0,0.0,0.0,0.0,0.0,0.0,0.0,0.0,0.0,0.0,0.0,0.0,0.0,0.0,0.0,0.0,0.0,0.0,0.0,0.0,0.0,0.0,0.0,0.0,0.0,0.0,0.0,0.0,0.0,0.0,0.0,0.0,0.0,0.0,0.0,0.0,0.0,0.0,0.0,0.0,0.0,0.0,0.0,0.0,0.0,0.0,0.0,0.0,0.0,0.0,0.0,0.0,0.0,0.0,0.0,0.0,0.0,0.0,0.0,0.0,0.0,0.0,0.0,0.0,0.0,0.0,0.0,0.0,0.0,0.0,0.0,0.0,0.0,0.0,0.0,0.0,0.0,0.0,0.0,0.0,0.0,0.0,0.0,0.0,0.0,0.0,0.0,0.0,0.0,0.0,0.0,0.0,0.0,0.0,0.0,0.0,0.0,0.0,0.0,0.0,0.0,0.0,0.0,0.0,0.0,0.0,0.0,0.0,0.0,0.0,0.0,0.0,0.0,0.0,0.0,0.0,0.0,0.0,0.0,0.0,0.0,0.0,0.0,0.0,0.0,0.0,0.0,0.0,0.0,0.0,0.0,0.0,0.0,0.0,0.0,0.0,0.0,0.0,0.0,0.0,0.0,0.0,0.0,0.0,0.0,0.0,0.0,0.0,0.0,0.0,0.0,0.0,0.0,0.0,0.0,0.0,0.0,0.0,0.0,0.0,0.0,0.0,0.0,0.0,0.0,0.0,0.0,0.0,0.0,0.0,0.0,0.0,0.0,0.0,0.0,0.0,0.0,0.0,0.0,0.0,0.0,0.0,0.0,0.0,0.0,0.0,0.0,0.0,0.0,0.0,0.0,0.0,0.0,0.0,0.0,0.0,0.0,0.0,0.0,0.0,0.0,0.0,0.0,0.0,0.0,0.0,0.0,0.0,0.0,0.0,0.0,0.0,0.0,0.0,0.0,0.0,0.0,0.0,0.0,0.0,0.0,0.0,0.0,0.0,0.0,0.0,0.0,0.0,0.0,0.0,0.0,0.0,0.0,0.0,0.0,0.0,0.0,0.0,0.0,0.0,0.0,0.0,0.0,0.0,0.0,0.0,0.0,0.0,0.0,0.0,0.0,0.0,0.0,0.0,0.0,0.0,0.0,0.0,0.0,0.0,0.0,0.0,0.0,0.0,0.0,0.0,0.0,0.0,0.0,0.0,0.0,0.0,0.0,0.0,0.0,0.0,0.0,0.0,0.0,0.0,0.0,0.0,0.0,0.0,0.0,0.0,0.0,0.0,0.0,0.0,0.0,0.0,0.0,0.0,0.0,0.0,0.0,0.0,0.0,0.0,0.0,0.0,0.0,0.0,0.0,0.0,0.0,0.0,0.0,0.0,0.0,0.0,0.0,-3.3754,0.0,0.0,0.0,0.0,0.0,0.0,0.0,0.0,0.0,0.0,0.0,0.0,0.0,0.0,0.0,0.0,0.0,0.0,0.0,0.0,0.0,0.0,0.0,0.0,0.0,0.0,0.0,0.0,0.0,0.0,0.0,0.0,0.0,0.0,0.0,0.0,0.0,0.0,0.0,-2.821,-2.899,-2.9799,-3.1505,-3.1563,-3.0351,0.0,0.0,0.0,0.0,0.0,0.0,0.0,0.0,0.0,0.0,0.0,0.0,0.0,0.0,0.0,0.0,0.0,0.0,0.0,0.0,0.0,0.0,0.0,0.0,0.0,0.0,0.0,0.0,0.0,0.0,0.0,0.0,0.0,0.0,0.0,0.0,0.0,0.0,0.0,0.0,0.0,0.0,0.0,0.0,0.0,0.0,0.0,0.0,0.0,0.0,0.0,0.0,0.0,0.0,0.0,0.0,0.0,0.0,0.0,0.0,0.0,0.0,0.0,0.0,0.0,0.0,0.0,0.0,0.0,0.0,0.0,-3.4193,0.0,0.0,0.0,0.0,0.0,0.0,0.0,0.0,0.0,0.0,0.0,0.0,0.0,0.0,0.0,0.0,0.0,0.0,0.0,0.0,0.0,0.0,0.0,0.0,0.0,0.0,0.0,0.0,0.0,0.0,0.0,0.0,0.0,0.0,0.0,-2.4724,-2.6309,-2.8757,-2.8573,-2.9951,-3.2793,-3.4021,-3.3132,-3.0496,-3.1269,0.0,0.0,0.0,0.0,0.0,0.0,0.0,0.0,0.0,0.0,0.0,0.0,0.0,0.0,0.0,0.0,0.0,0.0,0.0,0.0,0.0,0.0,0.0,0.0,0.0,0.0,0.0,0.0,0.0,0.0,0.0,0.0,0.0,0.0,0.0,0.0,0.0,0.0,0.0,0.0,0.0,0.0,0.0,0.0,0.0,0.0,0.0,0.0,0.0,0.0,0.0,0.0,0.0,0.0,0.0,0.0,0.0,0.0,0.0,0.0,0.0,0.0,0.0,-4.2189,-4.3035,-4.3547,-4.3701,-4.3355,-4.2508,-3.9598,-3.7454,-3.5958,-3.4935,0.0,0.0,0.0,0.0,0.0,0.0,0.0,0.0,0.0,0.0,0.0,0.0,0.0,0.0,0.0,0.0,0.0,0.0,0.0,0.0,0.0,0.0,-2.677,-2.5994,-2.5384,0.0,0.0,0.0,0.0,0.0,0.0,0.0,-2.5292,-2.6542,-2.7944,-2.9472,-3.1061,-3.2676,-3.4238,-3.4988,-3.5142,-3.4665,-3.3544,-3.4022,-3.5403,0.0,0.0,0.0,0.0,0.0,0.0,0.0,0.0,0.0,0.0,0.0,0.0,0.0,0.0,0.0,0.0,0.0,0.0,0.0,0.0,0.0,0.0,0.0,0.0,0.0,0.0,0.0,0.0,0.0,0.0,0.0,0.0,0.0,0.0,0.0,0.0,0.0,0.0,0.0,0.0,0.0,-3.333,-3.333,0.0,0.0,0.0,0.0,0.0,0.0,0.0,0.0,0.0,0.0,0.0,0.0,0.0,-3.9153,-3.9395,-4.1684,-4.2802,-4.2777,-4.5482,-4.623,-4.5287,-4.6047,-4.6346,-4.6163,-4.4957,0.0,-3.7588,-3.6057,0.0,0.0,0.0,0.0,0.0,0.0,0.0,0.0,0.0,0.0,0.0,0.0,0.0,0.0,0.0,0.0,0.0,0.0,0.0,0.0,0.0,-2.6965,-2.8047,-2.7974,-2.735,-2.6253,0.0,0.0,0.0,0.0,0.0,-2.2819,-2.4316,-2.6116,-2.8464,-3.1355,-3.4797,-3.6441,-3.6295,-3.6367,-3.7252,-3.8691,-3.633,-3.5459,-3.5628,-3.3498,0.0,0.0,0.0,0.0,0.0,0.0,0.0,0.0,0.0,0.0,0.0,0.0,0.0,0.0,0.0,0.0,0.0,0.0,0.0,0.0,0.0,0.0,0.0,0.0,0.0,0.0,0.0,0.0,0.0,0.0,0.0,0.0,0.0,0.0,0.0,0.0,0.0,0.0,0.0,-3.4064,-3.5202,-3.3366,-3.4688,-3.4894,0.0,0.0,0.0,0.0,0.0,0.0,0.0,0.0,0.0,-3.9905,-4.1418,-4.2297,-4.2458,-4.4849,-4.6012,-4.5966,-4.777,-4.8314,-4.7817,-4.8198,-4.8495,-4.8701,-4.828,-4.6445,-4.3393,-3.9813,-3.7031,-3.486,0.0,0.0,0.0,0.0,-3.224,-3.2667,0.0,0.0,0.0,0.0,0.0,0.0,0.0,0.0,0.0,0.0,0.0,0.0,-2.6022,-2.7727,-2.9127,-2.9926,-2.8952,-2.7582,-2.5771,0.0,0.0,0.0,0.0,-2.2371,-2.3818,-2.661,-2.9867,-3.3579,-3.7327,-3.8683,-3.7763,-3.809,-3.931,-4.1151,-3.9124,-3.7736,-3.6807,-3.5078,-3.3521,-3.2102,0.0,0.0,0.0,0.0,0.0,0.0,0.0,0.0,0.0,0.0,0.0,0.0,0.0,0.0,0.0,0.0,0.0,0.0,0.0,0.0,0.0,0.0,0.0,0.0,0.0,0.0,0.0,0.0,0.0,0.0,0.0,0.0,0.0,0.0,0.0,0.0,0.0,-3.5862,-3.667,-3.3573,-3.5973,-3.6707,0.0,0.0,0.0,0.0,0.0,0.0,-3.9915,-4.1138,-4.2159,-4.3011,-4.4564,-4.5439,-4.5556,-4.7312,-4.8341,-4.8546,-4.9085,-4.9401,-4.9489,-4.9489,-4.9645,-4.9949,-4.9721,-4.8941,-4.7468,-4.3227,-4.0085,-3.7808,-3.5892,-3.5078,-3.4859,-3.4202,-3.4086,-3.4279,0.0,0.0,0.0,0.0,0.0,0.0,0.0,0.0,0.0,0.0,0.0,-2.4928,-2.6316,-2.8101,-2.9751,-3.1185,-2.9353,-2.7868,-2.7238,-2.4192,-2.2359,-2.2297,-2.1852,-2.2697,-2.5053,-2.9635,-3.3294,-3.594,-3.729,-3.7965,-3.8021,-4.0332,-4.1196,-4.085,-4.1735,-4.1743,-4.08,-3.6367,-3.4418,-3.4057,-3.0934,0.0,0.0,0.0,0.0,0.0,0.0,0.0,0.0,0.0,0.0,0.0,0.0,0.0,0.0,0.0,0.0,0.0,0.0,0.0,0.0,0.0,0.0,0.0,0.0,0.0,0.0,0.0,0.0,0.0,0.0,0.0,0.0,0.0,0.0,0.0,0.0,0.0,0.0,-3.5188,-3.9093,0.0,0.0,0.0,0.0,-3.8521,-4.0163,-4.1281,-4.1501,-4.3646,-4.5287,-4.6153,-4.7425,-4.8292,-4.8671,-4.8421,-4.8689,-4.9414,-4.907,-4.9123,-4.9489,-4.9489,-4.9504,-4.9495,-4.873,-4.7861,-4.6895,-4.492,-4.3085,-4.1269,-3.8777,-3.7315,-3.6553,-3.6514,-3.552,-3.4218,0.0,0.0,0.0,0.0,0.0,0.0,0.0,0.0,0.0,-2.0643,-2.3013,-2.5255,-2.6836,-2.9492,-3.162,-3.291,-3.2531,-3.1539,-2.9928,-2.7039,-2.521,-2.4842,-2.3399,-2.4442,-2.8472,-3.2064,-3.4473,-3.558,-3.7214,-3.8212,-3.86,-3.8288,-3.9255,-4.1183,-4.0842,-4.0958,-4.1242,-3.8721,-3.6686,-3.4951,-3.2916,-3.0819,0.0,0.0,0.0,0.0,0.0,0.0,0.0,0.0,0.0,0.0,0.0,0.0,0.0,0.0,0.0,0.0,0.0,0.0,0.0,0.0,0.0,0.0,0.0,0.0,0.0,0.0,0.0,0.0,0.0,0.0,0.0,0.0,0.0,0.0,0.0,0.0,0.0,-3.904,-4.1829,0.0,-3.968,-4.0194,-4.1001,-4.1735,-4.3359,-4.479,-4.5877,-4.7223,-4.8403,-4.9214,-4.864,-4.8659,-4.9344,-4.8659,-4.8439,-4.8746,-4.8568,-4.8586,-4.8746,-4.8746,-4.8881,-4.907,-4.8262,-4.789,-4.7696,-4.5999,-4.4407,-4.2833,-4.0262,-3.9218,-3.9008,-3.793,-3.7161,-3.6531,0.0,0.0,0.0,0.0,0.0,0.0,0.0,0.0,0.0,-2.1343,-2.3602,-2.6063,-2.8674,-3.1235,-3.3424,-3.5137,-3.463,-3.3661,-3.238,-2.9026,-2.6982,-2.6769,-2.5505,-2.6739,-3.0913,-3.3131,-3.4422,-3.4848,-3.6437,-3.7377,-3.7748,-3.7349,-3.8505,-4.0829,-4.0725,-4.1194,-4.1953,-4.0876,-3.8751,-3.6028,-3.4711,-3.2976,-3.1059,0.0,0.0,0.0,0.0,0.0,0.0,0.0,0.0,0.0,0.0,0.0,0.0,0.0,0.0,0.0,0.0,0.0,0.0,0.0,0.0,0.0,0.0,0.0,0.0,0.0,0.0,0.0,0.0,0.0,0.0,0.0,0.0,0.0,0.0,0.0,-4.1792,-4.1282,-4.4015,-4.4948,-4.2526,-4.3314,-4.4415,-4.5498,-4.6801,-4.8012,-4.9077,-4.9958,-5.0418,-5.0398,-4.9591,-4.915,-4.915,-4.86,-4.8306,-4.8306,-4.8306,-4.8306,-4.8306,-4.8306,-4.8292,-4.8247,-4.7431,-4.7094,-4.6989,-4.5604,-4.4565,-4.3691,-4.1813,-4.1159,-4.1008,-3.9627,-3.8831,-3.8216,0.0,0.0,0.0,0.0,0.0,0.0,0.0,0.0,-2.0562,-2.2794,-2.4582,-2.7318,-3.1687,-3.3219,-3.4997,-3.773,-3.541,-3.3939,-3.4434,-2.9923,-2.7472,-2.7954,-2.8164,-2.9537,-3.2181,-3.2874,-3.3395,-3.3922,-3.4981,-3.5539,-3.559,-3.7818,-3.92,-3.9873,-4.1626,-4.2701,-4.323,-4.2641,-4.0516,-3.7434,-3.6118,-3.516,-3.4264,0.0,0.0,0.0,0.0,0.0,0.0,0.0,0.0,0.0,0.0,0.0,0.0,0.0,0.0,0.0,0.0,0.0,0.0,0.0,0.0,0.0,0.0,0.0,0.0,0.0,0.0,0.0,0.0,0.0,0.0,0.0,0.0,0.0,-3.7126,-4.1046,-4.3208,-4.1785,-4.5547,-4.7351,-4.504,-4.7719,-4.961,-4.9684,-5.0398,-5.0839,-5.0875,-5.1573,-5.1263,-4.9721,-5.0362,-4.9958,-4.8379,-4.8306,-4.8306,-4.8306,-4.8306,-4.8306,-4.8306,-4.8306,-4.7846,-4.7076,-4.625,-4.5443,-4.4635,-4.3828,-4.3677,-4.3901,-4.3437,-4.2943,-4.2377,-4.1559,-4.0375,-3.8962,0.0,0.0,0.0,0.0,0.0,0.0,0.0,0.0,-1.9848,-2.221,-2.5034,-2.7896,-3.0733,-3.3119,-3.5251,-3.7153,-3.5704,-3.5079,-3.6014,-3.2492,-3.0178,-2.9724,-3.1299,-3.2533,-3.3411,-3.4357,-3.4705,-3.45,-3.5604,-3.6302,-3.6688,-3.7702,-3.892,-4.0291,-4.1241,-4.2051,-4.2641,-4.294,-4.2252,-4.0823,-3.8512,-3.6926,-3.5731,0.0,0.0,0.0,0.0,0.0,0.0,0.0,0.0,0.0,0.0,0.0,0.0,0.0,0.0,0.0,0.0,0.0,0.0,0.0,0.0,0.0,0.0,0.0,0.0,0.0,0.0,0.0,0.0,0.0,0.0,0.0,0.0,-4.013,-4.1789,-4.2625,-4.3784,-4.5653,-4.6931,-4.7617,-4.7544,-4.8786,-5.0088,-5.1263,-5.1536,-5.1903,-5.2527,-5.1646,-5.1169,-5.1336,-4.9811,-4.9077,-4.9243,-4.8636,-4.8306,-4.8306,-4.8306,-4.8306,-4.8306,-4.8306,-4.7846,-4.7076,-4.625,-4.5443,-4.4635,-4.3828,-4.3215,-4.2738,-4.2247,-4.2132,-4.2051,-4.0613,-3.8957,-3.725,0.0,0.0,0.0,0.0,0.0,0.0,0.0,0.0,-2.018,-2.299,-2.5661,-2.8398,-3.1336,-3.3631,-3.5409,-3.6497,-3.559,-3.5026,-3.531,-3.3387,-3.2392,-3.2814,-3.3865,-3.4768,-3.55,-3.5683,-3.5652,-3.5312,-3.6533,-3.7236,-3.7389,-3.8539,-3.9693,-4.0846,-4.1542,-4.2051,-4.244,-4.306,-4.294,-4.2231,-4.0404,-3.92,-3.8272,-3.5729,-3.4681,-3.4352,-3.2736,-3.2497,-3.2706,-3.13,0.0,0.0,0.0,0.0,0.0,0.0,0.0,0.0,0.0,0.0,0.0,0.0,0.0,0.0,0.0,0.0,0.0,0.0,0.0,0.0,0.0,0.0,0.0,0.0,-3.9478,-4.2584,-4.5191,-4.5132,-4.553,-4.7426,-4.8127,-4.8637,-4.9102,-4.9807,-5.0733,-5.1976,-5.1782,-5.2078,-5.314,-5.1704,-5.1177,-5.1977,-4.9958,-4.9077,-4.961,-4.8746,-4.8306,-4.8306,-4.8306,-4.8306,-4.8306,-4.8306,-4.7846,-4.7076,-4.625,-4.5443,-4.4635,-4.3828,-4.302,0.0,0.0,0.0,0.0,0.0,-3.8375,-3.6646,0.0,0.0,0.0,0.0,0.0,0.0,0.0,0.0,-2.0882,-2.4274,-2.6163,-2.8574,-3.2215,-3.3929,-3.5024,-3.5596,-3.4854,-3.4201,-3.3871,-3.3492,-3.4191,-3.615,-3.5892,-3.6322,-3.7701,-3.6934,-3.6488,-3.6405,-3.7675,-3.8206,-3.8035,-3.979,-4.0938,-4.1542,-4.2141,-4.244,-4.256,-4.309,-4.2921,-4.2285,-4.1705,-4.1482,-4.1063,-3.7883,-3.7045,-3.7285,-3.5402,-3.4444,-3.3933,-3.3125,0.0,0.0,0.0,0.0,0.0,0.0,0.0,0.0,0.0,0.0,0.0,0.0,0.0,0.0,0.0,0.0,0.0,0.0,0.0,0.0,0.0,0.0,0.0,0.0,-4.2083,-4.391,-4.7398,-4.7883,-4.7831,-4.7727,-4.8863,-4.9694,-4.9799,-5.0503,-5.1298,-5.2024,-5.1449,-5.1627,-5.2893,0.0,0.0,0.0,0.0,-4.9395,-4.9395,-4.8533,-4.8114,-4.8209,-4.8209,-4.8248,-4.8306,-4.8306,-4.7846,-4.7076,-4.625,-4.5443,-4.4635,-4.3828,-4.293,-4.1999,-4.1262,-4.0619,-4.0081,-3.9665,-3.829,-3.6658,0.0,0.0,0.0,0.0,0.0,0.0,0.0,0.0,-2.0159,-2.3685,-2.5586,-2.7454,-2.9503,-3.0792,-3.2214,-3.3908,-3.2993,-3.3386,-3.575,-3.5103,-3.5257,-3.6605,-3.7071,-3.724,-3.7238,-3.8007,-3.8173,-3.7744,-3.8946,-3.9508,-3.9448,-4.0233,-4.1171,-4.2201,-4.2351,-4.2641,-4.315,-4.323,-4.2691,-4.1797,-4.209,-4.1901,-4.1183,-3.8871,-3.8093,-3.8003,-3.6596,-3.6686,-3.7195,-3.5489,-3.519,-3.519,-3.3185,0.0,0.0,0.0,0.0,0.0,0.0,0.0,0.0,0.0,0.0,0.0,0.0,0.0,0.0,0.0,0.0,0.0,0.0,0.0,0.0,-4.1711,-4.3741,-4.5703,-4.7601,-4.8395,-4.8519,-4.7942,-4.7995,-4.8394,-4.904,-4.9723,-5.0458,-5.1263,-5.1157,-5.1235,-5.1479,-5.0627,-5.0179,-5.0303,-4.8806,-4.7986,-4.7986,-4.7166,-4.7044,-4.7554,0.0,0.0,-4.8306,-4.8306,-4.7846,-4.7076,-4.625,-4.5443,-4.4635,-4.3828,-4.2391,-4.0654,-4.0284,-3.9653,-3.8994,-3.8922,-3.78,-3.638,0.0,0.0,0.0,0.0,0.0,0.0,0.0,0.0,-2.0147,-2.2653,-2.4307,-2.5862,-2.7519,-2.8645,-2.9405,-2.9808,-3.0062,-3.1711,-3.5245,-3.5363,-3.6094,-3.7996,-3.8407,-3.8614,-3.8765,-3.9359,-3.9675,-3.9755,-4.0665,-4.1123,-4.1136,-4.2027,-4.2602,-4.2851,-4.318,-4.315,-4.2811,-4.2552,-4.1936,-4.1138,-4.1376,-4.1116,-4.0411,-3.9705,-3.92,-3.8811,-3.8182,-3.8153,-3.8242,-3.7285,-3.6746,-3.6241,-3.4533,-3.3095,-3.1691,0.0,0.0,0.0,0.0,0.0,0.0,0.0,0.0,0.0,0.0,0.0,0.0,0.0,0.0,-3.755,0.0,0.0,-4.1941,-4.4181,-4.5838,-4.7192,-4.8308,-4.8477,-4.8477,-4.8477,-4.8401,-4.8533,-4.8905,-4.9258,-4.9762,-5.0553,-5.0275,-5.0376,-5.1122,-5.001,-4.9504,-4.9928,-4.8406,-4.7628,-4.7652,-4.6814,-4.6589,-4.691,-4.691,-4.7066,-4.7327,-4.7327,-4.7147,-4.6678,-4.5488,-4.4766,-4.4261,-4.2315,-4.0885,-3.9797,-3.8905,-3.8308,-3.7964,-3.8218,-3.7116,-3.5612,0.0,0.0,0.0,0.0,0.0,0.0,0.0,0.0,0.0,-2.1722,-2.2936,-2.418,-2.5544,-2.6472,-2.6765,-2.6226,-2.7954,-3.0687,-3.444,-3.5386,-3.6841,-3.9284,-3.9373,-3.9738,-4.0397,-4.0516,-4.0905,-4.1564,-4.2261,-4.259,-4.262,-4.3748,-4.3977,-4.3499,-4.4227,-4.3777,-4.2584,-4.2133,-4.1295,-4.0279,-4.0557,-4.0057,-3.931,-4.0009,-3.9884,-3.9379,-3.9074,-3.8512,-3.7823,-3.7823,-3.7045,-3.5971,-3.4981,-3.4334,-3.3393,-3.0744,-3.0665,0.0,0.0,0.0,0.0,0.0,0.0,0.0,0.0,0.0,-3.5091,-3.7209,-3.8345,-3.9505,-4.1313,-4.2489,-4.4012,-4.6583,-4.753,-4.8139,-4.8714,-4.8274,-4.8041,-4.8511,-4.8714,-4.8781,-4.8781,-4.8917,-4.9255,-4.983,-4.9323,-4.9498,-5.0705,-4.9539,-4.916,-4.9811,-4.8415,-4.7643,-4.7518,-4.6695,-4.6253,-4.6233,-4.6233,-4.6305,-4.6389,-4.6389,-4.6389,-4.6318,-4.4761,-4.3912,-4.3452,-4.0819,-3.9661,-3.9403,-3.7886,-3.7208,-3.7173,-3.7632,-3.6595,-3.5119,0.0,0.0,0.0,0.0,0.0,0.0,0.0,0.0,0.0,-2.1381,-2.2088,-2.2573,-2.2749,-2.3291,-2.439,-2.6294,-2.9118,-3.2115,-3.5183,-3.6289,-3.7601,-3.9343,-3.9373,-3.9738,-4.0397,-4.0965,-4.1632,-4.2291,-4.291,-4.32,-4.32,-4.3917,-4.4287,-4.4227,-4.4885,-4.4453,-4.33,-4.3229,-4.1591,-3.9181,-4.0237,-3.964,-3.82,-3.927,-3.9563,-3.9224,-3.8063,-3.6866,-3.5818,-3.5818,-3.531,-3.4803,-3.525,-3.5368,-3.481,-3.2101,0.0,-3.0466,-2.8897,-2.9134,-3.0378,-3.2793,-3.3148,-3.413,0.0,0.0,-3.8008,-4.0109,-4.1696,-4.2788,-4.3097,-4.4891,-4.6616,-4.7631,-4.7838,-4.7906,-4.8007,-4.7939,-4.7699,-4.709,-4.7631,-4.8007,-4.8007,-4.8612,-4.9052,-4.912,-4.9052,-4.9049,-4.9243,-4.9073,-4.9002,-4.9124,-4.8311,-4.7563,-4.6912,-4.6164,-4.572,-4.5597,-4.5597,-4.5865,-4.6389,-4.6389,-4.6389,-4.6318,-4.4761,-4.3311,-4.1987,-4.0919,-4.02,-3.9611,-3.8096,-3.7184,-3.6876,-3.715,-3.6643,-3.5791,0.0,0.0,0.0,0.0,0.0,0.0,0.0,0.0,0.0,0.0,0.0,-2.1368,-2.1368,-2.1267,-2.2182,-2.4637,-2.7476,-3.063,-3.4109,-3.617,-3.8062,-3.9881,-4.0367,-4.0876,-4.1572,-4.2192,-4.2641,-4.291,-4.317,-4.3499,-4.3888,-4.4586,-4.4885,-4.4915,-4.5603,-4.5382,-4.4418,-4.2978,-4.1501,-4.0051,-4.0519,-3.9578,-3.8048,-3.9508,-3.8832,-3.7135,-3.6926,-3.5789,0.0,0.0,-3.3574,-3.3395,-3.3664,-3.3786,-3.3452,-3.1498,-3.1613,0.0,-3.2609,-3.3604,0.0,0.0,-3.6957,-3.8231,-3.9943,-4.0008,-4.0236,-4.1993,-4.3161,-4.4327,-4.5732,-4.6447,-4.7192,0.0,-4.8545,-4.8409,-4.7939,-4.753,-4.6989,-4.6244,-4.6447,-4.6989,-4.7804,-4.8206,-4.8545,-4.8984,-4.9018,-4.9018,-4.9018,-4.9018,-4.8815,-4.8376,-4.7631,-4.6921,-4.6177,-4.5432,-4.5026,-4.4988,-4.4988,-4.5115,-4.5346,-4.5346,-4.5105,-4.4587,-4.3517,-4.2447,-4.1378,-4.0146,-3.9284,-3.8595,-3.7536,-3.6695,-3.6152,-3.6561,-3.6018,-3.5108,0.0,0.0,0.0,0.0,0.0,0.0,0.0,0.0,0.0,0.0,0.0,0.0,0.0,-2.0062,-2.0707,-2.2973,-2.5578,-2.8706,-3.2464,-3.5288,-3.7734,-3.9768,-4.0666,-4.1452,-4.2111,-4.2731,-4.32,-4.3559,-4.3559,-4.3798,-4.4317,-4.4975,-4.5185,-4.5035,-4.5753,-4.5585,-4.4659,-4.289,-4.1636,-4.0741,-4.0531,-3.9612,-3.8417,-3.8906,-3.7367,-3.5011,-3.5489,-3.4143,0.0,0.0,-3.1599,-3.1509,-3.1839,-3.2264,-3.2369,-3.1136,-3.1979,-3.3565,-3.4746,0.0,0.0,-3.8385,-4.0225,-4.1649,-4.0748,-4.1089,-4.1851,-4.2735,-4.3293,-4.4233,-4.62,-4.6455,-4.6691,-4.779,-4.8316,-4.8306,-4.7334,-4.676,-4.6085,-4.5148,-4.5047,-4.5551,-4.6794,-4.7342,-4.8003,-4.8951,-4.8815,-4.8781,-4.8984,-4.9018,-4.8781,-4.824,-4.7496,-4.6752,-4.6007,-4.5263,-4.4818,-4.4615,-4.4615,-4.4615,-4.4615,-4.4615,-4.4147,-4.3341,-4.2625,-4.188,-4.1102,-3.9817,-3.8971,-3.8396,-3.7449,-3.6738,-3.622,-3.6187,-3.5463,-3.4533,0.0,0.0,0.0,0.0,0.0,0.0,0.0,0.0,0.0,0.0,0.0,0.0,0.0,0.0,-2.0348,-2.1743,-2.417,-2.7096,-3.0481,-3.3627,-3.63,-3.8357,-3.9738,-4.0726,-4.1422,-4.2081,-4.3,-4.4287,-4.4287,-4.4287,-4.4317,-4.4975,-4.4945,-4.4377,-4.5035,-4.4617,-4.3459,-4.3372,-4.2345,-4.0642,-3.9975,-3.9648,-3.9269,-3.6794,-3.4884,-3.3544,-3.3574,0.0,-2.8846,-2.9475,-2.9235,-2.8936,-3.0163,-3.1528,0.0,-3.1709,-3.202,-3.2788,-3.3547,0.0,-3.7359,-3.9505,-4.1719,-4.3149,-4.2282,-4.2613,-4.2847,-4.2206,-4.1964,-4.2163,-4.3069,-4.4357,-4.5255,-4.5287,-4.6614,-4.7144,-4.5662,-4.5494,-4.4997,-4.355,-4.3353,-4.3649,0.0,-4.5932,-4.7428,-4.8883,-4.8342,-4.8274,-4.8951,-4.9018,-4.8984,-4.8984,-4.8274,-4.753,-4.6752,-4.6041,-4.5297,-4.4615,-4.4615,-4.4615,-4.4615,-4.4615,-4.4147,-4.3341,-4.2625,-4.188,-4.1136,-4.0383,-4.0045,-3.991,-3.843,-3.7855,-3.7652,-3.6163,-3.5148,-3.4493,0.0,0.0,0.0,0.0,0.0,0.0,0.0,0.0,0.0,0.0,0.0,0.0,0.0,0.0,0.0,0.0,-2.377,-2.6218,-2.9088,-3.272,-3.5469,-3.7075,-3.9649,-4.0935,-4.0726,-4.2386,-4.3234,-4.3264,-4.4297,-4.4815,-4.4846,-4.6003,-4.6066,-4.5253,-4.5926,-4.5666,-4.4588,-4.3284,-4.2181,-4.1199,-4.0052,-3.9093,-3.815,-3.6248,-3.3888,-3.139,0.0,-2.8966,-2.723,-2.7021,-2.7081,-2.735,-2.7769,-2.8544,-2.9511,-3.0546,-3.2376,-3.4308,-3.5449,0.0,-4.1244,-4.149,-4.2814,-4.3731,-4.2385,-4.2105,-4.2134,-4.1917,-4.1086,-4.0966,-4.2813,-4.2783,-4.2944,-4.429,-4.5362,-4.566,-4.4688,-4.4947,-4.4527,-4.2653,-4.2846,0.0,0.0,0.0,0.0,-4.8112,-4.7479,-4.7584,-4.892,-4.8385,-4.7863,-4.7396,-4.6666,-4.5903,-4.5233,-4.5067,-4.4852,-4.4615,-4.4615,-4.4615,-4.4615,-4.4615,-4.4147,-4.3341,-4.2625,-4.188,-4.1136,-4.0417,-3.9512,-3.8599,-3.8091,-3.7256,-3.6309,-3.5802,-3.4822,-3.3761,0.0,0.0,0.0,0.0,0.0,0.0,0.0,0.0,0.0,0.0,0.0,0.0,0.0,0.0,0.0,0.0,0.0,-2.4633,-2.7053,-3.0426,-3.303,-3.462,-3.7404,-3.8721,-3.8302,-3.9925,-4.0755,-4.0786,-4.2066,-4.2956,-4.3516,-4.4654,-4.5011,-4.4684,-4.5122,-4.5129,-4.4694,-4.2902,-4.1794,-4.1075,-3.9182,-3.7821,-3.6669,-3.4522,-3.2258,0.0,-2.8158,-2.6961,-2.6213,-2.6033,-2.638,-2.6994,-2.7504,-2.8614,-3.0043,-3.1582,-3.4031,-3.6642,-3.8325,-4.1261,-4.3692,-4.3172,-4.3909,-4.432,-4.243,-4.1864,-4.1527,-4.0851,-3.9714,-3.9218,-4.0252,-3.9911,-4.0036,-4.1823,-4.2976,-4.3622,-4.3582,-4.3993,-4.3772,-4.2412,-4.2631,-4.2918,0.0,0.0,0.0,-4.6439,-4.6257,-4.652,-4.76,-4.7078,-4.6518,-4.6094,-4.5114,-4.4396,-4.3939,-4.3773,-4.368,-4.368,-4.4006,-4.3977,-4.368,-4.368,-4.3248,-4.2518,-4.2039,-4.1412,-4.0728,-4.0011,-3.9016,-3.7876,-3.7315,-3.6511,-3.5559,-3.5058,-3.4262,-3.3426,0.0,0.0,0.0,0.0,0.0,0.0,0.0,0.0,0.0,0.0,0.0,0.0,0.0,0.0,0.0,0.0,0.0,0.0,-2.4516,-2.6996,-2.9228,-3.1213,-3.3275,-3.4384,-3.4354,-3.5136,-3.6097,-3.7263,-3.806,-3.9112,-4.0507,-4.119,-4.1915,-4.2618,-4.2618,-4.3001,-4.3542,-4.206,-4.1031,-4.0167,-3.7475,-3.5973,-3.4968,-3.1734,-3.0098,-2.9199,-2.6572,-2.5615,-2.5674,-2.6393,-2.715,-2.8054,-2.9401,-3.164,-3.3938,-3.4748,-3.6912,-3.9561,-4.1815,-4.3533,-4.463,-4.4426,-4.4871,-4.4751,-4.243,-4.1673,-4.0938,-3.8955,-3.7801,-3.6806,0.0,0.0,-3.6866,-3.8123,-3.9742,-4.1283,-4.2504,-4.2788,-4.2855,0.0,0.0,0.0,0.0,0.0,0.0,-4.3992,0.0,-4.5048,-4.5186,-4.5216,-4.5149,-4.5021,-4.3741,-4.3037,-4.3006,-4.2333,-4.1981,-4.2013,-4.2863,-4.28,-4.1981,-4.1949,-4.1597,-4.0955,-4.0909,-4.0536,-3.9919,-3.9193,-3.8514,-3.7715,-3.6214,-3.5622,-3.5448,-3.4078,-3.355,-3.3439,0.0,0.0,0.0,0.0,0.0,0.0,0.0,0.0,0.0,0.0,0.0,0.0,0.0,0.0,0.0,0.0,0.0,0.0,-2.3879,-2.6381,-2.8062,-2.8577,-3.142,-3.2796,-3.2258,-3.4494,-3.5591,-3.5459,-3.7754,-3.8794,-3.8767,-3.9939,-4.0212,-3.9722,-3.9722,-3.9468,-3.8932,-3.8055,-3.7581,-3.7227,-3.5551,-3.477,-3.4258,-3.1561,-2.9782,-2.8566,-2.6922,-2.5704,-2.5113,0.0,0.0,0.0,-3.2622,-3.4342,-3.634,-3.7104,-3.9327,-4.1749,-4.2903,-4.4589,-4.5748,-4.4667,-4.3944,-4.294,-4.0784,-3.9029,-3.757,-3.6539,-3.496,-3.3814,0.0,0.0,0.0,-3.7464,-3.9655,0.0,-4.2334,-4.3301,0.0,-4.3201,0.0,-4.3714,-4.3201,-4.299,0.0,0.0,-4.32,-4.3913,-4.5152,-4.5025,-4.4221,-4.2726,-4.2782,-4.231,-4.1312,-4.1754,-4.1981,-4.1981,-4.2237,-4.2237,-4.1981,-4.1501,-4.0861,-4.0156,-3.9661,-3.904,-3.833,-3.7648,-3.694,-3.6201,-3.5324,-3.462,-3.4078,-3.3739,-3.3251,-3.2764,0.0,0.0,0.0,0.0,0.0,0.0,0.0,0.0,0.0,0.0,0.0,0.0,0.0,0.0,0.0,0.0,0.0,0.0,0.0,-2.5159,-2.6273,-2.6273,-2.8338,-2.9325,-2.891,-3.1006,-3.182,-3.1194,-3.3824,-3.489,-3.4443,-3.572,-3.6398,-3.6543,-3.6543,-3.6528,-3.6468,-3.5438,-3.5039,0.0,0.0,-3.2028,-3.1863,-2.9897,-2.868,-2.7898,-2.6965,0.0,0.0,0.0,0.0,-3.4716,-3.569,-3.7275,-3.9084,-4.0555,0.0,-4.4482,-4.509,-4.632,-4.6914,-4.4686,-4.345,-4.2081,-3.9321,-3.7748,-3.6387,-3.4562,-3.3514,0.0,-3.2287,0.0,0.0,0.0,0.0,0.0,-4.2141,-4.324,-4.3958,0.0,-4.4526,0.0,-4.3798,-4.3469,-4.314,0.0,-4.294,-4.3328,-4.3946,-4.355,-4.2792,-4.1668,-4.1382,-4.0893,-4.013,-4.0995,-4.1262,-4.086,-4.1262,-4.1229,-4.086,-4.0144,-3.9492,-3.8807,0.0,-3.7924,-3.7261,-3.688,-3.6182,-3.5177,-3.4451,-3.3756,-3.3103,-3.2783,-3.2618,-3.2452,0.0,0.0,0.0,0.0,0.0,0.0,0.0,0.0,0.0,0.0,0.0,0.0,0.0,0.0,0.0,0.0,0.0,0.0,0.0,0.0,0.0,-2.4485,-2.5113,-2.5465,-2.5465,-2.6719,-2.7103,-2.6573,-2.874,-2.969,-2.9406,-3.0458,-3.1709,-3.3072,-3.3072,-3.3684,-3.4665,-3.336,-3.2818,-3.2609,-3.0086,-2.9081,-2.8936,0.0,0.0,0.0,0.0,0.0,0.0,0.0,-3.5119,-3.644,-3.8655,-4.0348,-4.1972,-4.4461,-4.6017,-4.7029,-4.7605,-4.8094,-4.771,-4.4575,-4.3195,-4.1673,-3.8,-3.6956,-3.5878,-3.2766,0.0,-3.2407,-3.0582,-3.1569,-3.3245,-3.507,0.0,-3.8661,-4.1931,-4.291,-4.3798,-4.5125,-4.5304,-4.5065,-4.4496,-4.3798,-4.3409,-4.3409,-4.3349,-4.306,-4.244,-4.1782,-4.1354,-4.1265,-4.0068,-3.9373,-3.9373,-4.0135,-4.0165,-3.9409,-4.017,-4.01,-3.9343,-3.8601,-3.7943,-3.7409,-3.7357,-3.697,-3.6446,-3.6324,-3.564,-3.4562,-3.3609,-3.2962,-3.2505,-3.1769,-3.191,-3.2262,0.0,0.0,0.0,0.0,0.0,0.0,0.0,0.0,0.0,0.0,-2.5113,-2.3529,0.0,0.0,0.0,0.0,0.0,0.0,0.0,0.0,0.0,0.0,-2.4425,-2.4784,-2.4784,-2.6014,-2.6598,-2.6427,-2.7411,-2.7806,-2.7732,-2.7977,-2.8484,-2.9158,-2.9158,-2.9515,-3.0108,-2.9859,-2.9777,-2.9732,-2.9336,-2.8878,-2.8306,0.0,0.0,0.0,0.0,0.0,0.0,-3.2795,-3.6011,-3.9371,-4.1638,-4.3396,-4.5094,-4.7524,-4.7849,-4.7671,-4.8955,-4.8216,-4.6497,-4.4334,-4.2714,-4.0618,-3.672,-3.4562,0.0,0.0,-3.022,-2.9983,-2.9086,-3.133,-3.3604,-3.4533,0.0,0.0,0.0,0.0,-4.3798,0.0,0.0,0.0,0.0,0.0,0.0,0.0,0.0,-4.306,-4.244,-4.1782,-4.1145,-4.0576,-3.9828,-3.9373,-3.9373,-3.9553,-3.9553,-3.9373,-3.9553,-3.9553,-3.9379,-3.8153,-3.7524,-3.7345,-3.6313,0.0,-3.5595,-3.4515,-3.4212,-3.4361,-3.2524,-3.2103,-3.2434,-3.1748,-3.1597,-3.1653,0.0,0.0,0.0,0.0,0.0,0.0,0.0,-2.7629,-2.8794,-3.029,-2.8479,-2.6861,-2.6227,-2.4928,-2.3999,0.0,0.0,0.0,0.0,0.0,0.0,0.0,0.0,0.0,0.0,-2.533,-2.5645,0.0,0.0,-2.6477,-2.5768,0.0,0.0,0.0,-2.6333,-2.6678,-2.7417,-2.7145,-2.7544,-2.8277,-2.7451,0.0,0.0,0.0,0.0,0.0,0.0,0.0,0.0,0.0,-3.4785,-3.7609,-4.1274,-4.3163,-4.442,-4.6422,-4.7173,-4.7505,-4.7997,-4.7711,-4.6762,-4.4625,-4.2727,-4.0337,-3.6417,0.0,0.0,0.0,-2.9355,-2.9412,-2.8727,-3.0731,0.0,0.0,0.0,0.0,0.0,0.0,0.0,0.0,0.0,0.0,0.0,0.0,0.0,0.0,0.0,-4.2701,-4.241,-4.1414,-4.0576,-3.9918,-3.9589,-3.9373,-3.9373,-3.9373,-3.9373,-3.9373,-3.9373,-3.9373,-3.9343,-3.8033,-3.7404,-3.7345,-3.6058,0.0,-3.5459,-3.4801,-3.4322,-3.3873,-3.2916,-3.2288,-3.1929,-3.163,-3.1511,-3.1511,0.0,0.0,0.0,0.0,0.0,0.0,0.0,-2.9475,-3.092,-3.2564,-3.1736,-3.0352,-2.8798,-2.6344,-2.4485,0.0,0.0,0.0,0.0,0.0,0.0,0.0,0.0,0.0,0.0,0.0,0.0,0.0,0.0,0.0,0.0,0.0,0.0,0.0,0.0,0.0,0.0,-2.5373,-2.5999,0.0,0.0,0.0,0.0,0.0,0.0,0.0,0.0,0.0,0.0,0.0,-3.2647,-3.4389,-3.8652,-4.1086,-4.2677,-4.4341,-4.5815,-4.6945,-4.692,-4.7309,-4.713,-4.485,-4.2851,-4.0307,-3.6207,-3.4017,0.0,0.0,-2.8664,-2.8853,-2.8644,-2.9935,-3.1366,0.0,-3.3634,0.0,0.0,0.0,0.0,0.0,0.0,0.0,0.0,0.0,0.0,0.0,0.0,0.0,-4.1991,-4.0965,-4.0098,-3.9403,-3.9373,-3.9373,-3.9373,-3.9373,-3.9373,-3.9373,-3.9373,-3.9373,-3.9343,-3.8033,-3.7404,-3.7345,-3.6058,0.0,0.0,-3.534,-3.4651,-3.3694,-3.3395,-3.2647,-3.169,-3.154,-3.1365,-3.1278,0.0,0.0,0.0,0.0,0.0,0.0,0.0,-3.0156,-3.1867,-3.3998,-3.3191,-3.2135,-3.1405,-2.7852,-2.4986,0.0,0.0,0.0,0.0,0.0,0.0,0.0,0.0,0.0,0.0,0.0,0.0,0.0,0.0,0.0,0.0,0.0,0.0,0.0,0.0,0.0,0.0,0.0,0.0,0.0,0.0,0.0,0.0,0.0,0.0,0.0,0.0,0.0,0.0,0.0,0.0,-3.1269,-3.3547,-3.7357,-4.131,-4.3037,0.0,0.0,-4.7353,-4.7546,-4.6869,-4.4796,-4.2851,-4.0187,-3.5642,0.0,0.0,-2.8114,-2.7153,-2.7088,-2.834,-2.916,-3.0251,-3.2169,0.0,-3.5462,0.0,0.0,0.0,0.0,0.0,0.0,0.0,0.0,0.0,0.0,0.0,0.0,-4.0606,-4.0457,-4.0098,-3.9403,-3.9373,-3.9373,-3.9373,-3.9373,-3.9373,-3.9373,-3.9373,-3.9373,-3.9343,-3.8033,-3.7404,-3.7345,-3.6058,0.0,0.0,-3.4831,-3.4533,-3.4294,-3.3066,-3.2527,-3.2318,-3.172,-3.1043,-3.051,0.0,0.0,0.0,0.0,0.0,0.0,-2.9308,-3.0176,-3.1664,-3.4776,-3.3636,-3.2496,-3.2321,-2.8989,-2.6093,-2.4335,0.0,0.0,0.0,0.0,0.0,0.0,0.0,0.0,0.0,0.0,0.0,-2.4507,-2.4709,0.0,0.0,0.0,0.0,0.0,0.0,0.0,0.0,0.0,0.0,0.0,0.0,0.0,0.0,0.0,0.0,0.0,0.0,0.0,0.0,0.0,0.0,0.0,-2.9831,-3.237,0.0,0.0,-4.1377,-4.3472,-4.5232,-4.6478,-4.683,-4.4825,-4.2551,-3.9569,-3.4909,0.0,-2.9117,-2.6766,-2.602,-2.5995,-2.6573,-2.7822,-2.9059,-2.99,-3.1189,0.0,-3.5701,0.0,0.0,0.0,0.0,0.0,0.0,0.0,0.0,0.0,0.0,0.0,-3.8492,-3.9312,-3.907,-3.752,-3.8107,-3.8144,-3.7482,-3.7482,-3.7482,-3.7482,-3.7482,-3.7482,-3.7453,-3.6168,-3.5596,-3.5575,-3.4864,0.0,0.0,-3.4317,-3.3761,-3.3001,-3.1904,-3.1054,-3.0368,-3.0111,-2.9782,-2.9628,0.0,0.0,0.0,0.0,0.0,-2.7016,-2.9409,-3.0142,-3.1427,-3.4269,-3.321,-3.2247,-3.2345,-2.9521,-2.7046,-2.5615,-2.4754,0.0,0.0,0.0,0.0,0.0,0.0,0.0,0.0,0.0,-2.4694,-2.4903,-2.5585,-2.6096,0.0,0.0,0.0,0.0,0.0,0.0,0.0,0.0,0.0,0.0,0.0,0.0,0.0,0.0,0.0,0.0,0.0,0.0,0.0,0.0,0.0,0.0,0.0,0.0,0.0,0.0,-3.8123,-4.0876,-4.2671,-4.4381,-4.5302,-4.366,-4.1096,-3.7908,0.0,0.0,-2.8102,-2.5855,-2.5021,-2.4907,-2.5577,-2.6805,-2.7851,-2.8253,-2.9464,-3.1158,-3.3387,0.0,0.0,0.0,0.0,0.0,0.0,0.0,0.0,0.0,0.0,0.0,-3.6497,-3.7739,-3.7776,-3.6251,-3.6944,-3.6982,-3.6212,-3.6212,-3.6212,-3.6212,-3.6212,-3.6129,-3.5908,-3.4886,-3.4306,-3.4159,-3.3776,0.0,0.0,-3.3602,-3.2862,-3.172,-3.1227,-3.0295,-2.9247,-2.9408,-2.9224,-2.8962,0.0,0.0,0.0,0.0,0.0,0.0,-2.8773,-3.0262,-3.1481,-3.2226,-3.19,-3.1582,-3.151,-2.9194,-2.7585,-2.7555,-2.5159,0.0,0.0,0.0,0.0,0.0,0.0,0.0,0.0,0.0,-2.4933,-2.5585,-2.6243,-2.6572,-2.6596,-2.6596,-2.5884,0.0,0.0,0.0,0.0,0.0,0.0,0.0,0.0,0.0,0.0,0.0,0.0,0.0,0.0,0.0,0.0,0.0,0.0,0.0,0.0,0.0,0.0,0.0,-3.534,-3.8721,-4.0068,-4.1136,-4.1695,-4.1001,-3.8218,-3.4984,0.0,-2.9372,-2.68,-2.563,-2.4192,-2.3786,-2.6013,-2.6232,-2.6582,-2.8008,-2.924,0.0,-3.1681,0.0,0.0,0.0,0.0,0.0,0.0,0.0,0.0,0.0,0.0,0.0,-3.4827,-3.5654,-3.6251,-3.6212,-3.6212,-3.6212,-3.6212,-3.6212,-3.6212,-3.6212,-3.6212,-3.5908,-3.5366,-3.4692,-3.4122,0.0,0.0,0.0,0.0,-3.2593,-3.1875,-3.0853,-3.1392,-3.0862,-2.9871,-3.0382,-2.968,-2.863,0.0,0.0,0.0,0.0,0.0,0.0,0.0,-2.7659,-2.8144,-2.9526,-2.8722,-2.8403,-2.9415,-2.7972,-2.6926,-2.6926,-2.5704,0.0,0.0,0.0,0.0,0.0,0.0,0.0,0.0,0.0,-2.6512,-2.7649,-2.8727,-2.9265,-2.9235,-2.8368,-2.75,-2.6572,0.0,0.0,0.0,0.0,0.0,0.0,0.0,0.0,0.0,0.0,0.0,0.0,0.0,0.0,0.0,0.0,0.0,0.0,0.0,0.0,0.0,-2.7144,-3.0742,0.0,-3.5238,-3.6633,-3.749,-3.5975,-3.4107,-3.195,-2.9269,-2.7171,-2.5418,-2.4083,-2.3454,-2.3296,-2.4016,-2.4899,-2.5887,-2.7117,-2.8438,0.0,0.0,0.0,0.0,0.0,0.0,0.0,0.0,0.0,0.0,0.0,0.0,0.0,-3.3666,-3.3911,-3.4095,-3.4095,-3.4774,-3.4815,-3.4095,-3.4095,-3.4095,-3.4095,-3.4095,-3.3809,-3.3172,-3.2602,-3.2071,0.0,0.0,0.0,0.0,-3.1646,-3.0949,-2.9888,-2.9823,-2.9067,-2.8118,-2.8265,-2.8064,-2.7754,0.0,0.0,0.0,0.0,0.0,0.0,0.0,-2.6246,-2.649,-2.7524,-2.6724,-2.6612,-2.8047,-2.676,-2.6125,-2.6901,-2.5658,0.0,0.0,0.0,0.0,0.0,0.0,0.0,0.0,-2.5674,-2.7111,-2.8966,-3.0253,-3.0881,-3.0881,-3.0342,-2.9175,-2.7555,-2.6273,0.0,0.0,0.0,0.0,0.0,0.0,0.0,-2.2752,0.0,0.0,0.0,0.0,0.0,0.0,0.0,0.0,0.0,0.0,0.0,0.0,0.0,-2.6091,-2.9127,0.0,-3.2646,-3.3284,-3.193,-3.0515,0.0,-2.6763,-2.547,-2.4425,-2.3341,-2.3095,-2.3095,-2.3095,-2.4008,-2.4992,-2.5688,-2.6865,-2.8118,0.0,0.0,0.0,0.0,0.0,0.0,0.0,0.0,0.0,0.0,0.0,0.0,-3.3136,-3.3111,-3.3111,-3.3111,-3.3768,-3.3784,-3.3111,-3.3111,-3.3111,-3.3111,-3.2842,-3.2441,-3.1888,-3.1336,-3.0809,0.0,0.0,0.0,0.0,-3.0658,-3.0114,-2.9238,-2.8999,-2.8499,-2.7871,-2.767,-2.7595,-2.7626,0.0,0.0,0.0,0.0,0.0,0.0,0.0,-2.5675,-2.6122,-2.605,-2.5654,-2.5815,-2.7017,-2.5586,-2.5255,-2.717,0.0,0.0,0.0,0.0,0.0,0.0,0.0,0.0,0.0,-2.5305,-2.7001,-2.9741,-3.1062,-3.172,-3.172,-3.2348,-3.0911,-2.7794,-2.7705,-2.6512,-2.4605,-2.4605,-2.4216,-2.367,-2.4261,-2.3782,0.0,0.0,0.0,0.0,0.0,0.0,0.0,0.0,0.0,0.0,0.0,0.0,0.0,0.0,0.0,0.0,0.0,-2.898,-2.9122,0.0,0.0,0.0,-2.4833,-2.418,0.0,-2.3145,-2.3045,-2.307,-2.3145,-2.3602,-2.3979,-2.4155,-2.5008,0.0,0.0,0.0,0.0,0.0,0.0,0.0,0.0,0.0,0.0,0.0,0.0,0.0,-3.3111,-3.3111,-3.3111,-3.3111,-3.3086,-3.3086,-3.3111,-3.3111,-3.3068,-3.3061,-3.2466,-3.1913,-3.1311,-3.0834,-3.0306,0.0,0.0,0.0,0.0,-2.9804,-2.9428,-2.8838,-2.8888,-2.8838,-2.8712,-2.8247,-2.8047,-2.7971,0.0,0.0,0.0,0.0,0.0,0.0,0.0,0.0,0.0,0.0,-2.384,-2.4004,-2.3827,-2.4221,-2.4512,0.0,0.0,0.0,0.0,0.0,0.0,0.0,0.0,0.0,0.0,-2.5787,-2.7895,-3.1032,-3.2886,-3.3784,-3.3784,-3.3964,-3.2497,-2.9774,-2.8786,-2.6961,-2.4605,-2.4605,-2.4216,-2.3626,-2.3825,-2.3125,0.0,0.0,0.0,0.0,-2.0424,-2.0732,0.0,0.0,0.0,0.0,0.0,0.0,0.0,0.0,-2.127,-2.211,-2.3051,0.0,-2.4504,-2.3999,-2.3259,-2.2598,0.0,-2.2171,-2.2171,-2.2447,-2.2468,-2.2744,-2.3627,-2.3552,-2.3904,-2.5644,-2.6122,-2.6826,0.0,0.0,0.0,0.0,0.0,0.0,0.0,0.0,0.0,0.0,0.0,-3.3111,-3.3111,-3.3111,-3.3111,-3.3111,-3.2641,-3.2616,-3.3111,-3.3111,-3.2842,-3.2416,-3.229,-3.1712,-3.0783,-3.0658,-3.0306,0.0,0.0,0.0,-2.9804,-2.9804,-2.9202,-2.8348,-2.8737,-2.8423,-2.7645,-2.7519,-2.7469,-2.7394,0.0,0.0,0.0,0.0,0.0,0.0,0.0,0.0,0.0,0.0,0.0,0.0,0.0,0.0,0.0,0.0,0.0,0.0,0.0,0.0,0.0,0.0,0.0,0.0,-2.417,-2.5466,-2.7746,-3.0984,-3.3033,-3.4352,-3.4951,-3.4653,-3.3063,-3.0336,-2.7836,-2.61,-2.5023,-2.4724,-2.4395,-2.4022,-2.3781,0.0,0.0,0.0,0.0,0.0,-1.9811,-2.0189,0.0,-2.0691,-2.0691,-2.0691,0.0,0.0,0.0,0.0,-2.0691,-2.1144,-2.1144,-2.2096,-2.297,-2.2418,-2.2272,-2.2171,-2.192,-2.1669,-2.1568,-2.187,0.0,0.0,-2.3125,-2.3145,-2.3492,-2.4728,-2.5583,0.0,0.0,0.0,0.0,0.0,0.0,0.0,0.0,0.0,0.0,0.0,0.0,-3.3111,-3.3111,-3.3111,-3.3111,-3.3111,-3.2516,-3.2365,-3.2667,-3.2441,-3.2139,-3.1838,-3.1587,-3.1185,-3.0608,-3.008,-2.9679,0.0,0.0,0.0,-2.9364,-2.8917,-2.8502,-2.8044,-2.7368,-2.689,-2.6593,-2.6554,-2.6564,-2.6574,0.0,0.0,0.0,0.0,0.0,0.0,0.0,0.0,0.0,0.0,0.0,0.0,0.0,0.0,0.0,0.0,0.0,0.0,0.0,0.0,0.0,0.0,0.0,-2.2237,-2.3681,-2.505,-2.7273,-3.0389,-3.2701,-3.4382,-3.5489,-3.4971,-3.3103,-3.0005,-2.6195,-2.4853,-2.539,-2.4736,-2.4409,-2.4275,-2.3757,0.0,0.0,0.0,0.0,0.0,0.0,0.0,0.0,-2.038,-2.0486,-2.0566,-2.0566,0.0,0.0,0.0,0.0,0.0,-2.0666,-2.1806,-2.2864,-2.2314,-2.248,-2.264,-2.2093,0.0,0.0,0.0,0.0,0.0,0.0,-2.276,0.0,0.0,0.0,0.0,0.0,0.0,0.0,0.0,0.0,0.0,0.0,0.0,0.0,0.0,0.0,-3.3111,-3.3111,-3.2993,-3.2993,-3.3111,-3.2365,-3.193,-3.1813,-3.153,-3.1361,-3.126,-3.0834,-3.0583,-3.0457,-2.9503,-2.8988,-2.8888,0.0,0.0,-2.8474,-2.769,-2.7418,-2.7356,-2.5597,-2.5133,-2.5453,-2.5335,-2.5342,-2.5527,0.0,0.0,0.0,0.0,0.0,0.0,0.0,0.0,0.0,0.0,0.0,0.0,0.0,0.0,0.0,0.0,0.0,0.0,0.0,0.0,0.0,0.0,-2.1114,-2.1897,-2.4131,-2.5632,-2.7654,-3.0329,-3.3587,-3.531,-3.5487,-3.5703,-3.3441,-2.9084,-2.5855,-2.4498,-2.4635,-2.407,-2.349,-2.2987,-2.2893,0.0,0.0,0.0,0.0,0.0,0.0,0.0,0.0,-1.8994,-1.9415,-1.9936,-1.9936,0.0,0.0,0.0,0.0,0.0,-2.0566,-2.1531,-2.2288,-2.177,-2.1476,-2.1164,-2.0638,-1.9895,0.0,0.0,0.0,0.0,0.0,-2.2829,-2.2946,0.0,0.0,0.0,0.0,0.0,0.0,0.0,0.0,0.0,0.0,0.0,0.0,0.0,0.0,-3.3111,-3.3111,-3.2616,-3.2566,-3.3068,-3.1637,-3.0654,-3.0176,-3.1001,-3.116,-3.0733,-3.0658,-3.0357,-2.9905,-2.9729,-2.9402,-2.8888,0.0,-2.8175,-2.6959,-2.6808,-2.6004,-2.4846,-2.4536,-2.4191,-2.3839,-2.383,-2.3858,-2.3872,0.0,0.0,0.0,0.0,0.0,0.0,0.0,0.0,0.0,0.0,0.0,0.0,0.0,0.0,0.0,0.0,0.0,0.0,0.0,0.0,0.0,-2.3226,-2.2472,-2.2521,-2.3636,-2.5362,-2.7448,-2.9871,-3.258,-3.4243,-3.4845,-3.301,-3.0682,-2.7895,-2.5073,-2.3876,-2.3966,-2.3371,-2.2945,-2.2644,0.0,0.0,0.0,0.0,0.0,0.0,0.0,0.0,0.0,0.0,-1.8608,-1.9137,-1.8741,0.0,0.0,0.0,0.0,0.0,-1.8943,-1.9995,-2.0911,-2.061,-2.1151,-2.1577,-2.0641,-1.9817,0.0,0.0,0.0,0.0,0.0,0.0,0.0,0.0,0.0,0.0,0.0,0.0,0.0,0.0,0.0,0.0,0.0,0.0,0.0,0.0,0.0,0.0,-3.219,-3.1346,-3.1027,-3.1339,-2.969,-2.868,-2.8453,-2.8633,-2.8906,-2.9251,-2.9251,-2.9022,-2.8548,-2.7612,-2.6913,-2.6391,0.0,-2.6024,-2.5301,-2.4808,-2.4293,-2.3772,-2.2952,-2.247,-2.2279,-2.2574,-2.3025,-2.3526,0.0,0.0,0.0,0.0,0.0,0.0,0.0,0.0,0.0,0.0,0.0,0.0,0.0,0.0,0.0,0.0,0.0,0.0,0.0,0.0,-2.2422,-2.4499,-2.3772,-2.3547,-2.4048,-2.5673,-2.7505,-2.9663,-3.1567,-3.2909,-3.3584,-3.0392,-2.8163,-2.6715,-2.43,-2.328,-2.3277,-2.2649,-2.2319,-2.218,0.0,0.0,0.0,0.0,0.0,0.0,0.0,0.0,0.0,0.0,0.0,0.0,0.0,0.0,0.0,-1.777,-1.7605,-1.7628,-1.7767,-1.874,-1.9651,-1.9377,-2.0632,-2.1752,-2.0907,-2.0107,-1.9663,0.0,0.0,0.0,0.0,-2.2205,0.0,0.0,0.0,0.0,0.0,0.0,0.0,0.0,0.0,0.0,0.0,0.0,0.0,0.0,0.0,0.0,-3.0646,-2.9726,-2.9263,-2.9423,-2.7908,-2.7046,-2.6903,-2.6512,-2.6798,-2.7723,-2.7723,-2.7505,-2.7066,-2.5773,-2.4864,-2.428,-2.428,-2.41,-2.3709,-2.2986,-2.2754,-2.2709,-2.1511,-2.1074,-2.1115,-2.1497,-2.2151,-2.2824,0.0,0.0,0.0,0.0,0.0,0.0,0.0,0.0,0.0,0.0,0.0,0.0,0.0,0.0,0.0,0.0,0.0,0.0,0.0,0.0,-2.2272,-2.3979,-2.3979,-2.4883,-2.6942,-2.74,-2.8407,-3.0161,-3.1792,-3.2218,-3.1468,-2.9704,-2.7747,-2.5658,-2.3896,-2.2882,-2.2458,-2.1904,-2.1375,-2.0923,-2.0847,0.0,0.0,0.0,0.0,0.0,0.0,0.0,0.0,0.0,0.0,0.0,0.0,0.0,-1.766,-1.7633,-1.7605,-1.7717,-1.8272,-1.8794,-1.9004,-1.8321,-1.9199,-2.0413,-2.103,-2.0179,0.0,-2.1395,0.0,0.0,0.0,0.0,0.0,0.0,0.0,0.0,0.0,0.0,0.0,0.0,0.0,0.0,0.0,0.0,0.0,0.0,0.0,0.0,-2.833,-2.7813,-2.7725,-2.82,-2.7147,-2.627,-2.572,-2.5807,-2.6094,-2.6648,-2.6648,-2.6377,-2.5921,-2.5819,-2.52,-2.428,-2.428,-2.3508,-2.2155,-2.208,-2.1589,-2.08,-2.0703,-2.0644,-2.0644,-2.0683,-2.076,-2.0838,0.0,0.0,0.0,0.0,0.0,0.0,0.0,0.0,0.0,0.0,0.0,0.0,0.0,0.0,0.0,0.0,0.0,0.0,0.0,0.0,-2.2246,-2.3929,-2.4004,-2.4858,-2.6776,-2.724,-2.8247,-2.996,-3.0554,-3.0514,-2.9753,-2.7773,-2.6212,-2.5059,-2.3697,-2.2816,-2.2314,-2.178,-2.1244,-2.0732,-2.0322,-2.0042,0.0,0.0,0.0,0.0,0.0,0.0,0.0,0.0,-1.6312,-1.6849,-1.6397,-1.6546,-1.6849,-1.6368,-1.6234,-1.6275,-1.6519,-1.7063,-1.7608,-1.7612,-1.8207,0.0,0.0,-1.9868,-2.029,-2.0951,-2.1135,0.0,0.0,0.0,0.0,0.0,0.0,0.0,0.0,0.0,0.0,0.0,0.0,0.0,0.0,0.0,0.0,0.0,0.0,0.0,-2.6697,-2.5571,-2.5287,-2.6001,-2.4493,-2.3658,-2.3682,-2.3453,-2.3433,-2.366,-2.4315,-2.4421,-2.3967,-2.3276,-2.2604,-2.2004,-2.2004,-2.1691,-2.1106,-2.1106,-2.0934,-2.0605,-2.0605,-2.0605,-2.0605,-2.0605,-2.0605,-2.0605,0.0,0.0,0.0,0.0,0.0,0.0,0.0,0.0,0.0,0.0,0.0,0.0,0.0,0.0,0.0,0.0,0.0,0.0,-2.0666,-2.1043,-2.1895,-2.3401,-2.3477,-2.4255,-2.5946,-2.6314,-2.7419,-2.9252,-2.9252,-2.8875,-2.8122,-2.6389,-2.541,-2.5008,-2.3672,-2.2995,-2.2774,-2.1694,-2.1043,-2.0641,-2.0037,-1.9657,0.0,0.0,0.0,0.0,0.0,0.0,0.0,0.0,-1.5729,-1.6054,-1.5555,-1.5758,-1.6054,-1.5555,-1.541,-1.541,-1.541,-1.6024,-1.6746,-1.6934,0.0,0.0,-1.887,-1.9824,-2.0801,-2.1486,-2.1855,0.0,0.0,0.0,0.0,0.0,0.0,0.0,0.0,0.0,0.0,0.0,0.0,0.0,0.0,0.0,0.0,0.0,0.0,0.0,0.0,-2.3571,-2.3289,-2.3865,-2.2585,-2.2031,-2.2305,-2.1894,-2.168,-2.168,-2.2291,-2.2525,-2.2342,-2.1571,-2.0996,-2.0605,-2.0605,-2.0605,-2.0605,-2.0605,-2.0605,-2.0605,-2.0605,-2.0605,-2.0605,-2.0605,-2.0605,-2.0605,0.0,0.0,0.0,0.0,0.0,0.0,0.0,0.0,0.0,0.0,0.0,0.0,0.0,0.0,0.0,0.0,0.0,0.0,-2.0641,-2.0691,-2.1169,-2.2246,-2.2297,-2.31,-2.4725,-2.4775,-2.5887,-2.8097,-2.8097,-2.7519,-2.6474,-2.5862,-2.5586,-2.5511,-2.3847,-2.3421,-2.3828,-2.1619,-2.0691,-2.0641,-2.0037,-1.9371,-1.8688,0.0,0.0,0.0,0.0,0.0,0.0,0.0,-1.541,-1.541,-1.541,-1.541,-1.541,-1.541,-1.541,-1.541,-1.541,-1.6024,-1.659,-1.6222,0.0,0.0,-1.9727,-2.0254,-2.1212,-2.334,-2.3105,-2.2246,-2.1366,0.0,0.0,0.0,0.0,0.0,0.0,0.0,0.0,0.0,0.0,0.0,0.0,0.0,0.0,0.0,0.0,0.0,0.0,-2.1875,-2.1875,-2.1894,-2.1875,-2.1855,-2.1875,-2.1445,-2.1171,-2.1171,-2.0762,-2.0801,-2.119,-2.119,-2.0977,-2.0605,-2.0605,-2.0605,-2.0605,-2.0605,-2.0605,-2.0605,-2.0605,-2.0605,-2.0605,-2.0605,-2.0605,-2.0605,0.0,0.0,0.0,0.0,0.0,0.0,0.0,0.0,0.0,0.0,0.0,0.0,0.0,0.0,0.0,0.0,0.0,0.0,-2.0063,-2.0465,-2.0842,-2.1169,-2.1895,-2.2518,-2.302,-2.3396,-2.4732,-2.6977,-2.6977,-2.66,-2.5837,-2.531,-2.4858,-2.4424,-2.3308,-2.2522,-2.1977,-2.0846,-2.0165,-1.994,-1.9829,-1.9371,-1.8688,0.0,0.0,0.0,0.0,0.0,0.0,0.0,0.0,0.0,-1.541,-1.5625,-1.5831,-1.5508,-1.5625,-1.5831,-1.5488,-1.582,0.0,-1.6907,0.0,0.0,0.0,-2.0898,0.0,0.0,-2.2656,-2.209,-2.2129,0.0,0.0,0.0,0.0,0.0,0.0,0.0,0.0,0.0,0.0,0.0,0.0,0.0,0.0,0.0,0.0,0.0,0.0,-2.084,-2.0918,-2.1855,-2.0703,-2.039,-2.0997,-2.0234,-1.9863,-1.9863,-2.0019,-2.0332,-2.0762,-2.0762,-2.0684,-2.0605,-2.0605,-2.0605,-2.0605,-2.0605,-2.0605,-2.0605,-2.0605,-2.0605,-2.0605,-2.0605,-2.0605,-2.0605,0.0,0.0,0.0,0.0,0.0,0.0,0.0,0.0,0.0,0.0,0.0,0.0,0.0,0.0,0.0,0.0,0.0,0.0,0.0,0.0,-2.044,-2.0691,-2.132,-2.187,-2.2297,-2.3045,-2.3929,-2.484,-2.4938,-2.4863,-2.46,-2.4855,-2.4863,-2.46,-2.349,-2.2711,-2.208,-2.0223,-1.9442,-1.9389,-1.9265,-1.8752,-1.8091,0.0,0.0,0.0,0.0,0.0,0.0,0.0,0.0,0.0,-1.541,-1.5586,-1.5791,-1.5488,-1.5586,-1.5742,-1.5488,-1.5859,0.0,-1.7207,-1.8144,-1.9221,-2.0644,0.0,0.0,0.0,0.0,-2.2363,-2.2285,0.0,0.0,0.0,0.0,0.0,0.0,0.0,0.0,0.0,0.0,0.0,0.0,0.0,0.0,0.0,0.0,0.0,0.0,-1.9961,-2.0019,-2.082,-1.9844,-1.9531,-2.0096,-1.9551,-1.9297,-1.9297,-1.9551,-1.9805,-2.0116,-2.0449,-2.0605,-2.0605,-2.0605,-2.0605,-2.0605,-2.0605,-2.0605,-2.0605,-2.0605,-2.0605,-2.0605,-2.0605,-2.0605,-2.0605,0.0,0.0,0.0,0.0,0.0,0.0,0.0,0.0,0.0,0.0,0.0,0.0,0.0,0.0,0.0,0.0,0.0,0.0,0.0,0.0,-2.0062,-2.0666,-2.0792,-2.132,-2.2297,-2.3276,-2.3251,-2.2171,-2.2522,-2.2819,-2.304,-2.4405,-2.5129,-2.5203,-2.3932,-2.328,-2.2971,-1.9606,-1.8473,-1.8814,-1.8398,-1.781,-1.716,-1.716,0.0,0.0,0.0,0.0,0.0,0.0,0.0,0.0,-1.5381,-1.5371,-1.5362,-1.54,-1.5449,-1.5469,-1.5469,-1.6002,-1.6677,-1.7232,-1.8337,0.0,-2.0372,-2.2165,-2.3496,-2.3003,0.0,-2.2856,0.0,0.0,0.0,0.0,0.0,0.0,0.0,0.0,0.0,0.0,0.0,0.0,0.0,0.0,0.0,0.0,0.0,0.0,0.0,-1.9258,-1.9238,-1.9297,-1.9219,-1.918,-1.9238,-1.918,-1.918,-1.918,-1.9219,-1.9182,-1.9149,-2.0078,-2.0449,-2.0372,-2.0372,-2.0275,-2.0198,-2.0333,-2.0372,-2.0372,-2.0449,-2.0488,-2.0488,-2.0527,-2.0546,-2.0546,0.0,0.0,0.0,0.0,0.0,0.0,0.0,0.0,0.0,0.0,0.0,0.0,0.0,0.0,0.0,0.0,0.0,0.0,0.0,0.0,-2.0062,-2.0666,-2.1493,-2.2071,-2.2297,-2.2121,-2.1694,-2.1043,-2.2158,-2.2625,-2.2493,-2.345,-2.3445,-2.2686,-2.2208,-2.0976,-1.9138,-1.7969,-1.7289,-1.712,-1.7556,-1.7309,-1.6649,-1.6649,-1.6128,0.0,0.0,0.0,0.0,0.0,0.0,0.0,-1.5206,-1.521,-1.5055,-1.5332,-1.5644,-1.5948,-1.5948,-1.5701,0.0,0.0,-1.8319,-1.9644,-2.0182,-2.1332,-2.2168,-2.1697,-2.1914,0.0,0.0,0.0,0.0,0.0,0.0,0.0,0.0,0.0,0.0,0.0,0.0,0.0,0.0,0.0,0.0,0.0,0.0,0.0,-1.9297,-1.8965,-1.8926,-1.9277,-1.8633,-1.8437,-1.8734,-1.8457,-1.8281,0.0,-1.8578,-1.8378,-1.7696,-1.8987,-1.918,-1.8489,-1.8489,-1.8019,-1.7339,-1.817,-1.8489,-1.8527,-1.9292,-1.9607,-1.9646,-1.9922,-2.0059,-2.0098,0.0,0.0,0.0,0.0,0.0,0.0,0.0,0.0,0.0,0.0,0.0,0.0,0.0,0.0,0.0,0.0,0.0,0.0,0.0,0.0,0.0,-2.0155,-2.0624,-2.1005,-2.1378,-2.1137,-2.072,-2.018,-2.1086,-2.144,-2.1316,-2.2374,-2.2435,-2.1652,-2.1195,-1.9998,-1.8321,-1.7164,-1.6516,-1.6322,-1.673,-1.6672,-1.6293,-1.6293,-1.5938,-1.541,-1.541,0.0,0.0,0.0,0.0,0.0,0.0,0.0,-1.5177,-1.5352,-1.5566,-1.5683,-1.5294,0.0,0.0,-1.6378,0.0,-1.8959,-1.9511,-2.0227,-2.074,-2.0605,-2.1113,0.0,0.0,0.0,0.0,0.0,0.0,0.0,0.0,0.0,0.0,0.0,0.0,0.0,0.0,0.0,0.0,0.0,0.0,-1.8887,-1.8691,-1.8018,-1.7734,-1.7996,-1.7127,-1.6754,-1.6953,-1.6754,-1.6589,-1.6408,-1.6807,-1.6706,-1.626,-1.7423,-1.7637,-1.7188,-1.7188,-1.687,-1.6455,-1.6963,-1.7188,-1.7243,-1.789,-1.815,-1.8205,-1.8527,-1.8671,-1.8707,0.0,0.0,0.0,0.0,0.0,0.0,0.0,0.0,0.0,0.0,0.0,0.0,0.0,0.0,0.0,0.0,0.0,0.0,0.0,0.0,0.0,-1.9388,-1.9333,-1.9608,-2.0192,-2.0126,-1.9838,-1.9412,-1.9866,-2.0053,-2.0062,-2.1333,-2.1565,-2.0897,-2.0278,-1.9401,-1.8218,-1.6667,-1.5987,-1.5987,-1.5987,-1.5987,-1.5987,-1.5987,-1.5663,-1.5206,-1.5206,-1.5118,-1.4864,-1.4213,0.0,0.0,0.0,0.0,-1.4805,-1.4923,-1.5001,-1.4854,-1.4255,0.0,-1.512,-1.5562,-1.6613,0.0,-1.829,-1.9008,-1.9509,-1.9602,0.0,0.0,0.0,0.0,0.0,0.0,0.0,0.0,0.0,0.0,0.0,0.0,0.0,0.0,0.0,0.0,0.0,0.0,0.0,-1.7938,-1.7591,-1.6741,-1.6277,-1.6277,-1.5529,-1.5107,-1.5107,-1.5076,-1.4894,-1.4629,-1.4772,-1.483,-1.4877,-1.5389,-1.5756,-1.5917,-1.5917,-1.5842,-1.5691,-1.588,-1.5917,-1.5988,-1.6453,-1.6608,-1.6658,-1.6921,-1.7053,-1.707,0.0,0.0,0.0,0.0,0.0,0.0,0.0,0.0,0.0,0.0,0.0,0.0,0.0,0.0,0.0,0.0,0.0,0.0,-1.8715,0.0,0.0,-1.8652,-1.907,-1.9342,-1.9461,-1.8999,-1.872,-1.8652,-1.9343,-1.9549,-1.9263,-2.0335,-2.017,-1.8977,-1.8988,-1.804,-1.6435,-1.5762,-1.5508,-1.5508,-1.5508,-1.5508,-1.5508,-1.5508,-1.5009,-1.4362,-1.4362,-1.3914,-1.3312,-1.3191,-1.2779,0.0,0.0,0.0,-1.2412,-1.3114,-1.3312,-1.338,-1.359,0.0,-1.3855,0.0,-1.4656,-1.5736,0.0,0.0,-1.8982,0.0,0.0,0.0,0.0,0.0,0.0,0.0,0.0,0.0,0.0,0.0,0.0,0.0,0.0,0.0,0.0,0.0,0.0,0.0,-1.6548,-1.5896,-1.584,-1.5254,-1.4967,-1.4967,-1.483,-1.4761,-1.4761,-1.4547,-1.4396,-1.4346,-1.3579,-1.3325,-1.3544,-1.2806,-1.3064,-1.4055,-1.4055,-1.3616,-1.2917,-1.3726,-1.4055,-1.4164,-1.5065,-1.5405,-1.5455,-1.5856,-1.5989,-1.6072,0.0,0.0,0.0,0.0,0.0,0.0,0.0,0.0,0.0,0.0,0.0,0.0,0.0,0.0,0.0,-1.8581,-1.8286,-1.7907,-1.7495,-1.7041,-1.6948,-1.7348,-1.7196,-1.7323,-1.773,-1.7485,-1.7398,-1.7398,-1.8137,-1.8666,-1.9123,-1.9552,-1.9603,-1.9294,-1.865,-1.7788,-1.677,-1.5801,-1.541,-1.541,-1.541,-1.5147,-1.4717,-1.4717,-1.4243,-1.3524,-1.3524,-1.3312,-1.2917,-1.2489,-1.2381,-1.2458,-1.2366,0.0,0.0,0.0,-1.3009,-1.2969,-1.287,-1.2606,-1.2444,0.0,-1.3292,-1.4248,-1.5646,0.0,-1.7012,0.0,0.0,0.0,0.0,0.0,0.0,0.0,0.0,0.0,0.0,0.0,0.0,0.0,0.0,0.0,0.0,0.0,0.0,0.0,-1.5396,-1.503,-1.5482,-1.433,-1.3689,-1.3689,-1.3146,-1.2873,-1.2873,-1.2724,-1.2684,-1.265,-1.2088,-1.1972,-1.2248,-1.1995,-1.2276,-1.2915,-1.2915,-1.2659,-1.2342,-1.2732,-1.2915,-1.2966,-1.3616,-1.3874,-1.3933,-1.4397,-1.455,-1.4663,0.0,0.0,0.0,0.0,0.0,0.0,0.0,0.0,0.0,0.0,0.0,0.0,0.0,0.0,0.0,0.0,-1.744,-1.6996,-1.6255,-1.57,-1.5642,-1.6197,-1.57,-1.5671,-1.6197,-1.6197,-1.6197,-1.6197,-1.694,-1.7884,-1.8974,-1.9176,-1.9631,-2.0157,-1.8906,-1.7852,-1.7024,-1.6113,-1.5684,-1.5537,-1.5215,-1.4746,-1.4183,-1.3974,-1.3403,-1.2704,-1.2704,-1.2551,-1.2305,-1.1686,-1.1903,-1.2305,-1.1686,-1.1903,0.0,0.0,0.0,0.0,0.0,0.0,-1.1402,-1.1957,-1.2342,-1.3126,0.0,0.0,0.0,0.0,0.0,0.0,0.0,0.0,0.0,0.0,0.0,0.0,0.0,0.0,0.0,0.0,0.0,0.0,0.0,0.0,0.0,0.0,-1.4224,-1.393,-1.4539,-1.3214,-1.2428,-1.2428,-1.1688,-1.1282,-1.1282,-1.1236,-1.1209,-1.1196,-1.0982,-1.1035,-1.1329,-1.1543,-1.185,-1.2198,-1.2265,-1.2305,-1.2305,-1.2305,-1.2305,-1.2318,-1.2583,-1.2717,-1.2837,-1.316,-1.336,-1.352,0.0,0.0,0.0,0.0,0.0,0.0,0.0,0.0,0.0,0.0,0.0,0.0,-1.7605,-1.7605,-1.7605,-1.7605,-1.694,-1.6226,-1.5497,-1.541,-1.541,-1.5468,-1.541,0.0,-1.5468,-1.5468,-1.5468,-1.5468,-1.6197,-1.7257,-1.8629,-1.941,-2.026,-2.1073,-1.9805,-1.81,-1.6183,-1.6504,-1.6426,-1.5966,-1.4766,-1.4243,-1.4124,-1.3342,-1.2565,-1.1857,-1.1857,-1.1375,-1.0713,-1.0681,-1.0681,-1.0713,-1.0681,-1.0681,-1.0713,0.0,0.0,0.0,0.0,-1.086,0.0,-1.1396,-1.169,0.0,0.0,0.0,0.0,0.0,0.0,0.0,0.0,0.0,0.0,0.0,0.0,0.0,0.0,0.0,0.0,0.0,0.0,0.0,0.0,0.0,0.0,0.0,-1.2774,-1.1949,-1.2011,-1.1432,-1.1108,-1.1108,-1.1042,-1.1009,-1.1009,-1.0774,-1.064,-1.064,-1.0626,-1.076,-1.1009,-1.1035,-1.139,-1.194,-1.2184,-1.2305,-1.2305,-1.2305,-1.2305,-1.2305,-1.2318,-1.2529,-1.2757,-1.2465,-1.2732,-1.324,0.0,0.0,0.0,0.0,0.0,0.0,0.0,0.0,0.0,0.0,0.0,0.0,0.0,-1.6197,-1.6197,-1.6197,-1.594,-1.57,-1.541,-1.541,-1.541,-1.541,-1.541,-1.541,-1.541,-1.541,-1.541,-1.541,-1.5671,-1.6475,-1.7832,-1.8114,-1.8438,-1.8769,-1.8812,-1.8403,-1.7637,-1.6406,0.0,0.0,0.0,-1.4362,-1.3403,-1.31,0.0,0.0,0.0,0.0,0.0,0.0,0.0,0.0,0.0,0.0,0.0,0.0,0.0,0.0,0.0,0.0,0.0,-1.1076,-1.1611,-1.2467,0.0,0.0,0.0,0.0,0.0,0.0,0.0,0.0,0.0,0.0,0.0,0.0,0.0,0.0,0.0,0.0,0.0,0.0,0.0,0.0,0.0,0.0,0.0,-1.1264,-1.1764,-1.1111,-1.0747,-1.0747,-1.0747,-1.0747,-1.0747,-1.064,-1.0586,-1.0586,-1.0586,-1.064,-1.076,-1.0902,-1.1209,-1.1597,-1.1891,-1.2131,-1.2305,-1.2305,-1.2305,-1.2305,-1.2305,-1.2478,-1.2797,-1.2852,-1.3107,-1.348,0.0,0.0,0.0,0.0,0.0,0.0,0.0,0.0,0.0,0.0,0.0,0.0,0.0,0.0,-1.541,-1.541,-1.541,-1.541,-1.541,-1.541,-1.541,-1.541,-1.541,-1.541,-1.541,-1.541,-1.541,-1.541,-1.541,-1.6016,-1.7168,-1.7168,-1.7324,-1.7598,-1.7837,-1.7876,0.0,0.0,0.0,-1.6035,0.0,0.0,-1.3083,0.0,0.0,0.0,0.0,0.0,0.0,0.0,0.0,0.0,0.0,0.0,0.0,0.0,0.0,0.0,-1.0586,0.0,0.0,0.0,0.0,-1.2377,-1.3477,0.0,0.0,0.0,0.0,0.0,0.0,0.0,0.0,0.0,0.0,0.0,0.0,0.0,0.0,0.0,0.0,0.0,0.0,0.0,0.0,0.0,0.0,0.0,-1.1375,-1.0888,-1.0586,-1.0586,-1.0586,-1.0586,-1.0586,-1.0586,-1.0586,-1.0586,-1.0586,-1.0586,-1.06,-1.0787,-1.1062,-1.1402,-1.1637,-1.1944,-1.2305,-1.2305,-1.2305,-1.2305,-1.2305,-1.2545,-1.2958,-1.3013,-1.3373,-1.376,0.0,0.0,0.0,0.0,0.0,0.0,0.0,0.0,0.0,-1.6454,0.0,0.0,0.0,0.0,0.0,-1.543,-1.543,-1.543,-1.541,-1.541,-1.541,-1.541,-1.541,-1.541,-1.541,-1.541,-1.541,-1.541,-1.541,-1.5829,-1.6668,-1.6636,-1.7064,-1.7857,-1.6973,-1.6403,-1.6133,0.0,-1.7207,-1.5922,0.0,-1.3505,-1.322,0.0,0.0,0.0,-1.1362,-1.1223,0.0,-1.068,0.0,0.0,0.0,0.0,0.0,0.0,0.0,0.0,0.0,0.0,0.0,0.0,0.0,0.0,-1.2826,0.0,0.0,0.0,0.0,0.0,0.0,0.0,0.0,0.0,0.0,0.0,0.0,0.0,0.0,0.0,0.0,0.0,0.0,0.0,0.0,0.0,-1.076,-1.0586,-1.0586,-1.0586,-1.0586,-1.0586,-1.0586,-1.0586,-1.0586,-1.0586,-1.0586,-1.0586,-1.0586,-1.0586,-1.0586,-1.0586,-1.0875,-1.1375,-1.1375,-1.1744,-1.2291,-1.2305,-1.2305,-1.2318,-1.2318,-1.2692,-1.3186,-1.2918,-1.3373,-1.4041,0.0,0.0,0.0,0.0,0.0,0.0,-1.5997,-1.5825,-1.57,0.0,0.0,0.0,-1.5449,-1.5703,-1.5909,-1.5909,-1.5909,-1.5742,-1.543,-1.541,-1.541,-1.541,-1.541,-1.541,-1.541,-1.541,-1.541,-1.541,-1.541,-1.5498,-1.5751,-1.5162,-1.5032,-1.5222,-1.4715,-1.4551,-1.4784,-1.5734,0.0,-1.546,-1.4697,-1.3663,0.0,0.0,0.0,0.0,0.0,-1.0774,-1.0707,0.0,-1.0586,-1.0586,0.0,0.0,0.0,0.0,0.0,0.0,-1.0586,0.0,0.0,0.0,0.0,0.0,0.0,0.0,0.0,0.0,0.0,0.0,0.0,0.0,0.0,0.0,0.0,0.0,0.0,0.0,0.0,0.0,0.0,0.0,0.0,0.0,0.0,0.0,-1.1099,-1.0586,-1.0586,-1.0586,-1.0586,-1.0586,-1.0586,-1.0586,-1.0586,-1.0586,-1.0586,-1.0586,-1.0586,-1.0586,-1.0586,-1.0586,-1.0801,-1.1116,-1.1116,-1.145,-1.2047,-1.2211,-1.2425,-1.2663,-1.2663,-1.2986,-1.3467,-1.3427,-1.3694,-1.4082,0.0,0.0,0.0,0.0,0.0,-1.6172,-1.5966,-1.5927,-1.5927,0.0,0.0,0.0,-1.5946,-1.6348,-1.6574,-1.6367,-1.6202,-1.5987,-1.5703,-1.5184,-1.5059,-1.5381,-1.4746,-1.4569,-1.4894,-1.4569,-1.4392,-1.4392,-1.4392,-1.4392,-1.4392,-1.3914,-1.3704,-1.3674,0.0,0.0,0.0,0.0,0.0,0.0,-1.446,0.0,0.0,-1.2138,-1.1708,0.0,0.0,0.0,-1.1082,-1.072,-1.0586,0.0,0.0,0.0,0.0,0.0,0.0,0.0,0.0,0.0,0.0,0.0,0.0,0.0,-1.199,-1.3037,0.0,0.0,0.0,0.0,0.0,0.0,0.0,0.0,0.0,0.0,0.0,0.0,0.0,0.0,0.0,0.0,0.0,-1.2046,-1.1743,-1.1536,-1.0967,-1.0586,-1.0586,-1.0586,-1.0586,-1.0586,-1.0586,-1.0586,-1.0586,-1.0586,-1.0586,-1.0586,-1.0586,-1.0586,-1.0586,-1.0586,-1.0747,-1.0995,-1.1116,-1.1436,-1.1926,-1.2184,-1.2412,-1.2596,-1.2596,-1.2891,-1.328,-1.3373,-1.3654,-1.3921,0.0,0.0,-1.6124,-1.6222,-1.6887,-1.7266,-1.6902,-1.6804,-1.6765,0.0,-1.6465,0.0,0.0,-1.7285,-1.7272,0.0,-1.629,-1.5999,-1.5811,-1.4756,-1.4398,-1.5118,-1.3765,-1.3342,-1.4064,-1.3373,-1.3009,-1.3009,-1.3009,-1.3009,-1.3009,-1.2917,-1.2856,-1.2856,0.0,0.0,0.0,0.0,0.0,-1.4372,-1.3695,-1.3526,0.0,0.0,-1.1831,-1.2375,-1.1601,-1.1503,-1.1645,-1.0854,-1.0586,0.0,0.0,0.0,0.0,0.0,-1.0586,0.0,0.0,0.0,0.0,0.0,0.0,0.0,-1.0945,-1.1691,-1.2521,0.0,0.0,0.0,0.0,0.0,0.0,0.0,0.0,0.0,0.0,0.0,0.0,0.0,0.0,0.0,-1.1081,-1.0995,-1.0889,-1.0667,-1.0613,-1.0586,-1.0586,-1.0586,-1.0586,-1.0586,-1.0586,-1.0586,-1.0586,-1.0586,-1.0586,-1.0586,-1.0586,-1.0586,-1.0586,-1.0586,-1.0747,-1.1009,-1.1263,-1.1543,-1.1873,-1.2131,-1.2291,-1.2345,-1.2345,-1.2559,-1.2918,-1.316,-1.3387,-1.3653,0.0,0.0,-1.632,-1.7024,-1.7298,-1.7461,-1.7715,-1.748,-1.7266,-1.7266,0.0,0.0,0.0,0.0,0.0,0.0,-1.6215,-1.5378,-1.4013,-1.3691,-1.3523,-1.348,-1.3161,-1.307,-1.3221,-1.307,-1.3009,-1.3009,-1.3009,-1.3009,-1.2978,-1.2336,-1.2012,-1.2012,0.0,0.0,0.0,0.0,0.0,-1.2661,-1.2548,0.0,-1.1839,-1.1269,-1.1059,-1.0985,-1.0825,-1.0801,-1.0827,-1.0653,-1.0586,-1.0586,0.0,0.0,0.0,-1.0586,0.0,0.0,0.0,0.0,0.0,0.0,0.0,0.0,-1.1462,-1.1783,-1.2134,0.0,0.0,0.0,0.0,0.0,0.0,0.0,0.0,0.0,0.0,0.0,0.0,0.0,0.0,0.0,-1.1067,-1.0995,-1.0969,-1.0915,-1.072,-1.0586,-1.0586,-1.0586,-1.0586,-1.0586,-1.0586,-1.0586,-1.0586,-1.0586,-1.0586,-1.0586,-1.0586,-1.0586,-1.0586,-1.0586,-1.0747,-1.0995,-1.1049,-1.1249,-1.153,-1.1873,-1.2275,-1.2703,-1.2703,-1.2986,-1.344,-1.3493,-1.356,-1.3653,0.0,-1.6582,-1.6966,-1.7578,-1.8047,-1.8398,-1.8613,-1.8477,-1.8418,0.0,0.0,0.0,0.0,0.0,0.0,0.0,0.0,0.0,0.0,-1.3219,-1.2917,-1.318,-1.2305,-1.1996,-1.2381,-1.1996,-1.1779,-1.1779,-1.1779,-1.1779,-1.1779,-1.1389,-1.1202,-1.117,-1.0776,0.0,0.0,0.0,-1.1567,-1.1822,-1.1961,0.0,-1.1722,-1.1038,-1.0962,-1.1139,-1.0744,-1.0586,-1.064,-1.0902,-1.0827,0.0,0.0,-1.0586,-1.0586,0.0,-1.0586,-1.0586,0.0,0.0,0.0,-1.0586,0.0,0.0,0.0,-1.096,-1.1131,-1.1732,0.0,0.0,0.0,0.0,0.0,0.0,0.0,0.0,0.0,0.0,0.0,0.0,0.0,0.0,-1.0819,-1.0814,-1.0814,-1.0814,-1.068,-1.0586,-1.0586,-1.0586,-1.0586,-1.0586,-1.0586,-1.0586,-1.0586,-1.0586,-1.0586,-1.0586,-1.0586,-1.0586,-1.0586,-1.0586,-1.0667,-1.0814,-1.0929,-1.1076,-1.1236,-1.153,-1.194,-1.2355,-1.2502,-1.2705,-1.2974,-1.328,-1.3333,-1.328,-1.5632,-1.6478,-1.7191,-1.7735,-1.8585,-1.9199,-1.9277,-1.9219,-1.9336,0.0,0.0,0.0,0.0,0.0,0.0,0.0,0.0,0.0,0.0,-1.2822,-1.2258,-1.29,-1.1436,-1.0902,-1.1562,-1.0919,-1.0586,-1.0586,-1.0586,-1.0586,-1.0586,-1.0586,-1.0586,-1.0586,-1.0586,0.0,0.0,0.0,0.0,-1.1337,0.0,-1.1853,-1.2047,-1.1058,-1.1066,-1.1556,-1.0852,-1.0586,-1.0667,-1.1102,-1.0942,-1.0586,-1.0586,-1.0586,0.0,0.0,0.0,0.0,0.0,0.0,0.0,0.0,0.0,-1.0533,0.0,0.0,0.0,-1.0609,0.0,0.0,0.0,0.0,0.0,0.0,0.0,0.0,0.0,0.0,0.0,0.0,0.0,0.0,-1.0586,-1.0586,-1.0613,-1.0667,-1.0626,-1.0586,-1.0586,-1.0586,-1.0586,-1.0586,-1.0586,-1.0586,-1.0586,-1.0586,-1.0586,-1.0586,-1.0586,-1.0586,-1.0586,-1.0586,-1.0626,-1.0693,-1.0921,-1.0995,-1.1009,-1.1303,-1.157,-1.181,-1.2104,-1.2291,-1.2452,-1.3013,-1.3053,-1.2998,-1.4564,-1.5325,-1.605,-1.7096,-1.8067,-1.8812,-1.9238,-1.8965,-1.8968,0.0,0.0,0.0,0.0,0.0,0.0,0.0,0.0,0.0,-1.3363,0.0,-1.1179,-1.1278,-1.0843,-1.0649,-1.0744,-1.0649,-1.0586,-1.0586,-1.0586,-1.0586,-1.0586,-1.0586,-1.0586,-1.0586,-1.0586,0.0,0.0,0.0,-1.1009,0.0,-1.1067,-1.1431,0.0,-1.1189,-1.1008,-1.1032,-1.0712,-1.0586,-1.06,0.0,-1.064,-1.0586,0.0,-1.0586,-1.0586,-1.0586,0.0,0.0,0.0,0.0,0.0,0.0,-1.0586,0.0,0.0,0.0,-1.0564,-1.0586,0.0,0.0,0.0,0.0,0.0,0.0,0.0,0.0,0.0,0.0,0.0,0.0,0.0,0.0,0.0,-1.0586,-1.0707,-1.0929,-1.0734,-1.0586,-1.0586,-1.0586,-1.0586,-1.0586,-1.0586,-1.0586,-1.0586,-1.0586,-1.0586,-1.0586,-1.0586,-1.0586,-1.0586,-1.0586,-1.0734,-1.0942,-1.0982,-1.0995,-1.1009,-1.1303,-1.1415,-1.1503,-1.1832,-1.2275,-1.277,-1.308,-1.3186,-1.3253,-1.3737,-1.4595,0.0,-1.6755,-1.6991,-1.7515,-1.9073,-1.998,-2.0566,0.0,0.0,0.0,0.0,0.0,0.0,0.0,0.0,-1.38,0.0,0.0,0.0,-1.1757,-1.1303,-1.0982,-1.0854,-1.0841,-1.076,-1.0586,-1.0586,-1.0586,-1.06,-1.076,-1.0841,-1.0841,-1.0841,0.0,-1.1009,0.0,-1.1249,0.0,0.0,0.0,0.0,-1.1055,-1.0774,-1.076,-1.064,-1.0586,-1.0586,0.0,-1.0586,0.0,0.0,0.0,0.0,0.0,0.0,0.0,0.0,0.0,0.0,0.0,0.0,0.0,-1.0586,0.0,-1.0586,0.0,0.0,0.0,0.0,0.0,0.0,0.0,-1.0506,0.0,0.0,0.0,0.0,0.0,0.0,0.0,0.0,0.0,0.0,0.0,-1.0667,-1.0586,-1.0586,-1.0586,-1.0586,-1.0586,-1.0586,-1.0586,-1.0586,-1.0586,-1.0586,-1.0586,-1.0586,-1.0586,-1.0586,-1.0586,-1.0653,-1.0774,-1.0774,-1.0868,-1.1009,-1.1129,-1.1369,-1.169,-1.1859,-1.2261,-1.2824,-1.3093,-1.3213,-1.3293,-1.275,0.0,0.0,0.0,-1.5781,-1.6248,-1.8101,-1.9629,-2.0686,-2.1012,0.0,0.0,-1.9278,-1.7004,0.0,0.0,-1.4736,-1.4148,0.0,0.0,-1.2225,0.0,0.0,0.0,0.0,-1.1076,-1.1009,-1.0827,-1.0747,-1.0747,-1.0827,-1.0929,-1.1035,-1.1116,0.0,-1.1116,-1.1129,0.0,-1.1349,-1.1329,-1.1543,-1.1618,-1.1484,-1.0921,-1.0667,-1.0586,-1.0586,-1.0586,-1.0586,-1.0586,-1.0586,0.0,-1.0586,0.0,0.0,0.0,0.0,0.0,-1.0586,0.0,0.0,0.0,0.0,0.0,0.0,0.0,0.0,0.0,0.0,0.0,0.0,0.0,0.0,0.0,0.0,-1.0307,0.0,0.0,0.0,0.0,0.0,0.0,0.0,0.0,0.0,-1.0586,-1.0586,-1.0586,-1.0586,-1.0586,-1.0586,-1.0586,-1.0586,-1.0586,-1.0586,-1.0586,-1.0586,-1.0586,-1.0586,-1.0586,-1.0586,-1.0586,-1.0586,-1.06,-1.068,-1.0827,-1.0995,-1.1076,-1.141,-1.1899,-1.1899,-1.2261,-1.2824,-1.3093,-1.3213,-1.3293,-1.1444,-1.2484,0.0,0.0,0.0,-1.5419,-1.5999,-1.677,-1.8078,-2.0397,0.0,0.0,0.0,0.0,0.0,0.0,0.0,-1.4629,-1.4955,0.0,-1.2051,0.0,0.0,-1.1255,0.0,0.0,-1.1375,-1.1362,-1.1116,-1.1129,-1.1362,-1.1116,-1.1142,-1.1375,-1.1375,-1.1375,-1.1375,-1.1389,-1.1263,-1.1009,-1.1022,-1.0881,-1.0667,0.0,-1.0841,-1.0586,-1.0586,0.0,0.0,-1.0586,-1.0586,0.0,0.0,0.0,0.0,0.0,0.0,0.0,0.0,0.0,0.0,-1.0586,0.0,0.0,0.0,0.0,-1.0586,0.0,0.0,0.0,0.0,0.0,0.0,0.0,0.0,0.0,0.0,0.0,0.0,0.0,0.0,0.0,0.0,0.0,-1.0586,-1.0586,-1.0586,-1.0586,-1.0586,-1.0586,-1.0586,-1.0586,-1.0586,-1.0586,-1.0586,-1.0586,-1.0586,-1.0586,-1.0586,-1.0586,-1.0586,-1.0586,-1.0586,-1.06,-1.0862,-1.0982,-1.1009,-1.1289,-1.1597,-1.1899,-1.1899,-1.2261,-1.2824,-1.3093,-1.3213,-1.3293,0.0,0.0,0.0,0.0,0.0,-1.4159,-1.5802,-1.7504,-1.906,0.0,0.0,0.0,0.0,-1.8915,-1.7769,0.0,0.0,-1.6059,-1.5565,-1.4616,0.0,0.0,0.0,-1.2866,0.0,0.0,0.0,0.0,-1.1423,-1.1295,-1.1389,-1.153,-1.1623,-1.1717,0.0,-1.161,0.0,0.0,0.0,0.0,0.0,-1.1049,-1.1129,0.0,-1.0841,-1.0613,-1.0814,-1.076,0.0,-1.0586,-1.0586,-1.0586,-1.0586,-1.0586,-1.0586,-1.0586,-1.0586,0.0,0.0,0.0,-1.064,-1.0827,0.0,0.0,0.0,0.0,0.0,0.0,0.0,0.0,0.0,0.0,0.0,0.0,0.0,0.0,0.0,0.0,0.0,0.0,0.0,0.0,0.0,0.0,0.0,-1.0586,-1.0586,-1.0586,-1.0586,-1.0586,-1.0586,-1.0586,-1.0586,-1.0586,-1.0586,-1.0586,-1.0586,-1.0586,-1.0586,-1.0586,-1.0586,-1.0586,-1.0586,-1.06,-1.0862,-1.1102,-1.1303,-1.1597,-1.1891,-1.2158,-1.2158,-1.2278,-1.2529,-1.2824,-1.316,-1.352,-1.2682,0.0,0.0,0.0,0.0,-1.3954,-1.5461,-1.7308,0.0,0.0,-1.9919,0.0,-2.042,0.0,-1.817,0.0,-1.7434,-1.678,-1.5838,-1.5484,0.0,-1.3975,-1.4028,0.0,0.0,0.0,0.0,0.0,0.0,-1.1837,-1.1708,-1.1824,-1.1953,-1.2024,0.0,-1.1797,-1.1389,-1.1389,-1.1196,0.0,0.0,-1.1049,0.0,0.0,-1.1149,-1.0875,0.0,-1.0841,-1.0586,-1.0586,-1.0586,-1.0586,-1.0586,-1.0586,-1.0586,-1.0586,-1.0586,-1.0586,-1.0586,-1.0586,0.0,-1.0827,-1.0734,0.0,-1.0827,0.0,0.0,0.0,0.0,0.0,0.0,0.0,0.0,0.0,0.0,0.0,0.0,-0.9107,0.0,0.0,0.0,0.0,0.0,0.0,-1.0586,-1.0586,-1.0586,-1.0586,0.0,0.0,-1.0586,-1.0586,-1.0586,-1.0586,-1.0586,-1.0586,-1.0586,-1.0586,-1.0586,-1.0586,-1.06,-1.0707,-1.0747,-1.0774,-1.1162,-1.141,-1.161,-1.1904,-1.2131,-1.2305,-1.2305,-1.2305,-1.2345,-1.2677,-1.3133,-1.3653,0.0,0.0,0.0,0.0,-1.3988,0.0,0.0,0.0,-1.7874,0.0,-1.9152,-1.9139,-2.0647,-1.9181,-1.8035,-1.7995,-1.7528,-1.6871,-1.5952,-1.5851,0.0,0.0,-1.4041,-1.3816,-1.2891,0.0,0.0,0.0,0.0,0.0,-1.2318,-1.206,-1.2074,-1.2305,-1.2305,0.0,-1.1389,-1.1389,-1.1102,-1.064,-1.0908,-1.0881,-1.076,-1.1591,-1.1703,-1.1402,-1.1142,-1.0881,-1.064,-1.064,-1.0626,-1.0613,-1.0613,-1.06,-1.06,-1.0613,-1.0613,-1.0613,-1.0626,-1.0626,-1.0613,-1.0626,-1.0613,0.0,0.0,0.0,-1.0613,0.0,0.0,0.0,0.0,0.0,0.0,0.0,0.0,0.0,0.0,0.0,0.0,0.0,0.0,0.0,0.0,-1.0586,-1.0586,-1.0586,-1.0586,-1.0586,0.0,0.0,-1.0613,-1.0613,-1.0613,-1.0613,-1.0613,-1.06,-1.06,-1.0613,-1.0613,-1.0626,-1.064,-1.0889,-1.1009,-1.1049,-1.1658,-1.1899,-1.1926,-1.2184,-1.2305,-1.2305,-1.2318,-1.2331,-1.2385,-1.2703,-1.3146,-1.3653,-1.1024,-1.2031,-1.3233,0.0,-1.4656,-1.491,0.0,0.0,0.0,0.0,-1.9361,-1.9573,-1.977,-1.9334,-1.8758,-1.8049,-1.7849,0.0,0.0,0.0,0.0,-1.5265,-1.5551,-1.519,-1.4095,-1.4001,0.0,-1.3253,0.0,0.0,-1.2663,-1.2368,-1.2225,-1.2305,0.0,0.0,-1.1389,-1.1389,-1.1223,-1.0889,-1.0969,-1.1343,-1.185,0.0,-1.1957,-1.2037,-1.1779,-1.145,-1.1196,-1.1196,-1.1062,-1.0908,-1.0908,-1.076,-1.064,-1.0854,-1.0908,-1.0929,-1.1142,-1.1049,-1.0942,-1.1142,-1.0875,-1.0653,0.0,0.0,0.0,0.0,0.0,0.0,0.0,0.0,0.0,0.0,0.0,0.0,0.0,0.0,0.0,-0.8258,0.0,0.0,0.0,-1.0586,-1.0586,-1.0586,-1.0586,-1.0586,-1.0586,0.0,0.0,-1.0908,-1.0908,-1.0908,-1.0908,-1.0707,-1.0707,-1.0908,-1.0908,-1.0995,-1.1209,-1.1276,-1.1316,-1.1329,-1.1703,-1.1899,-1.1926,-1.2184,-1.2305,-1.2318,-1.2583,-1.2772,-1.2986,-1.3066,-1.332,-1.3653,-1.076,0.0,0.0,-1.4883,0.0,0.0,-1.6754,-1.7382,0.0,-1.8824,-1.9319,0.0,-1.9199,-1.9065,-1.8731,-1.8049,-1.7862,0.0,-1.7233,0.0,0.0,-1.6059,-1.6179,-1.5658,-1.4362,-1.4175,0.0,-1.3014,0.0,0.0,-1.2583,-1.2385,-1.2305,0.0,0.0,-1.2051,-1.1597,-1.1343,-1.1223,-1.1182,-1.1182,-1.1476,0.0,-1.2024,-1.2078,-1.2104,-1.2114,-1.1784,-1.1389,-1.1389,-1.1236,-1.0995,-1.0995,-1.0908,-1.0814,-1.0942,-1.1089,-1.1223,-1.1349,-1.1303,-1.1223,-1.1349,-1.1182,-1.0982,-1.1142,-1.1182,-1.1142,0.0,0.0,0.0,0.0,0.0,0.0,0.0,0.0,0.0,0.0,0.0,0.0,0.0,-0.8194,0.0,0.0,-1.0129,-1.0586,-1.0586,-1.0586,-1.0586,0.0,0.0,0.0,-1.0995,-1.127,-1.1316,-1.1182,-1.1176,-1.1176,-1.1182,-1.1182,-1.1263,-1.1389,-1.1557,-1.1623,-1.1637,-1.1931,-1.2051,-1.2078,-1.2409,-1.2529,-1.2569,-1.2864,-1.3133,-1.336,-1.336,-1.3467,-1.3653,-1.1559,0.0,0.0,0.0,0.0,0.0,0.0,-1.8063,0.0,-1.8878,0.0,-1.9279,-1.8905,-1.8637,-1.8357,-1.7955,0.0,-1.7475,-1.7273,-1.7487,-1.7208,-1.6366,-1.6326,-1.5645,-1.4175,-1.4068,-1.3494,0.0,0.0,0.0,-1.2358,-1.2318,0.0,0.0,0.0,0.0,0.0,-1.1289,-1.1223,-1.149,-1.149,-1.1503,-1.1562,-1.2104,-1.2144,-1.1993,-1.2211,-1.1971,-1.1495,-1.149,-1.1316,-1.1102,-1.1062,-1.1022,-1.1009,-1.1089,-1.1263,-1.1415,-1.1482,-1.1482,-1.149,-1.149,-1.1415,-1.1389,-1.1389,-1.1389,-1.1389,-1.1389,-1.1389,-1.1322,0.0,0.0,0.0,0.0,0.0,0.0,0.0,0.0,0.0,0.0,0.0,0.0,0.0,0.0,-1.0428,-1.0428,-1.0523,0.0,0.0,0.0,0.0,-1.0995,-1.153,-1.1703,-1.149,-1.1703,-1.1717,-1.1509,-1.1469,-1.1469,-1.1509,-1.1886,-1.202,-1.2033,-1.2291,-1.2425,-1.2438,-1.2744,-1.2864,-1.2931,-1.316,-1.34,-1.3666,-1.3666,-1.3666,-1.3693,-1.2241,0.0,0.0,0.0,0.0,-1.8277,-1.8571,-1.8544,-1.8597,-1.8878,-1.9386,-1.9426,-1.8651,-1.8517,-1.8263,-1.7716,-1.7609,0.0,0.0,0.0,0.0,-1.666,-1.6633,-1.5939,-1.4482,-1.3933,-1.3467,0.0,0.0,0.0,-1.2703,0.0,0.0,0.0,0.0,0.0,-1.1886,-1.1503,0.0,-1.1832,-1.1832,-1.1931,-1.2158,-1.2265,-1.2265,-1.2238,-1.2278,-1.2238,-1.2118,-1.1913,-1.1792,-1.1712,-1.1423,-1.1182,-1.1089,-1.1605,-1.1583,-1.1495,-1.2011,-1.1971,-1.1832,-1.1832,-1.161,-1.1389,-1.1389,-1.1389,-1.1389,-1.1389,-1.1389,-1.1375,-1.1322,0.0,0.0,0.0,0.0,0.0,0.0,0.0,0.0,0.0,0.0,-0.7058,0.0,0.0,0.0,0.0,0.0,0.0,0.0,0.0,0.0,0.0,-1.1329,0.0,0.0,0.0,-1.1717,-1.2144,-1.1904,-1.1917,-1.2158,-1.2489,-1.2636,-1.265,-1.2919,-1.3053,-1.3053,-1.3106,-1.3267,-1.3453,-1.3507,-1.3748,-1.4015,-1.4015,-1.4015,-1.4015,0.0,0.0,0.0,0.0,0.0,0.0,0.0,-1.9265,-1.9172,-1.9158,-1.9399,-1.9239,-1.8357,-1.8397,-1.825,-1.7635,-1.7582,-1.7582,-1.7582,-1.7582,-1.7315,-1.6727,-1.67,0.0,-1.4506,-1.3906,-1.3467,-1.3213,0.0,0.0,-1.277,0.0,0.0,-1.2305,0.0,-1.2225,0.0,0.0,0.0,-1.2078,-1.1966,-1.2037,-1.2305,-1.2305,-1.2305,-1.2305,-1.2305,-1.2305,-1.2278,-1.2144,-1.1891,-1.1637,-1.165,-1.145,-1.1303,-1.1779,-1.1877,-1.1944,-1.2225,-1.2198,-1.2091,-1.2091,-1.1984,-1.1877,-1.1877,-1.1877,-1.1877,-1.1877,-1.1877,-1.1646,-1.0997,-0.9927,0.0,0.0,0.0,0.0,0.0,0.0,0.0,0.0,0.0,0.0,0.0,0.0,0.0,0.0,0.0,0.0,0.0,0.0,0.0,0.0,0.0,0.0,0.0,0.0,0.0,-1.2569,-1.2422,-1.2435,-1.2583,-1.2891,-1.3025,-1.2999,-1.3146,-1.3213,-1.3227,-1.3333,-1.3614,-1.3868,-1.3868,-1.3961,-1.4082,-1.4082,-1.3349,-1.2388,0.0,-1.3138,0.0,0.0,-1.7159,0.0,-1.9733,-1.9853,-1.9786,-1.9492,-1.947,-1.9078,-1.8262,-1.8384,-1.8277,-1.7729,-1.7622,-1.7582,-1.7582,-1.7528,-1.7288,-1.682,-1.6687,-1.5979,-1.4643,-1.3933,-1.3427,0.0,0.0,0.0,0.0,0.0,0.0,0.0,0.0,0.0,0.0,0.0,-1.2091,-1.2278,-1.2051,-1.2091,-1.2305,-1.2305,-1.2305,-1.2305,-1.2305,-1.2305,-1.2305,-1.2305,-1.1997,-1.1637,-1.181,-1.1717,-1.1583,-1.1877,-1.2078,-1.2225,-1.2278,-1.2305,-1.2305,-1.2305,-1.2305,-1.2305,-1.2305,-1.2305,-1.2231,-1.2033,-1.1811,-1.1366,-1.0342,-0.9129,0.0,0.0,0.0,0.0,0.0,0.0,0.0,0.0,0.0,0.0,-0.546,0.0,0.0,0.0,0.0,0.0,-1.0269,0.0,0.0,0.0,0.0,-1.2536,-1.2465,0.0,-1.2851,-1.2971,-1.2918,-1.2891,-1.2891,-1.316,-1.3134,-1.2934,-1.2986,-1.3025,-1.3038,-1.3584,-1.3961,-1.4188,-1.4242,-1.4269,-1.4269,-1.3969,-1.2683,-1.114,0.0,0.0,0.0,0.0,0.0,0.0,-1.9786,-2.0027,-2.0094,-1.98,-1.9533,-1.9239,-1.8878,-1.8637,-1.8357,-1.7982,-1.7742,-1.7582,-1.7582,-1.7393,-1.7219,-1.7166,-1.6643,-1.5919,-1.4981,-1.4039,-1.336,0.0,0.0,-1.2291,0.0,0.0,0.0,0.0,0.0,0.0,0.0,-1.2278,-1.2278,-1.2305,-1.2278,-1.2278,-1.2305,-1.2305,-1.2305,-1.2305,-1.2305,-1.2305,-1.2305,-1.2305,-1.2265,-1.2184,-1.198,-1.1886,-1.1926,-1.2171,-1.2091,-1.2007,-1.2225,-1.2305,-1.2305,-1.2305,-1.2305,-1.2305,-1.2305,-1.2305,-1.2033,-1.113,-1.0233,-0.9556,-0.9422,-0.8571,-0.7842,0.0,0.0,0.0,0.0,0.0,0.0,0.0,0.0,0.0,0.0,-0.5541,0.0,0.0,-0.7665,0.0,0.0,0.0,0.0,-0.9667,0.0,-1.1795,-1.1349,-1.2312,-1.3052,-1.352,-1.3293,-1.3173,-1.3173,-1.3427,-1.3016,-1.2046,-1.2284,-1.239,-1.2487,-1.3866,-1.4412,-1.4509,-1.4821,-1.4928,-1.4781,-1.3546,-1.2948,-1.2485,0.0,0.0,0.0,0.0,0.0,0.0,0.0,-2.0267,-2.0134,-1.984,-1.9693,-1.9452,-1.8971,-1.8664,-1.837,-1.8022,-1.7756,-1.7582,-1.7582,-1.7475,-1.738,-1.7206,-1.6804,-1.6126,-1.5244,-1.4536,-1.3881,0.0,0.0,0.0,0.0,0.0,0.0,0.0,0.0,-1.2623,-1.2318,-1.2492,-1.2465,-1.2305,-1.2305,-1.2305,-1.2305,-1.2305,-1.2305,-1.2305,-1.2305,-1.2305,-1.2305,-1.2305,-1.2184,-1.2051,-1.2104,-1.2047,-1.1966,-1.2211,-1.2091,-1.1966,-1.2225,-1.2171,-1.2091,-1.2265,-1.2305,-1.2305,-1.2305,-1.2305,-1.2194,-1.1774,-1.0496,-0.9406,-0.9406,-0.8095,-0.7006,0.0,0.0,0.0,0.0,0.0,0.0,0.0,0.0,0.0,0.0,0.0,0.0,0.0,0.0,0.0,0.0,0.0,0.0,-0.9062,0.0,-1.0843,-1.16,-1.1897,-1.2538,-1.36,-1.348,-1.3427,-1.344,-1.3003,-1.2221,-1.1261,-1.1485,-1.1581,-1.1636,-1.2226,-1.2451,-1.2462,-1.2609,-1.2655,-1.2609,-1.2051,-1.1914,-1.1844,-1.788,0.0,-1.8136,0.0,-1.9494,-2.0067,-2.0481,-2.0227,-1.9907,-1.9693,-1.9679,-1.9519,-1.9105,-1.8718,-1.841,-1.8196,-1.7809,-1.7582,-1.7582,-1.7554,-1.7447,-1.734,-1.6834,0.0,-1.5671,-1.499,-1.4362,-1.3733,-1.344,0.0,0.0,0.0,0.0,0.0,-1.269,-1.2663,-1.2476,-1.2596,-1.2583,-1.2425,-1.2345,-1.2305,-1.2305,-1.2305,-1.2305,-1.2305,-1.2305,-1.2305,-1.2305,-1.2305,-1.2171,-1.2074,-1.2238,-1.2158,-1.2037,-1.2238,-1.2158,-1.2037,-1.2251,-1.2158,-1.2051,-1.2251,-1.2305,-1.2305,-1.2305,-1.2305,-1.2257,-1.2039,-1.0709,-0.9576,-0.9576,-0.8168,-0.6969,-0.6885,0.0,0.0,0.0,0.0,0.0,0.0,-0.602,-0.5952,-0.5881,-0.5698,0.0,0.0,0.0,0.0,0.0,0.0,0.0,0.0,0.0,0.0,-1.0939,-1.1065,-1.1688,-1.2782,-1.2782,-1.2782,-1.2752,-1.18,-1.1004,-1.0374,-1.0516,-1.0813,-1.1181,-1.162,-1.201,-1.2389,-1.2466,-1.2488,-1.2442,-1.207,-1.1977,-1.2009,-2.0601,-2.0655,-2.0748,-2.1042,-2.0553,-2.0227,-2.018,-1.9746,-1.943,-1.943,-1.943,-1.943,-1.9359,-1.8838,-1.849,-1.849,-1.7929,-1.7582,-1.7582,-1.7367,-1.7326,0.0,0.0,-1.6321,-1.6308,-1.545,-1.4713,-1.4082,0.0,0.0,-1.2797,0.0,-1.2784,-1.2784,-1.2784,-1.2784,-1.2757,-1.2425,-1.2478,-1.2757,-1.2425,-1.2305,-1.2305,-1.2305,-1.2305,-1.2305,-1.2305,-1.2305,-1.2305,-1.2305,-1.2305,-1.2305,-1.2305,-1.2305,-1.2305,-1.2305,-1.2305,-1.2305,-1.2305,-1.2305,-1.2305,-1.2305,-1.2305,-1.2305,-1.2305,-1.2305,-1.2087,-1.1366,-1.0406,-0.9703,-0.9703,-0.8878,-0.8077,-0.7812,0.0,0.0,0.0,0.0,0.0,0.0,-0.6125,-0.5993,-0.5993,-0.5759,0.0,0.0,0.0,0.0,0.0,0.0,0.0,-0.7647,-0.8835,0.0,-0.8725,-0.9737,-1.0419,-1.085,-1.085,-1.085,-1.0805,-0.9642,-0.9204,-0.9296,-0.9343,-1.0084,-1.1395,-1.2822,-1.4149,-1.5371,-1.5651,-1.5724,-1.5568,-1.4351,-1.3872,-1.368,-2.0695,-2.0681,-2.0762,-2.1056,-2.0628,-2.0167,-2.0167,-1.9907,-1.9586,-1.9399,-1.943,-1.943,-1.943,-1.8838,-1.841,0.0,-1.7822,-1.7582,0.0,-1.7502,-1.7488,-1.7582,-1.6927,-1.6473,-1.6273,-1.5651,-1.487,-1.4082,0.0,0.0,0.0,-1.316,-1.2985,-1.2784,-1.2784,-1.2784,-1.277,-1.269,-1.2824,-1.3039,-1.277,-1.277,-1.2893,-1.2717,-1.2636,-1.2623,-1.2371,-1.2305,-1.2305,-1.2305,-1.2305,-1.2305,-1.2305,-1.2305,-1.2305,-1.2305,-1.2158,-1.2087,-1.2251,-1.2158,-1.2051,-1.2251,-1.2305,-1.2305,-1.2305,-1.2489,-1.2616,-1.257,-1.1834,-1.1213,-1.1213,-1.0181,-0.9096,-0.8319,-0.7713,0.0,0.0,0.0,0.0,0.0,-0.6259,-0.6186,-0.6186,-0.601,0.0,0.0,0.0,0.0,0.0,0.0,0.0,0.0,-0.7526,0.0,-0.8979,-0.9374,-1.0039,-1.099,-1.099,-1.0579,-0.9764,-0.9478,-0.9476,-0.963,-0.9717,-1.0491,-1.1738,-1.2193,-1.2608,-1.3003,-1.3128,-1.3162,-1.3113,-1.2668,-1.2522,-1.2474,-2.0869,-2.0748,-2.0735,-2.0909,-2.0454,-2.0067,-2.0067,-1.9826,-1.9573,-1.9399,-1.943,-1.9319,-1.9212,-1.8771,0.0,-1.8223,-1.7822,-1.7582,-1.7582,-1.7582,-1.7582,-1.7582,-1.7128,-1.674,-1.6446,-1.5965,0.0,-1.4576,-1.4429,-1.4175,-1.376,-1.34,-1.3106,-1.2958,-1.2837,-1.2784,-1.2784,-1.2784,-1.2958,-1.3186,-1.2904,-1.2971,-1.316,-1.2746,-1.269,-1.2757,-1.2569,-1.2398,-1.2318,-1.2438,-1.2398,-1.2305,-1.2305,-1.2305,-1.2305,-1.2305,-1.2171,-1.2114,-1.2251,-1.2171,-1.2078,-1.2251,-1.2305,-1.2331,-1.2438,-1.2569,-1.277,-1.3267,-1.2849,-1.2425,-1.2523,-1.145,-1.02,-0.9074,-0.8286,-0.7442,-0.6454,0.0,0.0,0.0,0.0,0.0,0.0,-0.6173,-0.6159,0.0,0.0,0.0,0.0,0.0,0.0,-0.7397,-0.7218,-0.7812,-0.9249,-0.8876,-0.9058,-0.9865,-0.9865,-0.9759,-0.9552,-0.9602,-0.9949,-1.0596,-1.0675,-1.1463,-1.2668,-1.2668,-1.2909,-1.3355,-1.3355,-1.3355,-1.3355,-1.3355,-1.3072,-1.2709,-2.1109,-2.0869,-2.0681,0.0,-2.0187,0.0,-1.98,-1.9559,-1.943,-1.943,-1.943,-1.9265,-1.8985,-1.8677,-1.849,-1.849,0.0,0.0,0.0,-1.7582,-1.7582,-1.7582,-1.7353,-1.7058,-1.6714,-1.642,-1.5979,-1.5391,-1.4536,-1.4122,-1.4108,-1.352,-1.324,-1.3227,-1.2958,-1.2824,-1.2851,-1.2824,-1.3012,-1.324,-1.2971,-1.3038,-1.32,-1.2599,-1.2569,-1.2811,-1.2797,-1.261,-1.2385,-1.2717,-1.2636,-1.2358,-1.2358,-1.2345,-1.2331,-1.2305,-1.2305,-1.2305,-1.2305,-1.2305,-1.2305,-1.2331,-1.2345,-1.2438,-1.2784,-1.2599,-1.2639,-1.3453,-1.3427,-1.336,-1.3586,-1.2566,-1.1324,-1.004,-0.869,-0.7496,-0.6532,0.0,0.0,0.0,0.0,0.0,-0.634,-0.6405,-0.6443,0.0,0.0,0.0,0.0,0.0,-0.8245,-0.8776,-0.7694,-0.7885,-0.949,-0.8363,-0.7882,-0.8063,-0.8125,-0.8837,-1.0158,-1.0043,-1.0778,-1.2068,-1.2068,-1.2834,-1.4028,-1.4028,-1.4758,-1.5811,-1.5716,-1.5681,-1.5695,-1.5599,-1.4825,-1.3849,0.0,0.0,-2.0681,-2.0681,-2.0187,-1.98,-1.98,-1.9559,-1.943,-1.943,-1.943,-1.9345,-1.9265,-1.8798,-1.849,-1.849,-1.7929,-1.7582,-1.7582,-1.7582,-1.7582,-1.7582,-1.7353,-1.7058,-1.6714,-1.642,-1.5979,-1.5391,-1.4736,-1.4416,-1.4402,-1.3773,-1.3507,-1.3493,-1.3227,-1.3227,-1.3414,-1.32,-1.34,-1.3854,-1.3547,-1.3614,-1.3814,-1.3227,-1.3039,-1.3066,-1.2864,-1.2744,-1.273,-1.2999,-1.3053,-1.2999,-1.2999,-1.2826,-1.2636,-1.2371,-1.2305,-1.2305,-1.2305,-1.2305,-1.2358,-1.2623,-1.2826,-1.3066,-1.336,-1.3333,-1.3413,-1.3895,-1.3921,-1.3895,-1.3975,-1.28,-1.1741,-1.1284,-0.937,-0.7822,-0.7496,-0.6859,0.0,0.0,-0.6552,-0.6634,-0.66,-0.7392,-0.791,0.0,0.0,0.0,-0.9323,-0.9931,-0.9479,-0.7607,-0.7482,-0.8225,-0.9694,-0.9509,-0.9941,-1.0949,-1.1206,-1.1508,-1.1855,-1.2023,-1.2704,-1.3724,-1.3724,-1.4352,-1.5343,-1.5343,-1.5665,-1.6069,-1.4924,-1.4641,-1.4672,-1.3607,-1.2374,-1.1298,-2.1109,-2.0869,-2.0628,-2.0494,-2.0094,-1.976,-1.9626,-1.9466,-1.943,-1.943,-1.943,-1.943,-1.943,-1.8838,-1.849,-1.849,-1.7929,-1.7582,-1.7582,-1.7582,-1.7582,-1.7582,-1.7487,-1.7259,-1.6914,-1.662,-1.6179,-1.5591,-1.5003,-1.4723,-1.471,-1.4122,-1.3733,-1.36,-1.344,-1.3387,-1.34,-1.3373,-1.3547,-1.3868,-1.3666,-1.3773,-1.4015,-1.344,-1.3293,-1.3347,-1.3213,-1.3066,-1.2999,-1.3307,-1.332,-1.3213,-1.3213,-1.3093,-1.2971,-1.2759,-1.2612,-1.2569,-1.2679,-1.2612,-1.2583,-1.2744,-1.2986,-1.328,-1.3533,-1.3507,-1.3561,-1.4001,-1.3975,-1.3754,-1.3353,-1.2829,-1.1978,-1.0455,-0.9281,-0.8237,-0.7265,-0.677,-0.6538,-0.6566,-0.677,-0.6898,-0.6898,-0.7511,-0.8162,-0.8666,-0.9429,0.0,-1.0678,-1.1069,-1.0811,-0.9844,-0.9598,-1.0177,-1.1662,-1.1152,-1.1219,-1.1901,-1.2222,-1.2673,-1.3281,-1.3572,-1.4313,-1.5394,-1.5394,-1.5714,-1.6233,-1.6233,-1.6326,-1.6325,-1.4847,-1.4379,-1.4343,-1.2915,-1.1582,-1.0521,-2.1109,-2.0869,-2.0601,-2.0347,-2.0027,-1.972,-1.9466,-1.9457,-1.943,-1.943,-1.943,-1.943,-1.943,-1.8878,-1.8544,-1.849,-1.7983,-1.7635,-1.7582,-1.7582,-1.7582,-1.7582,-1.7582,-1.7448,-1.7206,-1.682,-1.638,-1.5784,-1.5297,-1.5075,-1.5062,-1.4429,-1.4015,-1.3733,-1.3693,-1.3533,-1.336,-1.356,-1.3666,-1.3666,-1.3666,-1.3868,-1.4028,-1.348,-1.3387,-1.36,-1.36,-1.344,-1.332,-1.3573,-1.3507,-1.3347,-1.3347,-1.3307,-1.328,-1.3333,-1.3002,-1.2725,-1.3107,-1.3053,-1.2918,-1.2918,-1.312,-1.3414,-1.3666,-1.3547,-1.3561,-1.4108,-1.3847,-1.3297,-1.2528,-1.2473,-1.1676,-0.9101,-0.8788,-0.8365,-0.6791,0.0,-0.66,-0.6749,-0.7007,-0.7139,-0.7166,-0.7507,-0.8065,-0.9067,-0.9598,-1.0381,-1.1544,-1.1906,-1.2484,-1.3412,-1.2316,-1.2432,-1.3872,-1.2958,-1.2495,-1.2586,-1.2869,-1.3646,-1.4737,-1.5052,-1.5669,-1.6465,-1.6465,-1.6288,-1.6085,-1.6299,-1.6426,-1.6301,-1.4808,-1.4271,-1.41,-1.2501,-1.1256,-1.0452,-2.1109,-2.0869,-2.0655,-2.0615,-2.016,-1.9786,-1.9733,-1.9533,-1.943,-1.943,-1.943,-1.943,-1.943,-1.9065,-1.8758,-1.8517,-1.817,-1.7862,-1.7595,-1.7582,-1.7582,-1.7582,-1.7582,-1.7448,-1.7206,-1.667,-1.6166,-1.5784,-1.5498,-1.5324,-1.5311,-1.4723,-1.4429,-1.4332,-1.4122,-1.3988,-1.3961,-1.4001,-1.4015,-1.4015,-1.4015,-1.4041,-1.4055,-1.3666,-1.356,-1.36,-1.36,-1.3573,-1.3586,-1.3921,-1.3988,-1.3948,-1.3948,-1.3774,-1.3586,-1.3881,-1.3048,-1.2201,-1.2975,-1.336,-1.3467,-1.3467,-1.3734,-1.4028,-1.4322,-1.4349,-1.4416,-1.4763,-1.3919,-1.3007,-1.2774,-1.0991,-0.9643,-0.9885,-0.8346,-0.7275,-0.7837,0.0,-0.6869,-0.7011,-0.7231,-0.7387,-0.7516,-0.842,-0.9061,-0.9259,-1.1248,-1.2643,-1.3032,-1.4167,-1.4988,-1.5337,-1.3003,-1.2432,-1.3872,-1.4758,-1.5316,-1.5609,-1.5892,-1.6301,-1.6752,-1.7042,-1.6456,-1.5235,-1.5235,-1.4436,-1.3171,-1.4343,-1.4981,-1.5132,-1.3665,-1.3266,-1.3163,-1.0427,-0.9318,-0.9175,-2.0909,-2.0895,-2.0855,-2.0708,-2.0454,-2.016,-1.9853,-1.9679,-1.9546,-1.9444,-1.943,-1.9305,-1.9145,-1.8865,-1.8571,-1.8277,-1.7969,-1.7729,-1.7595,-1.7582,-1.7582,-1.7582,-1.7582,-1.7448,-1.7206,-1.6727,-1.6366,-1.6072,-1.5618,-1.5391,-1.5378,-1.479,-1.4522,-1.4509,-1.4215,-1.4082,-1.4082,-1.4082,-1.4082,-1.4082,-1.4082,-1.4082,-1.4068,-1.3935,-1.3881,-1.3881,-1.3881,-1.3881,-1.3908,-1.4041,-1.4082,-1.4082,-1.4082,-1.3988,-1.3783,-1.3298,-1.2632,-1.2206,-1.2609,-1.2937,-1.3319,-1.3939,-1.4335,-1.4633,-1.4723,-1.4763,-1.4843,-1.5137,-1.4605,-1.3664,-1.2438,-1.1407,-1.0269,-0.8903,-0.804,0.0,-0.7588,-0.7253,-0.7112,-0.7422,-0.7638,-0.7821,-0.8052,-0.8564,-0.9153,-0.9838,-1.0962,-1.2325,-1.3961,-1.3875,-1.4156,-1.4971,-1.4267,-1.4242,-1.4902,-1.5691,-1.6139,-1.6321,-1.6727,-1.7072,-1.7206,-1.7501,-1.7187,-1.6363,-1.5563,-1.4744,-1.4013,-1.3908,-1.3921,-1.3965,-1.2471,-1.1999,-1.1864,-0.9699,-0.8885,-0.8885,-2.0815,-2.0962,-2.1042,-2.0815,-2.0722,-2.0521,-2.008,-1.9893,-1.972,-1.9492,-1.947,-1.9279,-1.9052,-1.8771,-1.8477,-1.8115,-1.7876,-1.7662,-1.7582,-1.7582,-1.7582,-1.7582,-1.7582,-1.7448,-1.7206,-1.6978,-1.666,-1.638,-1.5858,-1.5605,-1.5591,-1.5003,-1.4723,-1.471,-1.4416,-1.4255,-1.4188,-1.4188,-1.4148,-1.4082,-1.4082,-1.4082,-1.4082,-1.4082,-1.4082,-1.4082,-1.4082,-1.4082,-1.4095,-1.4162,-1.4188,-1.4202,-1.4269,-1.4295,-1.4111,-1.3213,-1.2726,-1.2423,-1.212,-1.2212,-1.2626,-1.3491,-1.4161,-1.4663,-1.4728,-1.5035,-1.5305,-1.5209,-1.4799,-1.38,-1.1738,-1.1339,-1.0458,-0.7915,0.0,-0.7892,0.0,-0.7253,-0.7402,-0.7868,-0.8018,-0.8194,-0.8459,-0.8479,-0.8898,-0.9875,-1.0231,-1.139,-1.3605,-1.2895,-1.2832,-1.3857,-1.4898,-1.5591,-1.5925,-1.6233,-1.6406,-1.6536,-1.6623,-1.6923,-1.7313,-1.716,-1.7094,-1.7041,-1.5902,-1.5037,-1.4341,-1.3588,-1.3102,-1.267,-1.1538,-1.1109,-1.0945,-0.9423,-0.8885,-0.8885,-2.1082,-2.1096,-2.1096,-2.1082,-2.0855,-2.0668,-2.0615,-2.0147,-1.9786,-1.9773,-1.9533,-1.9417,-1.939,-1.9065,-1.8771,-1.8477,-1.8183,-1.7889,-1.7595,-1.7582,-1.7582,-1.7582,-1.7582,-1.7448,-1.7206,-1.7179,-1.7018,-1.6673,-1.6366,-1.6206,-1.6192,-1.5605,-1.5324,-1.5324,-1.503,-1.475,-1.4482,-1.4482,-1.4335,-1.4082,-1.4082,-1.4082,-1.4082,-1.4082,-1.4082,-1.4082,-1.4082,-1.4082,-1.4122,-1.4402,-1.4482,-1.4536,-1.4861,-1.4941,-1.4897,-1.4852,-1.402,-1.2836,-1.1542,-1.1232,-1.1242,-1.1334,-1.2433,-1.3614,-1.3909,-1.5137,-1.5905,-1.4769,-1.3634,-1.2283,-1.06,-0.9218,-0.8217,-0.7849,0.0,0.0,-0.774,-0.776,-0.7882,-0.8201,-0.8248,-0.8316,-0.8465,-0.8479,-0.8531,-0.8636,-0.9719,-1.0619,-1.1159,-1.194,-1.2443,-1.2526,-1.3768,-1.5035,-1.6233,-1.6526,-1.682,-1.7139,-1.5801,-1.6014,-1.7503,-1.6168,-1.5583,-1.5583,-1.5476,-1.3857,-1.1483,-1.2778,-1.2507,-1.1265,-1.1164,-1.1109,-1.0945,-0.9423,-0.8885,-0.8885,-2.0842,-2.0989,-2.1109,-2.1109,-2.1015,-2.0882,-2.0708,-2.0481,-2.0214,-1.9853,-1.9706,-1.9492,-1.9132,-1.8985,-1.8811,-1.8517,-1.8223,-1.7942,-1.7822,-1.7689,-1.7582,-1.7582,-1.7582,-1.7528,-1.7474,-1.73,-1.7152,-1.7032,-1.6687,-1.6446,-1.6308,-1.5858,-1.5565,-1.5378,-1.5142,-1.4941,-1.479,-1.479,-1.4736,-1.4673,-1.4673,-1.4673,-1.4673,-1.4673,-1.4673,-1.4673,-1.4673,-1.4673,-1.4643,-1.4763,-1.479,-1.4816,-1.4968,-1.5008,-1.4855,-1.4193,-1.3321,-1.249,-1.2052,-1.175,-1.1662,-1.1835,-1.236,-1.3039,-1.4033,-1.4086,-1.4325,-1.5884,-1.4191,-1.236,-1.1987,-1.051,-0.9133,-0.8374,0.0,-0.7957,-0.8194,-0.8153,-0.8556,-0.975,-0.9894,-0.9957,-1.0077,-1.0092,-0.9723,-0.8818,-0.919,-0.9915,-1.0991,-1.2139,-1.2747,-1.2653,-1.4071,-1.4519,-1.3903,-1.414,-1.436,-1.4462,-1.4989,-1.5158,-1.4931,-1.5251,-1.4931,-1.4126,-1.4126,-1.294,-1.1164,-1.1701,-1.1055,-0.9754,-0.9754,-0.9754,-0.9644,-0.9099,-0.8885,-0.8885,-2.0815,-2.0975,-2.1109,-2.1109,-2.1109,-2.1042,-2.0842,-2.0735,-2.0494,-2.0,-1.9853,-1.9613,-1.9118,-1.8985,-1.8838,-1.8637,-1.8357,-1.8129,-1.8129,-1.7983,-1.7782,-1.7595,-1.7582,-1.7582,-1.7582,-1.7434,-1.734,-1.734,-1.6994,-1.67,-1.6406,-1.6099,-1.5818,-1.5524,-1.5324,-1.4949,-1.454,-1.4961,-1.4818,-1.4411,-1.4829,-1.5008,-1.5008,-1.5008,-1.5008,-1.5008,-1.5008,-1.5008,-1.5022,-1.5115,-1.5142,-1.5156,-1.5204,-1.5297,-1.5279,-1.4646,-1.4026,-1.3539,-1.3283,-1.3028,-1.2815,-1.2598,-1.2555,-1.2967,-1.4407,-1.364,-1.3435,-1.6068,-1.4179,-1.2073,-1.2365,-1.0958,-0.9518,-0.8698,-0.8384,-0.8323,-0.8526,-0.8472,-0.907,-1.0774,-1.0969,-1.102,-1.1093,-1.1109,-1.0515,-0.8995,-0.8885,-0.932,-1.0351,-1.1675,-1.2341,-1.2297,-1.3784,-1.3972,-1.2715,-1.3751,-1.4312,-1.4312,-1.5064,-1.5144,-1.4663,-1.4716,-1.4449,-1.3911,-1.348,-1.2453,-1.1109,-1.1109,-1.0241,-0.8885,-0.8885,-0.8885,-0.8885,-0.8885,-0.8885,-0.8885,-2.1109,-2.1109,-2.1109,-2.1109,-2.1109,-2.1109,-2.1109,-2.0869,-2.0575,-2.0207,-1.9987,-1.9693,-1.9457,-1.9105,-1.8931,-1.8875,-1.8664,-1.849,-1.849,-1.849,-1.8223,-1.7609,-1.7582,-1.7582,-1.7582,-1.7582,-1.7582,-1.7582,-1.734,-1.7045,-1.67,-1.642,-1.6126,-1.5784,-1.5784,-1.4892,-1.3496,-1.4836,-1.4485,-1.3166,-1.4469,-1.5022,-1.5022,-1.5022,-1.5022,-1.5022,-1.5022,-1.5022,-1.5062,-1.5311,-1.5404,-1.5458,-1.5704,-1.6046,-1.6388,-1.662,-1.67,-1.6465,-1.5339,-1.5035,-1.4665,-1.3183,-1.2925,-1.3351,-1.4839,-1.4177,-1.3696,-1.5091,-1.3102,-1.1109,-1.1109,-0.9919,-0.8838,-0.8737,-0.871,-0.871,-0.871,-0.871,-0.9352,-1.092,-1.1109,-1.1109,-1.1109,-1.1109,-1.0515,-0.8995,-0.8885,-0.8885,-0.8885,-1.0296,-1.1109,-1.1109,-1.2571,-1.3318,-1.3318,-1.6127,-1.7582,-1.7529,-1.6062,-1.6168,-1.7477,-1.4609,-1.4073,-1.5251,-1.3857,-1.2453,-1.1109,-1.1109,-1.0241,-0.8885,-0.8885,-0.8885,-0.8885,-0.8885,-0.8885,-0.8885,-1.8988,-1.9291,-1.9291,-1.9291,-2.0259,-2.0716,-1.9483,-2.0258,-2.0802,-2.0294,-2.016,-1.992,-1.9426,-1.9292,-1.8821,-1.7683,-1.7195,-1.6765,-1.6343,-1.7453,-1.8103,-1.7916,-1.7849,-1.7809,-1.7582,-1.7582,-1.7582,-1.7582,-1.7502,-1.7194,-1.6714,-1.6884,-1.667,-1.6152,-1.6353,-1.6147,-1.5761,-1.6166,-1.6064,-1.5632,-1.6034,-1.6192,-1.6166,-1.5965,-1.5933,-1.5933,-1.5933,-1.5933,-1.5925,-1.6219,-1.6313,-1.6326,-1.642,-1.65,-1.6593,-1.6687,-1.686,-1.6983,-1.6652,-1.6652,-1.6243,-1.3773,-1.2427,-1.2035,-1.3548,-1.1982,-1.0945,-1.3426,-1.1592,-0.9864,-1.0891,-0.9919,-0.8865,-0.8824,-0.9734,-1.0381,-1.0381,-1.1287,-1.2116,-1.2615,-1.2615,-1.2245,-1.121,-1.1109,-1.0515,-0.8995,-0.8885,-0.8885,-0.8885,-1.0296,-1.1592,-1.2615,-1.4019,-1.5251,-1.6287,-1.5156,-1.4556,-1.4609,-1.5144,-1.4556,-1.3048,-1.321,-1.2398,-1.0891,-1.1483,-1.0945,-0.9644,-1.0672,-1.0241,-0.8885,-0.8885,-0.8885,-0.8885,-0.8885,-0.8885,-0.8885,-1.7248,-1.8052,-1.8512,-1.8512,-1.9941,-2.0716,-1.9674,-2.0358,-2.0762,-2.0294,-2.0134,-1.9641,-1.857,-1.901,-1.8765,-1.7149,-1.6737,-1.609,-1.5011,-1.6016,-1.6542,-1.6229,-1.6313,-1.6787,-1.7716,-1.7649,-1.7582,-1.7582,-1.7582,-1.7341,-1.6887,-1.7112,-1.6951,-1.646,-1.662,-1.64,-1.5985,-1.65,-1.64,-1.5934,-1.5884,-1.5834,-1.5808,-1.5033,-1.5134,-1.563,-1.558,-1.5939,-1.6473,-1.6647,-1.67,-1.6727,-1.6847,-1.6874,-1.6901,-1.7021,-1.7181,-1.7367,-1.7367,-1.7501,-1.7041,-1.4716,-1.3048,-1.2191,-1.3102,-1.1,-0.9754,-1.267,-1.0945,-0.9375,-1.0836,-1.0351,-0.9588,-0.8989,-1.0617,-1.1538,-1.0406,-1.1483,-1.2408,-1.2408,-1.2408,-1.2082,-1.1219,-1.1109,-1.0515,-0.8995,-0.8885,-0.8885,-0.8885,-1.0296,-1.1483,-1.2408,-1.3804,-1.4984,-1.5902,-1.418,-1.3588,-1.4126,-1.4449,-1.3642,-1.1973,-1.2299,-1.1483,-0.9809,-1.0076,-0.9699,-0.8995,-0.9864,-0.9699,-0.8885,-0.8885,-0.8885,-0.8885,-0.8885,-0.8885,-0.8885,-1.5848,-1.7216,-1.8308,-1.8448,-1.9941,-2.1046,-2.0919,-2.0819,-2.0601,-2.0267,-2.0,-1.9161,-1.742,-1.8519,-1.8765,-1.7149,-1.6844,-1.6015,-1.4293,-1.4555,-1.447,-1.377,-1.4091,-1.5378,-1.7779,-1.741,-1.7252,-1.7411,-1.7411,-1.733,-1.7206,-1.7233,-1.7085,-1.674,-1.6767,-1.6163,-1.5125,-1.6314,-1.6112,-1.5023,-1.4871,-1.4718,-1.4514,-1.3151,-1.3408,-1.4429,-1.4378,-1.5202,-1.6389,-1.6515,-1.668,-1.6834,-1.7152,-1.7246,-1.7286,-1.7502,-1.7582,-1.7582,-1.7582,-1.7582,-1.7252,-1.5796,-1.4341,-1.3264,-1.3102,-1.0945,-0.9644,-1.2354,-1.0798,-0.9389,-1.0861,-1.1143,-1.0775,-0.9507,-1.1564,-1.2372,-0.9699,-1.046,-1.1265,-1.1109,-1.1109,-1.1055,-1.0945,-1.0891,-1.0359,-0.9009,-0.8892,-0.8892,-0.8898,-1.0194,-1.0945,-1.1109,-1.2398,-1.3156,-1.3318,-1.3156,-1.3804,-1.5198,-1.3911,-1.321,-1.3048,-1.1701,-1.1055,-1.0836,-0.9478,-0.8885,-0.8885,-0.8885,-0.8885,-0.8885,-0.8885,-0.8885,-0.8885,-0.8885,-0.8885,-0.8885,-1.5329,-1.6172,-1.6883,-1.8244,-1.9941,-2.0652,-1.9291,-2.0144,-2.0828,-2.0247,-2.0174,-1.9814,-1.8946,-1.9185,-1.8765,-1.7149,-1.5843,-1.4779,-1.4023,-1.5311,-1.592,-1.5569,-1.6539,-1.6879,-1.6369,-1.4959,-1.477,-1.5902,-1.5902,-1.6308,-1.7206,-1.7434,-1.738,-1.7112,-1.7288,-1.7225,-1.7016,-1.7291,-1.7225,-1.7016,-1.6964,-1.6218,-1.5182,-1.4659,-1.3904,-1.3174,-1.3174,-1.3383,-1.3832,-1.524,-1.6428,-1.7408,-1.7462,-1.7488,-1.7502,-1.7569,-1.7582,-1.7582,-1.7582,-1.7582,-1.7252,-1.5796,-1.4341,-1.2994,-1.1864,-1.0186,-0.9099,-0.9699,-0.9468,-0.9609,-1.1154,-1.156,-1.1885,-1.2562,-1.3187,-1.3302,-1.2481,-1.2615,-1.2408,-1.121,-1.1109,-1.0672,-0.9478,-0.9375,-0.9314,-0.9152,-0.9001,-0.8988,-0.9103,-0.9272,-0.9919,-1.1055,-1.1428,-1.2136,-1.3264,-1.2136,-1.2299,-1.375,-1.3426,-1.267,-1.1592,-1.1265,-1.046,-0.9375,-0.9044,-0.8885,-0.8885,-0.8885,-0.8885,-0.8885,-0.8885,-0.8885,-0.8885,-0.8885,-0.8885,-0.8885,-1.5394,-1.656,-1.7409,-1.8308,-1.9941,-2.0779,-1.9877,-2.0409,-2.0788,-2.0481,-2.0201,-1.9608,-1.8572,-1.9031,-1.8765,-1.7149,-1.5548,-1.4143,-1.3159,-1.3947,-1.4374,-1.4151,-1.5513,-1.5846,-1.4867,-1.4085,-1.4243,-1.5411,-1.5411,-1.6107,-1.7407,-1.7515,-1.7554,-1.742,-1.7515,-1.7582,-1.7582,-1.7582,-1.7582,-1.7529,-1.6817,-1.6062,-1.5293,-1.4529,-1.3731,-1.3039,-1.3039,-1.3039,-1.3166,-1.4083,-1.4931,-1.5689,-1.634,-1.6552,-1.6711,-1.7371,-1.7582,-1.7477,-1.6764,-1.6599,-1.6377,-1.495,-1.41,-1.3171,-1.1585,-1.008,-0.9286,-1.0137,-1.039,-1.0672,-1.1515,-1.2275,-1.2539,-1.175,-1.2796,-1.315,-1.166,-1.1952,-1.1835,-1.0358,-1.0191,-0.9895,-0.92,-0.915,-0.9184,-0.9316,-0.9191,-0.9184,-0.9316,-0.9191,-0.9483,-1.0265,-1.0314,-1.0611,-1.1347,-1.058,-1.054,-1.121,-1.121,-1.0781,-1.0021,-1.0021,-0.9688,-0.9035,-0.8967,-0.8981,-0.9035,-0.8967,-0.8885,-0.8885,-0.8885,-0.8885,-0.8885,-0.8885,-0.8885,-0.8885,-1.5978,-1.7538,-1.8576,-1.8896,-2.0132,-2.1109,-2.1109,-2.0909,-2.0735,-2.0681,-2.0214,-1.9363,-1.7961,-1.8757,-1.8881,-1.7501,-1.5961,-1.4421,-1.3108,-1.3048,-1.2958,-1.275,-1.4323,-1.4874,-1.4159,-1.4295,-1.4723,-1.5411,-1.5458,-1.6217,-1.7582,-1.7582,-1.7582,-1.7582,-1.7582,-1.7582,-1.7582,-1.7582,-1.7582,-1.7477,-1.6274,-1.5476,-1.4931,-1.375,-1.2994,-1.2571,-1.2571,-1.2724,-1.294,-1.294,-1.3102,-1.348,-1.4663,-1.5037,-1.5263,-1.6562,-1.7027,-1.6948,-1.5851,-1.579,-1.5834,-1.4757,-1.4407,-1.3948,-1.2505,-1.1053,-1.0462,-1.192,-1.2201,-1.2228,-1.2228,-1.3222,-1.3174,-1.0628,-1.1989,-1.2545,-1.0127,-1.0452,-1.0529,-0.9362,-0.9248,-0.9303,-0.9367,-0.9381,-0.9395,-0.9415,-0.9395,-0.9395,-0.9415,-0.9395,-0.9381,-0.9381,-0.9381,-0.932,-0.9248,-0.9248,-0.913,-0.8959,-0.8959,-0.9001,-0.8974,-0.9001,-0.9076,-0.9241,-0.9035,-0.9055,-0.9234,-0.9035,-0.8988,-0.8959,-0.8959,-0.8946,-0.8974,-0.8974,-0.8974,-0.8981,-1.7795,-1.8308,-1.896,-2.0462,-2.0919,-2.1109,-2.1109,-2.1082,-2.0962,-2.0708,-2.0388,-1.996,-1.9516,-1.9415,-1.9301,-1.9068,-1.763,-1.655,-1.6374,-1.6374,-1.6202,-1.5896,-1.7399,-1.7547,-1.5972,-1.5786,-1.5542,-1.5411,-1.57,-1.6456,-1.7582,-1.7582,-1.7582,-1.7582,-1.7582,-1.7582,-1.7582,-1.7582,-1.7582,-1.7582,-1.7371,-1.5796,-1.3534,-1.3372,-1.1701,-0.9478,-0.9478,-1.0296,-1.1374,-1.1374,-1.2245,-1.3318,-1.3534,-1.3588,-1.363,-1.3936,-1.4831,-1.5731,-1.5963,-1.6857,-1.7723,-1.7793,-1.6913,-1.5952,-1.5795,-1.4582,-1.3485,-1.3742,-1.3911,-1.4051,-1.4051,-1.4318,-1.433,-1.3664,-1.2821,-1.2011,-1.1331,-1.0328,-0.9578,-0.9405,-0.9347,-0.9361,-0.9381,-0.9381,-0.9435,-0.9571,-0.9456,-0.9442,-0.9571,-0.9456,-0.9381,-0.9381,-0.9381,-0.9367,-0.9354,-0.9347,-0.934,-0.932,-0.932,-0.9252,-0.9187,-0.9259,-0.9334,-0.934,-0.9248,-0.9268,-0.934,-0.9241,-0.9205,-0.932,-0.932,-0.9239,-0.918,-0.918,-0.918,-0.92,-1.961,-1.9941,-2.0195,-2.0982,-2.1109,-2.1109,-2.1109,-2.1109,-2.1069,-2.0935,-2.0521,-2.0127,-2.0054,-1.9639,-1.943,-1.943,-1.7923,-1.702,-1.702,-1.702,-1.6915,-1.6797,-1.834,-1.8739,-1.7748,-1.783,-1.7639,-1.714,-1.6115,-1.6291,-1.7582,-1.7582,-1.7582,-1.7582,-1.6764,-1.6817,-1.7529,-1.6711,-1.6829,-1.7582,-1.7582,-1.634,-1.4449,-1.4449,-1.267,-1.0021,-0.921,-0.932,-0.9864,-0.9864,-1.0296,-1.1017,-1.1872,-1.2183,-1.2386,-1.3318,-1.3988,-1.4335,-1.3702,-1.4689,-1.5931,-1.6159,-1.6458,-1.6944,-1.7898,-1.6888,-1.5745,-1.5745,-1.5078,-1.4516,-1.4516,-1.3817,-1.2901,-1.192,-1.1204,-1.0703,-1.0569,-0.9964,-0.951,-0.951,-0.951,-0.9537,-0.9618,-0.9625,-0.9652,-0.972,-0.9666,-0.9652,-0.9727,-0.9666,-0.9625,-0.9625,-0.9625,-0.9591,-0.951,-0.951,-0.9462,-0.9381,-0.9469,-0.9429,-0.9344,-0.9347,-0.9429,-0.9503,-0.9347,-0.9367,-0.9496,-0.9347,-0.932,-0.9381,-0.9381,-0.934,-0.9337,-0.9337,-0.9337,-0.935]},{"header":{"parameterUnit":"m.s-1","parameterCategory":1,"la1":30.6,"la2":28.766,"lo1":-90.7593,"lo2":-88.6598,"dy":0.0162,"dx":0.0183,"nx":116,"ny":114,"refTime":"2023-10-10T00:00:00:Z","depth":0,"parameterNumber":3,"parameterNumberName":"V-component_of_WINDS"},"data":[0.0,0.0,0.0,0.0,0.0,0.0,0.0,0.0,0.0,0.0,0.0,0.0,0.0,0.0,0.0,0.0,0.0,0.0,0.0,0.0,0.0,0.0,0.0,0.0,0.0,0.0,0.0,0.0,0.0,0.0,0.0,0.0,0.0,0.0,0.0,0.0,0.0,0.0,0.0,0.0,0.0,0.0,0.0,0.0,0.0,0.0,0.0,0.0,0.0,0.0,0.0,0.0,0.0,0.0,0.0,0.0,0.0,0.0,0.0,0.0,0.0,0.0,0.0,0.0,0.0,0.0,0.0,0.0,0.0,0.0,0.0,0.0,0.0,0.0,0.0,0.0,0.0,0.0,0.0,0.0,0.0,0.0,0.0,0.0,0.0,0.0,0.0,0.0,0.0,0.0,0.0,0.0,0.0,0.0,0.0,0.0,0.0,0.0,0.0,0.0,0.0,0.0,0.0,0.0,0.0,0.0,0.0,0.0,0.0,0.0,0.0,0.0,0.0,0.0,0.0,0.0,0.0,0.0,0.0,0.0,0.0,0.0,0.0,0.0,0.0,0.0,0.0,0.0,0.0,0.0,0.0,0.0,0.0,0.0,0.0,0.0,0.0,0.0,0.0,0.0,0.0,0.0,0.0,0.0,0.0,0.0,0.0,0.0,0.0,0.0,0.0,0.0,0.0,0.0,0.0,0.0,0.0,0.0,0.0,0.0,0.0,0.0,0.0,0.0,0.0,0.0,0.0,0.0,0.0,0.0,0.0,0.0,0.0,0.0,0.0,0.0,0.0,0.0,0.0,0.0,0.0,0.0,0.0,0.0,0.0,0.0,0.0,0.0,0.0,0.0,0.0,0.0,0.0,0.0,0.0,0.0,0.0,0.0,0.0,0.0,0.0,0.0,0.0,0.0,0.0,0.0,0.0,0.0,0.0,0.0,0.0,0.0,0.0,0.0,0.0,0.0,0.0,0.0,0.0,0.0,0.0,0.0,0.0,0.0,0.0,0.0,0.0,0.0,0.0,0.0,0.0,0.0,0.0,0.0,0.0,0.0,0.0,0.0,0.0,0.0,0.0,0.0,0.0,0.0,0.0,0.0,0.0,0.0,0.0,0.0,0.0,0.0,0.0,0.0,0.0,0.0,0.0,0.0,0.0,0.0,0.0,0.0,0.0,0.0,0.0,0.0,0.0,0.0,0.0,0.0,0.0,0.0,0.0,0.0,0.0,0.0,0.0,0.0,0.0,0.0,0.0,0.0,0.0,0.0,0.0,0.0,0.0,0.0,0.0,0.0,0.0,0.0,0.0,0.0,0.0,0.0,0.0,0.0,0.0,0.0,0.0,0.0,0.0,0.0,0.0,0.0,0.0,0.0,0.0,0.0,0.0,0.0,0.0,0.0,0.0,0.0,0.0,0.0,0.0,0.0,0.0,0.0,0.0,0.0,0.0,0.0,0.0,0.0,0.0,0.0,0.0,0.0,0.0,0.0,0.0,0.0,0.0,0.0,0.0,0.0,0.0,0.0,0.0,0.0,0.0,0.0,0.0,0.0,0.0,0.0,0.0,0.0,0.0,0.0,0.0,0.0,0.0,0.0,0.0,0.0,0.0,0.0,0.0,0.0,0.0,0.0,0.0,0.0,0.0,0.0,0.0,0.0,0.0,0.0,0.0,0.0,0.0,0.0,0.0,0.0,0.0,0.0,0.0,0.0,0.0,0.0,0.0,0.0,0.0,0.0,0.0,0.0,0.0,0.0,0.0,0.0,0.0,0.0,0.0,0.0,0.0,0.0,0.0,0.0,0.0,0.0,0.0,0.0,0.0,0.0,0.0,0.0,0.0,0.0,0.0,0.0,0.0,0.0,0.0,0.0,0.0,0.0,0.0,0.0,0.0,0.0,0.0,0.0,0.0,0.0,0.0,0.0,0.0,0.0,0.0,0.0,0.0,0.0,0.0,0.0,0.0,0.0,0.0,0.0,0.0,0.0,0.0,0.0,0.0,0.0,0.0,0.0,0.0,0.0,0.0,0.0,0.0,0.0,0.0,0.0,0.0,0.0,0.0,0.0,0.0,0.0,0.0,0.0,0.0,0.0,0.0,0.0,0.0,0.0,0.0,0.0,0.0,0.0,0.0,0.0,0.0,0.0,0.0,0.0,0.0,0.0,0.0,0.0,0.0,0.0,0.0,0.0,0.0,0.0,0.0,0.0,0.0,0.0,0.0,0.0,0.0,0.0,0.0,0.0,0.0,0.0,0.0,0.0,0.0,0.0,0.0,0.0,0.0,0.0,0.0,0.0,0.0,0.0,0.0,0.0,0.0,0.0,0.0,0.0,0.0,0.0,0.0,0.0,0.0,0.0,0.0,0.0,0.0,0.0,0.0,0.0,0.0,0.0,0.0,0.0,0.0,0.0,0.0,0.0,0.0,0.0,0.0,0.0,0.0,0.0,0.0,0.0,0.0,0.0,0.0,0.0,0.0,0.0,0.0,0.0,0.0,0.0,0.0,0.0,0.0,0.0,0.0,0.0,0.0,0.0,0.0,0.0,0.0,0.0,0.0,0.0,0.0,0.0,0.0,0.0,0.0,0.0,0.0,0.0,0.0,0.0,0.0,0.0,0.0,0.0,0.0,0.0,0.0,0.0,0.0,0.0,0.0,0.0,0.0,0.0,0.0,0.0,0.0,0.0,0.0,0.0,0.0,0.0,0.0,0.0,0.0,0.0,0.0,0.0,0.0,0.0,0.0,0.0,0.0,0.0,0.0,0.0,0.0,0.0,0.0,0.0,0.0,0.0,0.0,0.0,0.0,0.0,0.0,0.0,0.0,0.0,0.0,0.0,0.0,0.0,0.0,0.0,0.0,0.0,0.0,0.0,0.0,0.0,0.0,0.0,0.0,0.0,0.0,0.0,0.0,0.0,0.0,0.0,0.0,0.0,0.0,0.0,0.0,0.0,0.0,0.0,0.0,0.0,0.0,0.0,0.0,0.0,0.0,0.0,0.0,0.0,0.0,0.0,0.0,0.0,0.0,0.0,0.0,0.0,0.0,0.0,0.0,0.0,0.0,0.0,0.0,0.0,0.0,0.0,0.0,0.0,0.0,0.0,0.0,0.0,0.0,0.0,0.0,0.0,0.0,0.0,0.0,0.0,0.0,0.0,0.0,0.0,0.0,0.0,0.0,0.0,0.0,0.0,0.0,0.0,0.0,0.0,0.0,0.0,0.0,0.0,0.0,0.0,0.0,0.0,0.0,0.0,0.0,0.0,0.0,0.0,0.0,0.0,0.0,0.0,0.0,0.0,0.0,0.0,0.0,0.0,0.0,0.0,0.0,0.0,0.0,0.0,0.0,0.0,0.0,0.0,0.0,0.0,0.0,0.0,0.0,0.0,0.0,0.0,0.0,0.0,0.0,0.0,0.0,0.0,0.0,0.0,0.0,0.0,0.0,0.0,0.0,0.0,0.0,0.0,0.0,0.0,0.0,0.0,0.0,0.0,0.0,0.0,0.0,0.0,0.0,0.0,0.0,0.0,0.0,0.0,0.0,0.0,0.0,0.0,0.0,0.0,0.0,0.0,0.0,0.0,0.0,0.0,0.0,0.0,0.0,0.0,0.0,0.0,0.0,0.0,0.0,0.0,0.0,0.0,0.0,0.0,0.0,0.0,0.0,0.0,0.0,0.0,0.0,0.0,0.0,0.0,0.0,0.0,0.0,0.0,0.0,0.0,0.0,0.0,0.0,0.0,0.0,0.0,0.0,0.0,0.0,0.0,0.0,0.0,0.0,0.0,0.0,0.0,0.0,0.0,0.0,0.0,0.0,0.0,0.0,0.0,0.0,0.0,0.0,0.0,0.0,0.0,0.0,0.0,0.0,0.0,0.0,0.0,0.0,0.0,0.0,0.0,0.0,0.0,0.0,0.0,0.0,0.0,0.0,0.0,0.0,0.0,0.0,0.0,0.0,0.0,0.0,0.0,0.0,0.0,0.0,0.0,0.0,0.0,0.0,0.0,0.0,0.0,0.0,0.0,0.0,0.0,0.0,0.0,0.0,0.0,0.0,0.0,0.0,0.0,0.0,0.0,0.0,0.0,0.0,0.0,0.0,0.0,0.0,0.0,0.0,0.0,0.0,0.0,0.0,0.0,0.0,0.0,0.0,0.0,0.0,0.0,0.0,0.0,0.0,0.0,0.0,0.0,0.0,0.0,0.0,0.0,0.0,0.0,0.0,0.0,0.0,0.0,0.0,0.0,0.0,0.0,0.0,0.0,0.0,0.0,0.0,0.0,0.0,0.0,0.0,0.0,0.0,0.0,0.0,0.0,0.0,0.0,0.0,0.0,0.0,0.0,0.0,0.0,0.0,0.0,0.0,0.0,0.0,0.0,0.0,0.0,0.0,0.0,0.0,0.0,0.0,0.0,0.0,0.0,0.0,0.0,0.0,0.0,0.0,0.0,0.0,0.0,0.0,0.0,0.0,0.0,0.0,0.0,0.0,0.0,0.0,0.0,0.0,0.0,0.0,0.0,0.0,0.0,0.0,0.0,0.0,0.0,0.0,0.0,0.0,0.0,0.0,0.0,0.0,0.0,0.0,0.0,0.0,0.0,0.0,0.0,0.0,0.0,0.0,0.0,0.0,0.0,0.0,0.0,0.0,0.0,0.0,0.0,0.0,0.0,0.0,0.0,0.0,0.0,0.0,0.0,0.0,0.0,0.0,0.0,0.0,0.0,0.0,0.0,0.0,0.0,0.0,0.0,0.0,0.0,0.0,0.0,0.0,0.0,0.0,0.0,0.0,0.0,0.0,0.0,0.0,0.0,0.0,0.0,0.0,0.0,0.0,0.0,0.0,0.0,0.0,0.0,0.0,0.0,0.0,0.0,0.0,0.0,0.0,0.0,0.0,0.0,0.0,0.0,0.0,0.0,0.0,0.0,0.0,0.0,0.0,0.0,0.0,0.0,0.0,0.0,0.0,0.0,0.0,0.0,0.0,0.0,0.0,0.0,0.0,0.0,0.0,0.0,0.0,0.0,0.0,0.0,0.0,0.0,0.0,0.0,0.0,0.0,0.0,0.0,0.0,0.0,0.0,0.0,0.0,0.0,0.0,0.0,0.0,0.0,0.0,0.0,0.0,0.0,0.0,0.0,0.0,0.0,0.0,0.0,0.0,0.0,0.0,0.0,0.0,0.0,0.0,0.0,0.0,0.0,0.0,0.0,0.0,0.0,0.0,0.0,0.0,0.0,0.0,0.0,0.0,0.0,0.0,0.0,0.0,0.0,0.0,0.0,0.0,0.0,0.0,0.0,0.0,0.0,0.0,0.0,0.0,0.0,0.0,0.0,0.0,0.0,0.0,0.0,0.0,0.0,0.0,0.0,0.0,0.0,0.0,0.0,0.0,0.0,0.0,0.0,0.0,0.0,0.0,0.0,0.0,0.0,0.0,0.0,0.0,0.0,0.0,0.0,0.0,0.0,0.0,0.0,0.0,0.0,0.0,0.0,0.0,0.0,0.0,0.0,0.0,0.0,0.0,0.0,0.0,0.0,0.0,0.0,0.0,0.0,0.0,0.0,0.0,0.0,0.0,0.0,0.0,0.0,0.0,0.0,0.0,0.0,0.0,0.0,0.0,0.0,0.0,0.0,0.0,0.0,0.0,0.0,0.0,0.0,0.0,0.0,0.0,0.0,0.0,0.0,0.0,0.0,0.0,0.0,0.0,0.0,0.0,0.0,0.0,0.0,0.0,0.0,0.0,0.0,0.0,0.0,0.0,0.0,0.0,0.0,0.0,0.0,0.0,0.0,0.0,0.0,0.0,0.0,0.0,0.0,0.0,0.0,0.0,0.0,0.0,0.0,0.0,0.0,0.0,0.0,0.0,0.0,0.0,0.0,0.0,0.0,0.0,0.0,0.0,0.0,0.0,0.0,0.0,0.0,0.0,0.0,0.0,0.0,0.0,0.0,0.0,0.0,0.0,0.0,0.0,0.0,0.0,0.0,0.0,0.0,0.0,0.0,0.0,0.0,0.0,0.0,0.0,0.0,0.0,0.0,0.0,0.0,0.0,0.0,0.0,0.0,0.0,0.0,0.0,0.0,0.0,0.0,0.0,0.0,0.0,0.0,0.0,0.0,0.3213,0.0,0.0,0.0,0.0,0.0,0.0,0.0,0.0,0.0,0.0,0.0,0.0,0.0,0.0,0.0,0.0,0.0,0.0,0.0,0.0,0.0,0.0,0.0,0.0,0.0,0.0,0.0,0.0,0.0,0.0,0.0,0.0,0.0,0.0,0.0,0.0,0.0,0.0,0.0,2.2641,2.2599,2.205,2.2628,2.1592,1.9243,0.0,0.0,0.0,0.0,0.0,0.0,0.0,0.0,0.0,0.0,0.0,0.0,0.0,0.0,0.0,0.0,0.0,0.0,0.0,0.0,0.0,0.0,0.0,0.0,0.0,0.0,0.0,0.0,0.0,0.0,0.0,0.0,0.0,0.0,0.0,0.0,0.0,0.0,0.0,0.0,0.0,0.0,0.0,0.0,0.0,0.0,0.0,0.0,0.0,0.0,0.0,0.0,0.0,0.0,0.0,0.0,0.0,0.0,0.0,0.0,0.0,0.0,0.0,0.0,0.0,0.0,0.0,0.0,0.0,0.0,0.0,0.3896,0.0,0.0,0.0,0.0,0.0,0.0,0.0,0.0,0.0,0.0,0.0,0.0,0.0,0.0,0.0,0.0,0.0,0.0,0.0,0.0,0.0,0.0,0.0,0.0,0.0,0.0,0.0,0.0,0.0,0.0,0.0,0.0,0.0,0.0,0.0,2.0792,2.2124,2.413,2.3923,2.4525,2.5852,2.6881,2.548,2.2157,2.1191,0.0,0.0,0.0,0.0,0.0,0.0,0.0,0.0,0.0,0.0,0.0,0.0,0.0,0.0,0.0,0.0,0.0,0.0,0.0,0.0,0.0,0.0,0.0,0.0,0.0,0.0,0.0,0.0,0.0,0.0,0.0,0.0,0.0,0.0,0.0,0.0,0.0,0.0,0.0,0.0,0.0,0.0,0.0,0.0,0.0,0.0,0.0,0.0,0.0,0.0,0.0,0.0,0.0,0.0,0.0,0.0,0.0,0.0,0.0,0.0,0.0,0.0,0.0,0.7724,0.7879,0.7678,0.7706,0.7645,0.7495,0.6183,0.5472,0.5174,0.4871,0.0,0.0,0.0,0.0,0.0,0.0,0.0,0.0,0.0,0.0,0.0,0.0,0.0,0.0,0.0,0.0,0.0,0.0,0.0,0.0,0.0,0.0,2.5018,2.5768,2.5329,0.0,0.0,0.0,0.0,0.0,0.0,0.0,2.127,2.2272,2.3396,2.4675,2.6063,2.7297,2.8413,2.9099,2.9098,2.8449,2.4935,2.4212,2.537,0.0,0.0,0.0,0.0,0.0,0.0,0.0,0.0,0.0,0.0,0.0,0.0,0.0,0.0,0.0,0.0,0.0,0.0,0.0,0.0,0.0,0.0,0.0,0.0,0.0,0.0,0.0,0.0,0.0,0.0,0.0,0.0,0.0,0.0,0.0,0.0,0.0,0.0,0.0,0.0,0.0,1.2131,1.2131,0.0,0.0,0.0,0.0,0.0,0.0,0.0,0.0,0.0,0.0,0.0,0.0,0.0,1.008,0.8914,1.0586,1.0128,0.7543,0.9409,0.9458,0.7934,0.8119,0.8224,0.814,0.7776,0.0,0.6374,0.5308,0.0,0.0,0.0,0.0,0.0,0.0,0.0,0.0,0.0,0.0,0.0,0.0,0.0,0.0,0.0,0.0,0.0,0.0,0.0,0.0,0.0,2.673,2.7803,2.8591,2.8758,2.7968,0.0,0.0,0.0,0.0,0.0,2.1749,2.2724,2.336,2.5128,2.8108,3.1057,3.2382,3.2252,3.3397,3.3468,3.2466,3.0417,2.8586,2.6909,2.4338,0.0,0.0,0.0,0.0,0.0,0.0,0.0,0.0,0.0,0.0,0.0,0.0,0.0,0.0,0.0,0.0,0.0,0.0,0.0,0.0,0.0,0.0,0.0,0.0,0.0,0.0,0.0,0.0,0.0,0.0,0.0,0.0,0.0,0.0,0.0,0.0,0.0,0.0,0.0,1.2398,1.2812,1.2144,1.2625,1.2744,0.0,0.0,0.0,0.0,0.0,0.0,0.0,0.0,0.0,1.0599,1.1438,1.1631,1.103,1.207,1.1953,1.0665,1.1689,1.1767,1.0984,1.1072,1.064,0.9853,0.9768,0.8975,0.7651,0.6573,0.6155,0.6107,0.0,0.0,0.0,0.0,0.4101,0.383,0.0,0.0,0.0,0.0,0.0,0.0,0.0,0.0,0.0,0.0,0.0,0.0,2.7542,2.9155,3.0627,3.2021,3.2014,3.1039,2.8938,0.0,0.0,0.0,0.0,2.2815,2.4132,2.5585,2.8281,3.2144,3.5345,3.6469,3.568,3.6864,3.6657,3.5302,3.4538,3.2444,2.9278,2.6795,2.5031,2.3863,0.0,0.0,0.0,0.0,0.0,0.0,0.0,0.0,0.0,0.0,0.0,0.0,0.0,0.0,0.0,0.0,0.0,0.0,0.0,0.0,0.0,0.0,0.0,0.0,0.0,0.0,0.0,0.0,0.0,0.0,0.0,0.0,0.0,0.0,0.0,0.0,0.0,1.3053,1.3347,1.2261,1.3093,1.336,0.0,0.0,0.0,0.0,0.0,0.0,1.1587,1.2137,1.2538,1.2689,1.3359,1.3568,1.3171,1.3846,1.3804,1.3065,1.3612,1.3642,1.3318,1.3318,1.2724,1.1647,1.1593,1.0794,0.9442,0.7914,0.7068,0.6709,0.6329,0.5752,0.5132,0.5035,0.5018,0.5047,0.0,0.0,0.0,0.0,0.0,0.0,0.0,0.0,0.0,0.0,0.0,2.6211,3.0744,3.1832,3.3553,3.6756,3.4827,3.3065,3.2318,2.8704,2.6006,2.4655,2.3952,2.418,2.5383,3.0026,3.3659,3.6097,3.7453,3.8048,3.7938,3.8023,3.7667,3.6944,3.5882,3.5027,3.4084,3.0313,2.8625,2.8325,2.5727,0.0,0.0,0.0,0.0,0.0,0.0,0.0,0.0,0.0,0.0,0.0,0.0,0.0,0.0,0.0,0.0,0.0,0.0,0.0,0.0,0.0,0.0,0.0,0.0,0.0,0.0,0.0,0.0,0.0,0.0,0.0,0.0,0.0,0.0,0.0,0.0,0.0,0.0,1.2851,1.4229,0.0,0.0,0.0,0.0,1.3973,1.3536,1.3264,1.3085,1.4076,1.4714,1.4829,1.6445,1.6687,1.5288,1.6673,1.5997,1.3298,1.4652,1.4609,1.3318,1.3318,1.3264,1.3146,1.283,1.2601,1.2128,0.9037,0.7597,0.7323,0.6837,0.658,0.6404,0.6397,0.6183,0.5918,0.0,0.0,0.0,0.0,0.0,0.0,0.0,0.0,0.0,2.4492,2.6474,2.8925,3.184,3.4607,3.7104,3.9134,3.7506,3.557,3.3605,3.0162,2.7815,2.6933,2.6447,2.7506,3.0332,3.4085,3.6646,3.8072,3.9646,3.9829,3.8684,3.9048,3.7908,3.5564,3.5896,3.5526,3.453,3.2491,3.0783,2.9327,2.762,2.5803,0.0,0.0,0.0,0.0,0.0,0.0,0.0,0.0,0.0,0.0,0.0,0.0,0.0,0.0,0.0,0.0,0.0,0.0,0.0,0.0,0.0,0.0,0.0,0.0,0.0,0.0,0.0,0.0,0.0,0.0,0.0,0.0,0.0,0.0,0.0,0.0,0.0,1.4258,1.5276,0.0,1.4442,1.4629,1.4923,1.519,1.5408,1.5696,1.6021,1.6549,1.6962,1.7247,1.7463,1.741,1.7111,1.741,1.7094,1.6074,1.6605,1.6552,1.6074,1.6074,1.553,1.4652,1.4353,1.3676,1.2613,1.1203,0.9947,0.8909,0.842,0.7668,0.6878,0.6688,0.6552,0.6524,0.0,0.0,0.0,0.0,0.0,0.0,0.0,0.0,0.0,2.5435,2.8128,3.1061,3.4173,3.7225,3.9569,4.0778,3.8885,3.6654,3.4271,3.0991,2.8998,2.8769,2.9276,3.0895,3.3662,3.6715,3.8652,3.9475,4.1094,4.0879,3.8919,3.9357,3.8004,3.5258,3.5793,3.5731,3.5203,3.4299,3.2516,3.0231,2.9126,2.767,2.6004,0.0,0.0,0.0,0.0,0.0,0.0,0.0,0.0,0.0,0.0,0.0,0.0,0.0,0.0,0.0,0.0,0.0,0.0,0.0,0.0,0.0,0.0,0.0,0.0,0.0,0.0,0.0,0.0,0.0,0.0,0.0,0.0,0.0,0.0,0.0,1.6043,1.5847,1.6347,1.6415,1.5531,1.5765,1.6166,1.6504,1.7034,1.7475,1.7862,1.8183,1.8288,1.8343,1.805,1.7889,1.7889,1.7689,1.7582,1.7582,1.7582,1.7582,1.7582,1.7582,1.7042,1.5968,1.5698,1.4962,1.3975,1.3563,1.2516,1.1096,1.0232,0.9078,0.7878,0.7613,0.7197,0.6868,0.0,0.0,0.0,0.0,0.0,0.0,0.0,0.0,2.456,2.7225,2.9295,3.2557,3.7764,3.9589,4.0795,4.172,3.8813,3.6237,3.4509,3.1054,2.9396,3.0174,3.2399,3.4053,3.5043,3.7984,3.9798,4.0427,4.1782,4.1154,3.8755,3.8906,3.802,3.6218,3.5709,3.583,3.6355,3.578,3.3997,3.1411,3.0306,2.9503,2.8687,0.0,0.0,0.0,0.0,0.0,0.0,0.0,0.0,0.0,0.0,0.0,0.0,0.0,0.0,0.0,0.0,0.0,0.0,0.0,0.0,0.0,0.0,0.0,0.0,0.0,0.0,0.0,0.0,0.0,0.0,0.0,0.0,0.0,1.7708,1.8061,1.8174,1.7629,1.7598,1.7351,1.6505,1.7368,1.7995,1.8022,1.8343,1.8504,1.8517,1.8771,1.8595,1.8035,1.833,1.8183,1.7609,1.7582,1.7582,1.7582,1.7582,1.7582,1.7582,1.7582,1.7474,1.7192,1.6834,1.654,1.6246,1.5952,1.5092,1.3789,1.2199,1.0707,0.954,0.9261,0.826,0.7133,0.0,0.0,0.0,0.0,0.0,0.0,0.0,0.0,2.4841,2.6645,2.9834,3.3245,3.6626,3.9469,4.1092,4.1082,3.7955,3.5464,3.4176,3.0566,2.9591,3.2155,3.4685,3.6934,3.8862,4.0674,4.1452,4.1115,4.2432,4.1213,3.7662,3.8199,3.7015,3.4564,3.4836,3.5207,3.578,3.6031,3.5454,3.4179,3.2315,3.0984,2.9916,0.0,0.0,0.0,0.0,0.0,0.0,0.0,0.0,0.0,0.0,0.0,0.0,0.0,0.0,0.0,0.0,0.0,0.0,0.0,0.0,0.0,0.0,0.0,0.0,0.0,0.0,0.0,0.0,0.0,0.0,0.0,0.0,2.1789,2.0269,1.9876,2.0069,2.0865,1.98,1.9057,1.9028,1.8422,1.8169,1.8595,1.8758,1.8891,1.9118,1.8798,1.8624,1.8621,1.813,1.7862,1.7862,1.7702,1.7582,1.7582,1.7582,1.7582,1.7582,1.7582,1.7474,1.7192,1.6834,1.654,1.6246,1.5952,1.5463,1.482,1.332,1.1932,1.0729,1.0362,1.0211,1.0243,0.0,0.0,0.0,0.0,0.0,0.0,0.0,0.0,2.4976,2.752,3.0582,3.3844,3.7345,3.929,4.0022,3.9139,3.6059,3.3457,3.1654,2.9996,3.0272,3.2814,3.5068,3.6798,3.7986,3.9198,3.9596,3.9218,4.0485,3.941,3.6185,3.7298,3.6532,3.4274,3.4781,3.5207,3.5533,3.6132,3.6031,3.5357,3.3828,3.2893,3.2114,2.998,2.9101,2.8825,2.7469,2.7268,2.7444,2.6264,0.0,0.0,0.0,0.0,0.0,0.0,0.0,0.0,0.0,0.0,0.0,0.0,0.0,0.0,0.0,0.0,0.0,0.0,0.0,0.0,0.0,0.0,0.0,0.0,2.2793,2.397,2.3839,2.2934,2.2577,2.3324,2.2123,2.1274,2.1478,2.0822,2.0626,2.1198,2.1053,2.0843,2.0598,1.9977,1.9389,1.8918,1.8183,1.7862,1.7995,1.7742,1.7582,1.7582,1.7582,1.7582,1.7582,1.7582,1.7474,1.7192,1.6834,1.654,1.6246,1.5952,1.5658,0.0,0.0,0.0,0.0,0.0,1.1004,1.1467,0.0,0.0,0.0,0.0,0.0,0.0,0.0,0.0,2.5107,2.8992,3.118,3.4053,3.8392,3.8774,3.8055,3.6381,3.3805,3.1134,2.8547,2.9762,3.1261,3.2765,3.4359,3.5152,3.5003,3.598,3.6488,3.6405,3.7675,3.7137,3.4929,3.6541,3.6378,3.4781,3.5282,3.5533,3.5633,3.6157,3.6175,3.5718,3.5072,3.4731,3.4379,3.1788,3.1085,3.1286,2.964,2.8838,2.8473,2.7795,0.0,0.0,0.0,0.0,0.0,0.0,0.0,0.0,0.0,0.0,0.0,0.0,0.0,0.0,0.0,0.0,0.0,0.0,0.0,0.0,0.0,0.0,0.0,0.0,2.4297,2.5352,2.7434,2.6337,2.5365,2.531,2.4296,2.357,2.362,2.3684,2.3921,2.4398,2.4059,2.3392,2.2452,0.0,0.0,0.0,0.0,1.8468,1.8468,1.8206,1.7989,1.7845,1.7845,1.774,1.7582,1.7582,1.7474,1.7192,1.6834,1.654,1.6246,1.5952,1.5678,1.5494,1.512,1.4135,1.2782,1.1467,1.1297,1.169,0.0,0.0,0.0,0.0,0.0,0.0,0.0,0.0,2.5343,2.8415,3.0492,3.2647,3.516,3.6373,3.6172,3.4205,3.2635,3.1269,3.0198,3.1124,3.2237,3.3542,3.4419,3.5494,3.6674,3.7841,3.8173,3.7662,3.8946,3.832,3.5989,3.6867,3.6586,3.5332,3.5458,3.578,3.6207,3.6355,3.6866,3.7469,3.5948,3.5082,3.448,3.2616,3.1964,3.1888,3.0708,3.0783,3.121,2.9779,2.9528,2.9528,2.7846,0.0,0.0,0.0,0.0,0.0,0.0,0.0,0.0,0.0,0.0,0.0,0.0,0.0,0.0,0.0,0.0,0.0,0.0,0.0,0.0,2.4082,2.5254,2.6387,2.7552,2.766,2.7521,2.7193,2.5721,2.4791,2.4987,2.4051,2.3596,2.3904,2.3855,2.3687,2.3528,2.3139,2.2802,2.2528,2.1857,2.149,2.149,2.1123,2.0333,1.9213,0.0,0.0,1.7582,1.7582,1.7474,1.7192,1.6834,1.654,1.6246,1.5952,1.6008,1.6271,1.5062,1.4286,1.3809,1.3544,1.32,1.2883,0.0,0.0,0.0,0.0,0.0,0.0,0.0,0.0,2.5102,2.81,2.9422,3.0821,3.2796,3.3171,3.2658,3.1002,2.9542,2.8995,2.9705,3.0471,3.1654,3.3395,3.3756,3.4464,3.5521,3.6145,3.6435,3.6349,3.7263,3.7108,3.5917,3.6856,3.679,3.5956,3.6232,3.6207,3.6003,3.6908,3.743,3.7614,3.6767,3.6058,3.544,3.3687,3.2893,3.2566,3.2039,3.2014,3.2089,3.1286,3.0834,3.0342,2.8913,2.7221,2.5605,0.0,0.0,0.0,0.0,0.0,0.0,0.0,0.0,0.0,0.0,0.0,0.0,0.0,0.0,2.168,0.0,0.0,2.4153,2.5508,2.6465,2.7246,2.7891,2.7988,2.7988,2.7988,2.7175,2.6695,2.683,2.626,2.5973,2.6316,2.6172,2.5806,2.528,2.4798,2.4145,2.3348,2.2636,2.2272,2.222,2.1892,2.1355,2.0641,2.0641,2.0282,1.9664,1.9664,1.9589,1.9394,1.89,1.86,1.839,1.7474,1.7249,1.7407,1.6314,1.5819,1.5628,1.5103,1.4808,1.4569,0.0,0.0,0.0,0.0,0.0,0.0,0.0,0.0,0.0,2.7493,2.8072,2.8816,3.0374,2.9987,2.9145,2.794,2.7172,2.739,2.8963,3.0023,3.1327,3.3036,3.3111,3.3345,3.3897,3.3997,3.4324,3.4876,3.5382,3.5658,3.5683,3.6709,3.6983,3.6581,3.7111,3.6978,3.6451,3.7854,3.8424,3.8307,3.8069,3.7517,3.6657,3.501,3.3839,3.3043,3.286,3.2315,3.1738,3.1738,3.1085,3.0116,2.9352,2.7679,2.5973,2.5344,2.369,0.0,0.0,0.0,0.0,0.0,0.0,0.0,0.0,0.0,2.3558,2.2413,2.2643,2.3212,2.3912,2.4531,2.541,2.6894,2.7441,2.7793,2.8125,2.7871,2.7806,2.8008,2.8125,2.8164,2.8164,2.8242,2.8437,2.8769,2.8476,2.7933,2.7032,2.6479,2.5523,2.4227,2.3614,2.3237,2.3048,2.2775,2.2434,2.2114,2.2114,2.1963,2.1693,2.1693,2.1693,2.166,2.0932,2.0535,2.032,1.9034,1.8652,1.8741,1.802,1.7897,1.788,1.6509,1.615,1.6097,0.0,0.0,0.0,0.0,0.0,0.0,0.0,0.0,0.0,2.5708,2.6441,2.6901,2.7111,2.7573,2.7448,2.6352,2.8552,2.9882,2.9719,3.1965,3.3193,3.3086,3.3111,3.3345,3.3897,3.4374,3.4856,3.5408,3.6006,3.6329,3.6329,3.6933,3.7161,3.7111,3.7663,3.8472,3.9417,3.9612,4.0604,4.1924,4.0856,3.9467,3.7868,3.67,3.4926,3.2986,3.1938,3.0934,3.0055,3.0055,2.9628,2.9139,2.9578,2.8513,2.7014,2.6462,0.0,2.3114,2.3715,2.3174,2.2581,2.3176,2.2942,2.3512,0.0,0.0,2.5939,2.5737,2.6372,2.6542,2.5196,2.5918,2.6914,2.75,2.7689,2.7728,2.7787,2.7748,2.7539,2.7187,2.75,2.7787,2.7787,2.8066,2.832,2.8359,2.832,2.8247,2.8145,2.8048,2.7936,2.7722,2.7333,2.691,2.6474,2.6052,2.5083,2.3484,2.3484,2.2868,2.1693,2.1693,2.1693,2.166,2.0932,2.0254,1.9579,1.919,1.9607,2.0346,1.9621,1.9928,2.0493,1.8019,1.699,1.6785,0.0,0.0,0.0,0.0,0.0,0.0,0.0,0.0,0.0,0.0,0.0,2.5465,2.5465,2.5345,2.5072,2.4529,2.6824,2.8439,2.8811,3.1029,3.2724,3.3539,3.3872,3.4299,3.4806,3.5403,3.578,3.6006,3.6304,3.6581,3.6908,3.7412,3.7663,3.7688,3.8266,3.8589,3.8868,4.0341,4.1141,4.1474,4.0963,3.9751,3.7965,3.5808,3.3386,3.116,3.0984,3.003,0.0,0.0,2.8172,2.8021,2.8247,2.7238,2.596,2.5965,2.4699,0.0,2.3367,2.3312,0.0,0.0,2.3487,2.4828,2.6563,2.7304,2.7525,2.714,2.7563,2.7766,2.6804,2.6816,2.7246,0.0,2.8027,2.7949,2.7748,2.7441,2.7129,2.6699,2.6816,2.7129,2.7669,2.7832,2.8027,2.8281,2.8301,2.8301,2.8301,2.8301,2.8184,2.793,2.75,2.709,2.666,2.623,2.5604,2.4873,2.4873,2.4559,2.4048,2.4048,2.3919,2.3645,2.3078,2.251,2.1943,2.1346,2.1219,2.1339,2.0753,2.0656,2.0663,1.8931,1.8451,1.8423,0.0,0.0,0.0,0.0,0.0,0.0,0.0,0.0,0.0,0.0,0.0,0.0,0.0,2.3909,2.356,2.3429,2.5466,2.7122,2.785,3.0138,3.2086,3.337,3.4123,3.4705,3.5257,3.5855,3.6329,3.6631,3.6631,3.6832,3.7186,3.7739,3.7914,3.7789,3.8391,3.8591,3.8651,4.0435,4.1005,4.0741,4.062,3.944,3.7424,3.4725,3.1914,2.9377,2.9779,2.8649,0.0,0.0,2.6515,2.644,2.6716,2.5952,2.5063,2.5667,2.4928,2.3776,2.3161,0.0,0.0,2.2498,2.3991,2.571,2.5897,2.7519,2.8831,2.8219,2.8791,2.9139,2.845,2.8259,2.8472,2.9071,2.9031,2.8668,2.8161,2.7751,2.7282,2.6794,2.6734,2.7033,2.777,2.7609,2.7715,2.8262,2.8184,2.8164,2.8281,2.8301,2.8164,2.7851,2.7422,2.6992,2.6562,2.6133,2.581,2.5693,2.5693,2.5693,2.5693,2.5693,2.5488,2.5086,2.4609,2.418,2.373,2.2988,2.25,2.2168,2.1621,2.1211,2.0859,1.9801,1.9657,1.9638,0.0,0.0,0.0,0.0,0.0,0.0,0.0,0.0,0.0,0.0,0.0,0.0,0.0,0.0,2.3563,2.3521,2.5637,2.7096,2.7385,3.0079,3.1834,3.2256,3.3345,3.4173,3.468,3.5232,3.6081,3.7161,3.7161,3.7161,3.7186,3.7739,3.7713,3.7236,3.7789,3.87,3.9823,3.9918,4.0272,4.0731,4.0237,3.8624,3.63,3.4086,3.1135,2.8147,2.8172,0.0,2.4205,2.4732,2.4531,2.428,2.531,2.5247,0.0,2.6139,2.5756,2.4707,2.3599,0.0,2.3288,2.3212,2.4147,2.5417,2.6614,2.8473,2.9862,2.9416,3.0629,3.1413,3.0158,3.07,3.1394,3.1417,3.078,2.9962,2.909,2.8844,2.846,2.7678,2.7552,2.7741,0.0,2.7462,2.7383,2.8223,2.791,2.7871,2.8262,2.8301,2.8281,2.8281,2.7871,2.7441,2.6992,2.6582,2.6152,2.5693,2.5693,2.5693,2.5693,2.5693,2.5488,2.5086,2.4609,2.418,2.375,2.3257,2.3062,2.2984,2.2187,2.1855,2.1738,2.0879,2.0293,1.9865,0.0,0.0,0.0,0.0,0.0,0.0,0.0,0.0,0.0,0.0,0.0,0.0,0.0,0.0,0.0,0.0,2.4507,2.5484,2.6306,2.8569,3.0227,3.111,3.3269,3.4349,3.4173,3.4247,3.4313,3.4337,3.3837,3.3541,3.3564,3.443,3.5189,3.5915,3.645,3.7394,3.8674,3.9144,3.9249,3.8926,3.8091,3.6775,3.5035,3.207,2.9071,2.6339,0.0,2.4305,2.2849,2.2673,2.2723,2.2949,2.3301,2.353,2.3951,2.5461,2.5181,2.4416,2.4764,0.0,2.4416,2.4075,2.5598,2.7392,2.8321,3.0033,3.132,3.1088,3.096,3.073,3.0047,2.968,2.9791,3.0797,3.1031,3.0871,3.0356,3.0531,3.0246,2.8973,2.9105,0.0,0.0,0.0,0.0,2.7917,2.8528,2.8733,2.8315,2.9144,2.9475,2.9116,2.8737,2.8337,2.7787,2.6547,2.583,2.5693,2.5693,2.5693,2.5693,2.5693,2.5488,2.5086,2.4609,2.418,2.375,2.3276,2.2812,2.2285,2.1992,2.1564,2.1016,2.0723,2.0155,1.9492,0.0,0.0,0.0,0.0,0.0,0.0,0.0,0.0,0.0,0.0,0.0,0.0,0.0,0.0,0.0,0.0,0.0,2.4366,2.5172,2.686,2.821,2.9114,3.1386,3.2491,3.2139,3.2258,3.2346,3.237,3.206,3.1786,3.1616,3.2443,3.3079,3.352,3.3848,3.455,3.5551,3.6319,3.5933,3.485,3.4589,3.3535,3.1946,2.929,2.7067,0.0,2.3627,2.2623,2.1995,2.1845,2.1795,2.1908,2.2272,2.2761,2.3472,2.4675,2.4668,2.4541,2.5608,2.5595,2.5416,2.5684,2.7106,2.8576,2.9229,3.0766,3.1865,3.1205,3.0889,3.0572,2.9989,2.9465,2.9625,3.1018,3.1296,3.1403,3.1592,3.189,3.1729,3.0744,3.0973,3.111,0.0,0.0,0.0,2.8807,2.9682,3.0066,2.9456,3.0282,3.0571,3.022,2.9648,2.9176,2.8876,2.7619,2.703,2.703,2.6572,2.662,2.703,2.703,2.6763,2.6311,2.5447,2.4821,2.4291,2.3276,2.2811,2.259,2.2311,2.183,2.1366,2.1589,2.0944,1.9985,0.0,0.0,0.0,0.0,0.0,0.0,0.0,0.0,0.0,0.0,0.0,0.0,0.0,0.0,0.0,0.0,0.0,0.0,2.404,2.5119,2.5915,2.6307,2.7921,2.8787,2.8762,2.9288,3.0088,3.1129,3.1514,3.1461,3.1012,3.1535,3.1157,3.012,3.012,3.039,3.0844,3.1551,3.0709,2.9049,2.9943,2.9131,2.732,2.5985,2.5144,2.4392,2.2297,2.1493,2.1543,2.2146,2.1839,2.1381,2.2256,2.3041,2.3653,2.3993,2.4489,2.5143,2.6256,2.6222,2.6289,2.7828,2.8586,2.9062,2.9366,3.0696,3.1413,2.9891,3.0474,3.0884,0.0,0.0,3.0934,3.1989,3.1612,3.1606,3.2836,3.2981,3.2958,0.0,0.0,0.0,0.0,0.0,0.0,3.1019,0.0,3.169,3.1493,3.1587,3.1614,3.1524,3.0628,3.0135,3.0043,2.9642,2.9396,2.9418,2.8236,2.8262,2.9396,2.9373,2.9059,2.8478,2.7013,2.6011,2.5309,2.3433,2.3199,2.3969,2.3127,2.2748,2.2801,2.3312,2.263,2.1303,0.0,0.0,0.0,0.0,0.0,0.0,0.0,0.0,0.0,0.0,0.0,0.0,0.0,0.0,0.0,0.0,0.0,0.0,2.2219,2.3238,2.3862,2.3979,2.6364,2.7519,2.7128,2.6528,2.6698,2.7579,2.5826,2.5253,2.572,2.5567,2.5865,2.6541,2.6541,2.7125,2.8156,2.7967,2.7556,2.7047,2.6426,2.5905,2.535,2.4382,2.3425,2.257,2.2242,2.1568,2.1119,0.0,0.0,0.0,2.3215,2.3824,2.4918,2.5323,2.5723,2.6214,2.6874,2.7862,2.8587,2.8251,2.9991,3.1413,3.0386,3.0561,3.0696,2.992,2.9011,2.8373,0.0,0.0,0.0,3.1436,3.2835,0.0,3.4743,3.5536,0.0,3.5533,0.0,3.5955,3.5533,3.536,0.0,0.0,3.3149,3.2199,3.1542,3.2863,3.3096,3.1833,3.202,3.1738,3.0919,2.992,2.9396,2.9396,2.9096,2.9096,2.9396,2.8992,2.8545,2.8052,2.7258,2.6644,2.6159,2.5215,2.4799,2.4706,2.4051,2.3627,2.3312,2.346,2.3067,2.2466,0.0,0.0,0.0,0.0,0.0,0.0,0.0,0.0,0.0,0.0,0.0,0.0,0.0,0.0,0.0,0.0,0.0,0.0,0.0,2.1727,2.2046,2.2046,2.3778,2.4607,2.4312,2.3631,2.3653,2.4536,2.2922,2.2442,2.3123,2.2811,2.291,2.3337,2.3337,2.3722,2.431,2.4299,2.3913,0.0,0.0,2.2635,2.2053,2.2376,2.2106,2.1649,2.2129,0.0,0.0,0.0,0.0,2.6042,2.4415,2.4789,2.5808,2.5836,0.0,2.6992,2.8312,2.9438,3.0321,3.0497,3.1641,3.2363,3.1137,3.091,3.0532,2.9001,2.8122,0.0,2.7092,0.0,0.0,0.0,0.0,0.0,3.5282,3.6282,3.6885,0.0,3.7362,0.0,3.6832,3.6556,3.6279,0.0,3.4928,3.4004,3.3266,3.4101,3.4115,3.3144,3.3064,3.2674,3.2064,3.0822,3.0463,3.1,3.0463,3.0508,3.1,3.0457,2.9895,2.9376,0.0,2.7617,2.7134,2.6124,2.569,2.5616,2.5087,2.4581,2.4217,2.4648,2.4413,2.3849,0.0,0.0,0.0,0.0,0.0,0.0,0.0,0.0,0.0,0.0,0.0,0.0,0.0,0.0,0.0,0.0,0.0,0.0,0.0,0.0,0.0,2.0591,2.1119,2.1368,2.1368,2.1064,2.1271,2.2052,2.151,2.1472,2.1859,2.1675,2.1237,2.0566,2.0566,2.039,2.0115,2.0694,2.016,1.9065,2.0151,1.9754,1.8701,0.0,0.0,0.0,0.0,0.0,0.0,0.0,2.7253,2.7584,2.5889,2.6015,2.6739,2.619,2.6702,2.791,3.0109,3.1158,3.1954,3.321,3.322,3.2632,3.1464,3.1009,3.0105,2.7494,0.0,2.7193,2.5661,2.649,2.7896,2.9428,0.0,3.2441,3.5107,3.6006,3.6832,3.7864,3.8015,3.7814,3.7337,3.6832,3.6505,3.6505,3.6455,3.6132,3.5533,3.4981,3.47,3.4625,3.3621,3.3111,3.3111,3.1996,3.2021,3.3068,3.1952,3.204,3.3086,3.239,3.1838,3.132,2.9715,2.8754,2.8219,2.6695,2.6372,2.6761,2.614,2.5637,2.5396,2.6188,2.5955,2.5263,0.0,0.0,0.0,0.0,0.0,0.0,0.0,0.0,0.0,0.0,1.8924,1.8549,0.0,0.0,0.0,0.0,0.0,0.0,0.0,0.0,0.0,0.0,2.0541,2.0842,2.0842,2.0507,2.0456,2.074,1.9824,1.947,1.9644,1.9499,1.9033,1.8353,1.8353,1.7999,1.7383,1.75,1.7409,1.7252,1.851,1.8575,1.8164,0.0,0.0,0.0,0.0,0.0,0.0,2.7155,2.8773,2.9601,2.7822,2.7847,2.8452,2.7994,2.8822,3.0151,3.1263,3.3293,3.4879,3.3789,3.39,3.3632,3.0743,2.9001,0.0,0.0,2.5302,2.5159,2.4406,2.6289,2.8197,2.8913,0.0,0.0,0.0,0.0,3.6832,0.0,0.0,0.0,0.0,0.0,0.0,0.0,0.0,3.6132,3.5533,3.4981,3.4525,3.4048,3.342,3.3111,3.3111,3.2896,3.2896,3.3111,3.2896,3.2896,3.3043,3.2014,3.1486,3.1336,3.0134,0.0,2.9408,2.82,2.8015,2.8325,2.693,2.6582,2.6856,2.6581,2.6396,2.6267,0.0,0.0,0.0,0.0,0.0,0.0,0.0,1.7772,1.8124,1.8973,1.939,1.965,1.9718,2.0052,2.0137,0.0,0.0,0.0,0.0,0.0,0.0,0.0,0.0,0.0,0.0,1.9924,1.9901,0.0,0.0,1.8712,1.8894,0.0,0.0,0.0,1.8098,1.7658,1.6637,1.7004,1.6879,1.6491,1.7615,0.0,0.0,0.0,0.0,0.0,0.0,0.0,0.0,0.0,2.8548,2.9649,2.985,3.0364,3.0815,3.0147,3.0854,3.2118,3.3608,3.5144,3.6207,3.5576,3.5065,3.3847,3.0557,0.0,0.0,0.0,2.4632,2.4625,2.4104,2.5787,0.0,0.0,0.0,0.0,0.0,0.0,0.0,0.0,0.0,0.0,0.0,0.0,0.0,0.0,0.0,3.583,3.5508,3.4751,3.4048,3.3495,3.3219,3.3111,3.3111,3.3111,3.3111,3.3111,3.3111,3.3111,3.3086,3.1913,3.1386,3.1336,3.0256,0.0,2.9754,2.9202,2.88,2.8423,2.762,2.7153,2.6851,2.66,2.6499,2.6499,0.0,0.0,0.0,0.0,0.0,0.0,0.0,1.7536,1.7852,1.8754,2.0413,2.1351,2.0971,2.0908,2.0591,0.0,0.0,0.0,0.0,0.0,0.0,0.0,0.0,0.0,0.0,0.0,0.0,0.0,0.0,0.0,0.0,0.0,0.0,0.0,0.0,0.0,0.0,1.7357,1.7127,0.0,0.0,0.0,0.0,0.0,0.0,0.0,0.0,0.0,0.0,0.0,2.7394,2.8537,3.0471,3.1669,3.2159,3.1337,3.2229,3.3874,3.5679,3.6713,3.7321,3.7218,3.5956,3.3822,3.0382,2.8798,0.0,0.0,2.4481,2.4861,2.4142,2.5398,2.673,0.0,2.8222,0.0,0.0,0.0,0.0,0.0,0.0,0.0,0.0,0.0,0.0,0.0,0.0,0.0,3.5157,3.4374,3.3646,3.3136,3.3111,3.3111,3.3111,3.3111,3.3111,3.3111,3.3111,3.3111,3.3086,3.1913,3.1386,3.1336,3.0256,0.0,0.0,2.9654,2.9076,2.8273,2.8021,2.7394,2.665,2.6524,2.6611,2.6714,0.0,0.0,0.0,0.0,0.0,0.0,0.0,1.7455,1.8398,1.9629,2.14,2.2345,2.1685,2.1517,2.0966,0.0,0.0,0.0,0.0,0.0,0.0,0.0,0.0,0.0,0.0,0.0,0.0,0.0,0.0,0.0,0.0,0.0,0.0,0.0,0.0,0.0,0.0,0.0,0.0,0.0,0.0,0.0,0.0,0.0,0.0,0.0,0.0,0.0,0.0,0.0,0.0,2.618,2.79,2.9715,3.0988,3.0135,0.0,0.0,3.6335,3.799,3.9067,3.7588,3.5956,3.3721,2.9841,0.0,0.0,2.3801,2.4718,2.5649,2.4258,2.546,2.6822,2.7233,0.0,2.969,0.0,0.0,0.0,0.0,0.0,0.0,0.0,0.0,0.0,0.0,0.0,0.0,3.4073,3.3947,3.3646,3.3136,3.3111,3.3111,3.3111,3.3111,3.3111,3.3111,3.3111,3.3111,3.3086,3.1913,3.1386,3.1336,3.0256,0.0,0.0,2.9227,2.8913,2.8712,2.7745,2.7293,2.7178,2.6675,2.6985,2.7471,0.0,0.0,0.0,0.0,0.0,0.0,1.7049,1.7422,1.8281,2.0078,2.1791,2.2648,2.2214,2.2345,2.1895,2.0465,0.0,0.0,0.0,0.0,0.0,0.0,0.0,0.0,0.0,0.0,0.0,1.989,2.0505,0.0,0.0,0.0,0.0,0.0,0.0,0.0,0.0,0.0,0.0,0.0,0.0,0.0,0.0,0.0,0.0,0.0,0.0,0.0,0.0,0.0,0.0,0.0,2.4976,2.6565,0.0,0.0,3.2693,3.5203,3.6628,3.8314,3.9295,3.7613,3.5705,3.3424,3.0279,0.0,2.6564,2.4851,2.5127,2.5545,2.4943,2.5606,2.628,2.6453,2.6697,0.0,2.9891,0.0,0.0,0.0,0.0,0.0,0.0,0.0,0.0,0.0,0.0,0.0,3.5816,3.4324,3.3888,3.4911,3.4387,3.4345,3.4952,3.4952,3.4952,3.4952,3.4952,3.4952,3.4926,3.3727,3.3194,3.3102,3.1392,0.0,0.0,3.0361,2.987,2.9197,2.9363,2.8958,2.8319,2.8079,2.8201,2.8363,0.0,0.0,0.0,0.0,0.0,1.6394,1.7108,1.7402,1.8144,1.9785,2.1515,2.2527,2.2386,2.2806,2.2644,2.1493,2.0817,0.0,0.0,0.0,0.0,0.0,0.0,0.0,0.0,0.0,2.0767,2.0943,2.1468,2.1464,0.0,0.0,0.0,0.0,0.0,0.0,0.0,0.0,0.0,0.0,0.0,0.0,0.0,0.0,0.0,0.0,0.0,0.0,0.0,0.0,0.0,0.0,0.0,0.0,0.0,0.0,3.1989,3.4299,3.5805,3.7655,3.8863,3.7537,3.5724,3.3612,0.0,0.0,2.702,2.5686,2.5741,2.5961,2.5688,2.6169,2.6604,2.652,2.6705,2.7506,2.9409,0.0,0.0,0.0,0.0,0.0,0.0,0.0,0.0,0.0,0.0,0.0,3.7302,3.5192,3.4692,3.6172,3.5521,3.548,3.6212,3.6212,3.6212,3.6212,3.6212,3.6129,3.5908,3.4886,3.4306,3.401,3.2334,0.0,0.0,3.1609,3.0913,2.9904,3.0754,3.0361,2.931,2.9536,2.9609,2.9537,0.0,0.0,0.0,0.0,0.0,0.0,1.657,1.7428,1.813,1.8559,2.0519,2.1909,2.2012,2.2655,2.3095,2.307,2.1064,0.0,0.0,0.0,0.0,0.0,0.0,0.0,0.0,0.0,2.0968,2.1468,2.202,2.2297,2.2268,2.2268,2.1719,0.0,0.0,0.0,0.0,0.0,0.0,0.0,0.0,0.0,0.0,0.0,0.0,0.0,0.0,0.0,0.0,0.0,0.0,0.0,0.0,0.0,0.0,0.0,2.9654,3.2491,3.3621,3.5917,3.7873,3.7243,3.6109,3.4454,0.0,3.0283,2.8365,2.5911,2.6575,2.7303,2.6356,2.7342,2.8195,2.8008,2.8986,0.0,3.1406,0.0,0.0,0.0,0.0,0.0,0.0,0.0,0.0,0.0,0.0,0.0,3.7758,3.676,3.6172,3.6212,3.6212,3.6212,3.6212,3.6212,3.6212,3.6212,3.6212,3.5908,3.5289,3.4692,3.4047,0.0,0.0,0.0,0.0,3.2593,3.1875,3.0853,3.1529,3.1065,3.0067,3.0715,3.1071,3.1039,0.0,0.0,0.0,0.0,0.0,0.0,0.0,1.6991,1.7544,1.9083,2.0205,2.1113,2.1716,2.225,2.2543,2.2543,2.1568,0.0,0.0,0.0,0.0,0.0,0.0,0.0,0.0,0.0,2.2246,2.3201,2.4104,2.4556,2.4531,2.3803,2.3075,2.2297,0.0,0.0,0.0,0.0,0.0,0.0,0.0,0.0,0.0,0.0,0.0,0.0,0.0,0.0,0.0,0.0,0.0,0.0,0.0,0.0,0.0,2.5647,2.8605,0.0,3.2431,3.4087,3.5344,3.399,3.2722,3.1466,3.0111,2.8821,2.7678,2.7042,2.728,2.7518,2.7205,2.7411,2.7882,2.8764,2.9066,0.0,0.0,0.0,0.0,0.0,0.0,0.0,0.0,0.0,0.0,0.0,0.0,0.0,3.89,3.8583,3.8368,3.8368,3.7701,3.7663,3.8368,3.8368,3.8368,3.8368,3.8368,3.8047,3.7412,3.6769,3.6091,0.0,0.0,0.0,0.0,3.3567,3.2828,3.1842,3.3122,3.2855,3.1712,3.1948,3.2072,3.1928,0.0,0.0,0.0,0.0,0.0,0.0,0.0,1.7248,1.7658,1.8917,1.9639,2.0374,2.1327,2.201,2.2461,2.2573,2.2403,0.0,0.0,0.0,0.0,0.0,0.0,0.0,0.0,2.1543,2.2749,2.4305,2.5385,2.5912,2.5912,2.546,2.4481,2.307,2.2046,0.0,0.0,0.0,0.0,0.0,0.0,0.0,2.0848,0.0,0.0,0.0,0.0,0.0,0.0,0.0,0.0,0.0,0.0,0.0,0.0,0.0,2.7315,3.0031,0.0,3.2151,3.3284,3.193,3.1188,0.0,2.9464,2.8474,2.773,2.7633,2.7585,2.7585,2.7585,2.7679,2.8063,2.8907,2.9318,3.0021,0.0,0.0,0.0,0.0,0.0,0.0,0.0,0.0,0.0,0.0,0.0,0.0,3.9403,3.9373,3.9373,3.9373,3.876,3.8694,3.9373,3.9373,3.9373,3.9373,3.914,3.8661,3.8003,3.7345,3.6716,0.0,0.0,0.0,0.0,3.4576,3.3963,3.312,3.4103,3.3963,3.3215,3.2976,3.2886,3.2706,0.0,0.0,0.0,0.0,0.0,0.0,0.0,1.8019,1.8334,1.8368,1.8983,1.9808,2.0872,2.1949,2.274,2.3103,0.0,0.0,0.0,0.0,0.0,0.0,0.0,0.0,0.0,2.1375,2.2757,2.4901,2.6122,2.6675,2.6675,2.7203,2.5937,2.3271,2.3195,2.2246,2.0691,2.0691,2.0365,1.9861,2.0493,2.081,0.0,0.0,0.0,0.0,0.0,0.0,0.0,0.0,0.0,0.0,0.0,0.0,0.0,0.0,0.0,0.0,0.0,3.001,3.1435,0.0,0.0,0.0,2.9594,2.8816,0.0,2.7645,2.7525,2.7555,2.7645,2.8128,2.8577,2.8786,2.9804,0.0,0.0,0.0,0.0,0.0,0.0,0.0,0.0,0.0,0.0,0.0,0.0,0.0,3.9373,3.9373,3.9373,3.9373,3.9343,3.9343,3.9373,3.9373,3.9409,3.9313,3.8691,3.8033,3.7315,3.6746,3.6118,0.0,0.0,0.0,0.0,3.5519,3.507,3.4444,3.4503,3.4444,3.4294,3.3664,3.3425,3.3335,0.0,0.0,0.0,0.0,0.0,0.0,0.0,0.0,0.0,0.0,1.9348,2.0009,2.0758,2.1904,2.2858,0.0,0.0,0.0,0.0,0.0,0.0,0.0,0.0,0.0,0.0,2.2966,2.4356,2.6097,2.7595,2.8348,2.8348,2.8436,2.7268,2.4983,2.4155,2.2623,2.0691,2.0691,2.0365,1.9913,2.094,2.1423,0.0,0.0,0.0,0.0,2.3289,2.3902,0.0,0.0,0.0,0.0,0.0,0.0,0.0,0.0,2.5292,2.6117,2.6285,0.0,2.8438,2.7791,2.7293,2.6931,0.0,2.6422,2.6422,2.6752,2.6836,2.7165,2.8158,2.8068,2.8487,3.0494,3.1062,3.1899,0.0,0.0,0.0,0.0,0.0,0.0,0.0,0.0,0.0,0.0,0.0,3.9373,3.9373,3.9373,3.9373,3.9373,3.8901,3.8871,3.9373,3.9373,3.914,3.8631,3.8482,3.7793,3.6686,3.6537,3.6118,0.0,0.0,0.0,3.5519,3.5519,3.4801,3.3784,3.4324,3.3873,3.2946,3.2796,3.2736,3.2647,0.0,0.0,0.0,0.0,0.0,0.0,0.0,0.0,0.0,0.0,0.0,0.0,0.0,0.0,0.0,0.0,0.0,0.0,0.0,0.0,0.0,0.0,0.0,0.0,2.2936,2.3437,2.4819,2.6994,2.8026,2.8825,2.9327,2.9013,2.8052,2.6429,2.4304,2.249,2.1043,2.0792,2.0515,2.0291,2.1225,0.0,0.0,0.0,0.0,0.0,2.361,2.4007,0.0,2.4605,2.4605,2.4605,0.0,0.0,0.0,0.0,2.4605,2.5143,2.5143,2.6333,2.7435,2.6776,2.6542,2.6422,2.6123,2.5824,2.5704,2.6063,0.0,0.0,2.756,2.7645,2.8372,3.0742,3.1104,0.0,0.0,0.0,0.0,0.0,0.0,0.0,0.0,0.0,0.0,0.0,0.0,3.9373,3.9373,3.9373,3.9373,3.9373,3.8751,3.8571,3.8931,3.8661,3.8302,3.7943,3.7644,3.7165,3.6477,3.5848,3.537,0.0,0.0,0.0,3.5073,3.5392,3.5276,3.4942,3.5029,3.4807,3.4345,3.3383,3.3025,3.2816,0.0,0.0,0.0,0.0,0.0,0.0,0.0,0.0,0.0,0.0,0.0,0.0,0.0,0.0,0.0,0.0,0.0,0.0,0.0,0.0,0.0,0.0,0.0,2.2728,2.3993,2.3824,2.4992,2.7604,2.8115,2.885,2.9779,2.9606,2.8903,2.7676,2.4374,2.2427,2.1637,2.108,2.0801,2.0778,2.1485,0.0,0.0,0.0,0.0,0.0,0.0,0.0,0.0,2.4559,2.4522,2.4455,2.4455,0.0,0.0,0.0,0.0,0.0,2.4575,2.6219,2.7675,2.6711,2.703,2.7404,2.6742,0.0,0.0,0.0,0.0,0.0,0.0,2.761,0.0,0.0,0.0,0.0,0.0,0.0,0.0,0.0,0.0,0.0,0.0,0.0,0.0,0.0,0.0,3.9373,3.9373,3.932,3.932,3.9373,3.8571,3.8222,3.8421,3.7743,3.7375,3.7255,3.6746,3.6447,3.6297,3.516,3.4623,3.4503,0.0,0.0,3.4542,3.5124,3.5732,3.6221,3.5721,3.581,3.6015,3.4317,3.363,3.3342,0.0,0.0,0.0,0.0,0.0,0.0,0.0,0.0,0.0,0.0,0.0,0.0,0.0,0.0,0.0,0.0,0.0,0.0,0.0,0.0,0.0,0.0,2.445,2.4751,2.6048,2.5744,2.6301,2.767,2.8941,2.9628,2.9843,3.1448,3.098,2.8643,2.5575,2.3554,2.2377,2.1721,2.1197,2.088,2.2011,0.0,0.0,0.0,0.0,0.0,0.0,0.0,0.0,2.4421,2.4137,2.3759,2.3759,0.0,0.0,0.0,0.0,0.0,2.4455,2.6947,2.8786,2.635,2.664,2.7334,2.6655,2.6826,0.0,0.0,0.0,0.0,0.0,2.9751,3.108,0.0,0.0,0.0,0.0,0.0,0.0,0.0,0.0,0.0,0.0,0.0,0.0,0.0,0.0,3.9373,3.9373,3.8871,3.8811,3.9409,3.7704,3.7352,3.8536,3.7775,3.7135,3.6626,3.6537,3.6178,3.5639,3.5429,3.504,3.4503,0.0,3.4485,3.4506,3.4623,3.4745,3.4913,3.4798,3.4468,3.4046,3.3718,3.3603,3.3545,0.0,0.0,0.0,0.0,0.0,0.0,0.0,0.0,0.0,0.0,0.0,0.0,0.0,0.0,0.0,0.0,0.0,0.0,0.0,0.0,0.0,2.7679,2.6782,2.6485,2.7071,2.7197,2.8176,3.0067,3.0985,3.1724,3.2281,3.1947,3.0416,2.7956,2.5964,2.4349,2.3093,2.2471,2.2013,2.1819,0.0,0.0,0.0,0.0,0.0,0.0,0.0,0.0,0.0,0.0,2.4471,2.4059,2.4369,0.0,0.0,0.0,0.0,0.0,2.4854,2.6898,2.8649,2.7413,2.8715,2.9903,2.841,2.804,0.0,0.0,0.0,0.0,0.0,0.0,0.0,0.0,0.0,0.0,0.0,0.0,0.0,0.0,0.0,0.0,0.0,0.0,0.0,0.0,0.0,0.0,3.8362,3.8451,3.8659,3.896,3.8172,3.806,3.8716,3.7997,3.7248,3.6528,3.6528,3.6161,3.549,3.5582,3.5233,3.455,0.0,3.4535,3.4585,3.494,3.5347,3.5747,3.5769,3.5613,3.5225,3.4431,3.3896,3.3598,0.0,0.0,0.0,0.0,0.0,0.0,0.0,0.0,0.0,0.0,0.0,0.0,0.0,0.0,0.0,0.0,0.0,0.0,0.0,0.0,2.6722,2.9262,2.8393,2.8124,2.8723,2.8764,2.9951,3.2371,3.2617,3.327,3.425,3.1957,2.9872,2.7907,2.6635,2.5239,2.3842,2.3199,2.2811,2.262,0.0,0.0,0.0,0.0,0.0,0.0,0.0,0.0,0.0,0.0,0.0,0.0,0.0,0.0,0.0,2.5086,2.5202,2.5234,2.5374,2.7077,2.8726,2.8393,3.0374,3.2022,3.0706,3.0021,2.9707,0.0,0.0,0.0,0.0,3.2233,0.0,0.0,0.0,0.0,0.0,0.0,0.0,0.0,0.0,0.0,0.0,0.0,0.0,0.0,0.0,0.0,3.8013,3.8392,3.8746,3.8869,3.8678,3.8715,3.9052,3.804,3.7311,3.6873,3.6873,3.65,3.5755,3.5883,3.5427,3.4595,3.4595,3.4579,3.4659,3.5142,3.5803,3.6431,3.6518,3.6502,3.6388,3.5252,3.452,3.4078,0.0,0.0,0.0,0.0,0.0,0.0,0.0,0.0,0.0,0.0,0.0,0.0,0.0,0.0,0.0,0.0,0.0,0.0,0.0,0.0,2.6542,2.8577,2.8577,2.9654,3.2108,3.0835,3.1137,3.3132,3.2779,3.3073,3.3894,3.1854,3.0681,3.0175,2.8289,2.6381,2.4562,2.3904,2.3276,2.2684,2.27,0.0,0.0,0.0,0.0,0.0,0.0,0.0,0.0,0.0,0.0,0.0,0.0,0.0,2.5163,2.5182,2.5202,2.5362,2.5975,2.8127,2.9902,2.8484,2.9777,3.1736,3.3011,3.3173,0.0,3.4074,0.0,0.0,0.0,0.0,0.0,0.0,0.0,0.0,0.0,0.0,0.0,0.0,0.0,0.0,0.0,0.0,0.0,0.0,0.0,0.0,3.9625,3.9082,3.9049,3.9718,3.8501,3.8492,3.9795,3.7814,3.7093,3.7706,3.7706,3.7323,3.6593,3.6617,3.5906,3.4595,3.4595,3.4607,3.461,3.4658,3.5058,3.5667,3.5678,3.5667,3.5667,3.5554,3.5509,3.5464,0.0,0.0,0.0,0.0,0.0,0.0,0.0,0.0,0.0,0.0,0.0,0.0,0.0,0.0,0.0,0.0,0.0,0.0,0.0,0.0,2.6512,2.8517,2.8607,2.9624,3.1839,3.1753,3.2638,3.4617,3.446,3.4339,3.4227,3.1808,3.0421,2.9864,2.8304,2.6952,2.5839,2.5165,2.4492,2.385,2.343,2.3414,0.0,0.0,0.0,0.0,0.0,0.0,0.0,0.0,2.6104,2.576,2.605,2.591,2.576,2.6068,2.6106,2.6173,2.6435,2.7981,2.9523,2.9384,3.0302,0.0,0.0,3.3814,3.4879,3.5215,3.5969,0.0,0.0,0.0,0.0,0.0,0.0,0.0,0.0,0.0,0.0,0.0,0.0,0.0,0.0,0.0,0.0,0.0,0.0,0.0,3.7863,3.7644,3.8023,3.919,3.8354,3.8325,3.9317,3.8085,3.7591,3.7864,3.7353,3.6722,3.6039,3.6536,3.6174,3.5214,3.5214,3.5224,3.5214,3.5214,3.5362,3.56,3.56,3.56,3.56,3.56,3.56,3.56,0.0,0.0,0.0,0.0,0.0,0.0,0.0,0.0,0.0,0.0,0.0,0.0,0.0,0.0,0.0,0.0,0.0,0.0,2.4575,2.5023,2.6093,2.7889,2.7979,2.8906,3.0853,3.136,3.2677,3.4861,3.4861,3.4412,3.3514,3.145,3.0283,2.9804,2.8274,2.7465,2.7141,2.5854,2.5023,2.4545,2.3879,2.3687,0.0,0.0,0.0,0.0,0.0,0.0,0.0,0.0,2.6504,2.6263,2.6607,2.6487,2.6263,2.6607,2.6691,2.6691,2.6691,2.7825,2.9077,2.933,0.0,0.0,3.2767,3.4336,3.5938,3.7121,3.7855,0.0,0.0,0.0,0.0,0.0,0.0,0.0,0.0,0.0,0.0,0.0,0.0,0.0,0.0,0.0,0.0,0.0,0.0,0.0,0.0,3.7089,3.7543,3.8565,3.8152,3.8159,3.8633,3.7922,3.755,3.755,3.6734,3.6224,3.6016,3.6528,3.6366,3.56,3.56,3.56,3.56,3.56,3.56,3.56,3.56,3.56,3.56,3.56,3.56,3.56,0.0,0.0,0.0,0.0,0.0,0.0,0.0,0.0,0.0,0.0,0.0,0.0,0.0,0.0,0.0,0.0,0.0,0.0,2.4545,2.4605,2.5173,2.6512,2.6572,2.753,2.9532,2.9592,3.0851,3.3484,3.3484,3.2796,3.1481,3.0821,3.0492,3.0402,2.8483,2.7974,2.8397,2.5764,2.4605,2.4545,2.3879,2.3921,2.441,0.0,0.0,0.0,0.0,0.0,0.0,0.0,2.6691,2.6691,2.6691,2.6691,2.6691,2.6691,2.6691,2.6691,2.6691,2.7825,2.8807,2.8027,0.0,0.0,3.4167,3.5081,3.6648,4.0426,4.002,3.8531,3.71,0.0,0.0,0.0,0.0,0.0,0.0,0.0,0.0,0.0,0.0,0.0,0.0,0.0,0.0,0.0,0.0,0.0,0.0,3.7889,3.7889,3.7922,3.7889,3.7855,3.7889,3.7144,3.6761,3.6761,3.596,3.6028,3.6795,3.6795,3.6332,3.56,3.56,3.56,3.56,3.56,3.56,3.56,3.56,3.56,3.56,3.56,3.56,3.56,0.0,0.0,0.0,0.0,0.0,0.0,0.0,0.0,0.0,0.0,0.0,0.0,0.0,0.0,0.0,0.0,0.0,0.0,2.3857,2.4335,2.4784,2.5173,2.6093,2.6896,2.7495,2.7944,2.9475,3.2079,3.2079,3.163,3.0791,3.0163,2.9624,2.9172,2.8976,2.8504,2.769,2.6443,2.5637,2.5068,2.4001,2.3921,2.441,0.0,0.0,0.0,0.0,0.0,0.0,0.0,0.0,0.0,2.6691,2.7063,2.735,2.686,2.7063,2.735,2.6826,2.7402,0.0,2.921,0.0,0.0,0.0,3.6288,0.0,0.0,3.9242,3.8261,3.8328,0.0,0.0,0.0,0.0,0.0,0.0,0.0,0.0,0.0,0.0,0.0,0.0,0.0,0.0,0.0,0.0,0.0,0.0,3.6096,3.6231,3.7855,3.5859,3.5228,3.6276,3.5047,3.4404,3.4404,3.4675,3.5216,3.596,3.596,3.5825,3.56,3.56,3.56,3.56,3.56,3.56,3.56,3.56,3.56,3.56,3.56,3.56,3.56,0.0,0.0,0.0,0.0,0.0,0.0,0.0,0.0,0.0,0.0,0.0,0.0,0.0,0.0,0.0,0.0,0.0,0.0,0.0,0.0,2.4306,2.4605,2.5352,2.6063,2.6572,2.7525,2.8517,2.9537,3.0319,3.0229,2.9382,3.0286,3.0229,2.9382,2.973,2.9398,2.8453,2.702,2.6335,2.6083,2.505,2.4998,2.5481,0.0,0.0,0.0,0.0,0.0,0.0,0.0,0.0,0.0,2.6691,2.6996,2.7283,2.6826,2.6996,2.7266,2.6826,2.7469,0.0,2.9803,3.1427,3.3376,3.5757,0.0,0.0,0.0,0.0,3.8734,3.8599,0.0,0.0,0.0,0.0,0.0,0.0,0.0,0.0,0.0,0.0,0.0,0.0,0.0,0.0,0.0,0.0,0.0,0.0,3.4573,3.4675,3.6062,3.437,3.3829,3.4721,3.3863,3.3423,3.3423,3.3863,3.4303,3.4754,3.5329,3.56,3.56,3.56,3.56,3.56,3.56,3.56,3.56,3.56,3.56,3.56,3.56,3.56,3.56,0.0,0.0,0.0,0.0,0.0,0.0,0.0,0.0,0.0,0.0,0.0,0.0,0.0,0.0,0.0,0.0,0.0,0.0,0.0,0.0,2.3909,2.4575,2.4724,2.5352,2.6572,2.7739,2.7709,2.6422,2.8504,2.8817,2.758,3.075,3.1521,3.0303,3.0426,3.0339,2.9937,2.7423,2.6692,2.7121,2.6459,2.6529,2.7001,2.7001,0.0,0.0,0.0,0.0,0.0,0.0,0.0,0.0,2.6708,2.6759,2.6809,2.6742,2.6759,2.6793,2.6793,2.7928,2.9252,3.0149,3.2083,0.0,3.5554,3.8488,4.0696,3.9943,0.0,3.9487,0.0,0.0,0.0,0.0,0.0,0.0,0.0,0.0,0.0,0.0,0.0,0.0,0.0,0.0,0.0,0.0,0.0,0.0,0.0,3.3355,3.3322,3.3423,3.3288,3.322,3.3322,3.322,3.322,3.322,3.3288,3.3309,3.3418,3.4776,3.5419,3.5464,3.5464,3.5474,3.5518,3.5486,3.5464,3.5464,3.5419,3.5397,3.5397,3.5464,3.5498,3.5498,0.0,0.0,0.0,0.0,0.0,0.0,0.0,0.0,0.0,0.0,0.0,0.0,0.0,0.0,0.0,0.0,0.0,0.0,0.0,0.0,2.3909,2.4575,2.5615,2.6303,2.6572,2.6363,2.5854,2.5023,2.8045,2.8572,2.6866,2.9613,3.0212,2.8972,2.9876,2.9612,2.8508,2.7408,2.6686,2.6237,2.5663,2.5783,2.6261,2.6261,2.6447,0.0,0.0,0.0,0.0,0.0,0.0,0.0,2.6808,2.7299,2.7873,2.6961,2.7097,2.7553,2.7553,2.8545,0.0,0.0,3.4545,3.6848,3.7757,3.8286,3.8396,3.7675,3.7956,0.0,0.0,0.0,0.0,0.0,0.0,0.0,0.0,0.0,0.0,0.0,0.0,0.0,0.0,0.0,0.0,0.0,0.0,0.0,3.3423,3.2848,3.278,3.3389,3.2273,3.1935,3.253,3.1968,3.1664,0.0,3.2259,3.2733,3.3106,3.3645,3.4074,3.441,3.441,3.4614,3.4872,3.4535,3.441,3.439,3.4011,3.3875,3.3943,3.4506,3.4742,3.481,0.0,0.0,0.0,0.0,0.0,0.0,0.0,0.0,0.0,0.0,0.0,0.0,0.0,0.0,0.0,0.0,0.0,0.0,0.0,0.0,0.0,2.4945,2.622,2.6765,2.6518,2.6161,2.5644,2.4976,2.7049,2.7566,2.6618,2.9557,3.0389,2.9462,3.027,2.9859,2.8484,2.7736,2.7217,2.6832,2.6579,2.6616,2.685,2.685,2.6789,2.6691,2.6691,0.0,0.0,0.0,0.0,0.0,0.0,0.0,2.7451,2.686,2.6962,2.73,2.752,0.0,0.0,3.3212,0.0,3.7819,3.7581,3.7644,3.7319,3.596,3.6569,0.0,0.0,0.0,0.0,0.0,0.0,0.0,0.0,0.0,0.0,0.0,0.0,0.0,0.0,0.0,0.0,0.0,0.0,3.2713,3.2374,3.2173,3.2241,3.2633,3.2126,3.2014,3.2394,3.2014,3.1615,3.1269,3.203,3.2523,3.2791,3.3647,3.4152,3.438,3.438,3.4494,3.4694,3.4492,3.438,3.4396,3.4549,3.459,3.4693,3.5495,3.5772,3.5841,0.0,0.0,0.0,0.0,0.0,0.0,0.0,0.0,0.0,0.0,0.0,0.0,0.0,0.0,0.0,0.0,0.0,0.0,0.0,0.0,0.0,2.5497,2.6609,2.6988,2.6554,2.6408,2.6088,2.5528,2.6066,2.6611,2.7237,2.9838,3.0727,3.0193,3.0564,3.0018,2.8735,2.7946,2.7621,2.7621,2.7621,2.7621,2.7621,2.7621,2.7267,2.6808,2.6808,2.6858,2.6954,2.7303,0.0,0.0,0.0,0.0,2.6987,2.6922,2.6923,2.7005,2.7457,0.0,3.1001,3.4247,3.6559,0.0,3.6886,3.7005,3.6788,3.5002,0.0,0.0,0.0,0.0,0.0,0.0,0.0,0.0,0.0,0.0,0.0,0.0,0.0,0.0,0.0,0.0,0.0,0.0,0.0,3.1545,3.0934,3.1402,3.1689,3.1689,3.2106,3.2306,3.2306,3.2148,3.1759,3.1107,3.1859,3.2262,3.2456,3.3768,3.4374,3.4428,3.4428,3.4463,3.4532,3.4446,3.4428,3.4482,3.5084,3.5313,3.5419,3.6288,3.6571,3.6606,0.0,0.0,0.0,0.0,0.0,0.0,0.0,0.0,0.0,0.0,0.0,0.0,0.0,0.0,0.0,0.0,0.0,0.0,2.4389,0.0,0.0,2.6089,2.6798,2.7179,2.7095,2.6513,2.6184,2.6089,2.5727,2.7031,2.9875,2.9726,2.9554,2.9362,2.9309,2.8801,2.7902,2.7164,2.686,2.686,2.686,2.686,2.686,2.686,2.7008,2.7225,2.7225,2.7457,2.7754,2.7811,2.796,0.0,0.0,0.0,2.8125,2.7805,2.7754,2.7895,2.8573,0.0,3.3244,0.0,3.6504,3.7072,0.0,0.0,3.6271,0.0,0.0,0.0,0.0,0.0,0.0,0.0,0.0,0.0,0.0,0.0,0.0,0.0,0.0,0.0,0.0,0.0,0.0,0.0,3.0085,2.9817,2.9713,3.0762,3.1379,3.1379,3.1444,3.1476,3.1476,3.0757,3.0353,3.0247,3.077,3.1391,3.2103,3.2615,3.3059,3.3414,3.3414,3.3596,3.387,3.3551,3.3414,3.3368,3.3057,3.2943,3.3049,3.381,3.4093,3.427,0.0,0.0,0.0,0.0,0.0,0.0,0.0,0.0,0.0,0.0,0.0,0.0,0.0,0.0,0.0,2.4491,2.4712,2.4989,2.5278,2.6054,2.6348,2.6086,2.6606,2.6803,2.6536,2.623,2.61,2.61,2.5544,2.7033,3.0381,3.0107,3.0771,3.211,3.081,2.9825,2.8973,2.7368,2.6691,2.6691,2.6691,2.6841,2.7035,2.7035,2.7288,2.7651,2.7651,2.7754,2.794,2.8134,2.8139,2.8147,2.8188,0.0,0.0,0.0,2.7897,2.8131,2.9076,3.0717,3.263,0.0,3.5316,3.5825,3.609,0.0,3.5467,0.0,0.0,0.0,0.0,0.0,0.0,0.0,0.0,0.0,0.0,0.0,0.0,0.0,0.0,0.0,0.0,0.0,0.0,0.0,2.9814,2.9738,2.9505,3.047,3.102,3.102,3.1254,3.1368,3.1368,3.1006,3.0812,3.0825,3.0589,3.0886,3.17,3.2297,3.2943,3.3536,3.3536,3.3634,3.3793,3.3606,3.3536,3.3559,3.3806,3.3912,3.4057,3.5302,3.5788,3.5953,0.0,0.0,0.0,0.0,0.0,0.0,0.0,0.0,0.0,0.0,0.0,0.0,0.0,0.0,0.0,0.0,2.5316,2.5617,2.6139,2.6521,2.6556,2.6175,2.6521,2.6539,2.6175,2.6175,2.6175,2.6175,2.5654,2.7277,3.0887,3.0763,3.2271,3.5001,3.2747,3.092,2.9413,2.7909,2.7165,2.6979,2.6893,2.7019,2.7319,2.7426,2.771,2.8037,2.8037,2.8106,2.8215,2.8476,2.8386,2.8215,2.8476,2.8386,0.0,0.0,0.0,0.0,0.0,0.0,3.1433,3.2852,3.3793,3.4418,0.0,0.0,0.0,0.0,0.0,0.0,0.0,0.0,0.0,0.0,0.0,0.0,0.0,0.0,0.0,0.0,0.0,0.0,0.0,0.0,0.0,0.0,2.9656,2.9536,2.9241,3.012,3.0663,3.0663,3.0953,3.1103,3.1103,3.087,3.0797,3.076,3.0173,3.032,3.1127,3.1715,3.2559,3.3513,3.3697,3.3807,3.3807,3.3807,3.3807,3.3844,3.4454,3.4821,3.5151,3.6156,3.6831,3.7272,0.0,0.0,0.0,0.0,0.0,0.0,0.0,0.0,0.0,0.0,0.0,0.0,2.5202,2.5202,2.5202,2.5202,2.5654,2.6157,2.6641,2.6691,2.6691,2.6657,2.6691,0.0,2.6657,2.6657,2.6657,2.6657,2.6175,2.8092,3.2185,3.1674,3.3306,3.6592,3.4303,3.1272,2.7959,2.8586,2.845,2.7723,2.7408,2.7288,2.735,2.7739,2.8057,2.8363,2.8363,2.8602,2.894,2.8952,2.8952,2.894,2.8952,2.8952,2.894,0.0,0.0,0.0,0.0,2.9635,0.0,3.1311,3.2118,0.0,0.0,0.0,0.0,0.0,0.0,0.0,0.0,0.0,0.0,0.0,0.0,0.0,0.0,0.0,0.0,0.0,0.0,0.0,0.0,0.0,0.0,0.0,2.9118,2.8495,2.8468,2.9587,3.021,3.021,3.0234,3.0246,3.0246,2.95,2.9133,2.9133,2.9097,2.9464,3.0246,3.032,3.1188,3.2693,3.3476,3.3807,3.3807,3.3807,3.3807,3.3807,3.3844,3.4307,3.4931,3.4247,3.4981,3.6376,0.0,0.0,0.0,0.0,0.0,0.0,0.0,0.0,0.0,0.0,0.0,0.0,0.0,2.6175,2.6175,2.6175,2.6333,2.6521,2.6691,2.6691,2.6691,2.6691,2.6691,2.6691,2.6691,2.6691,2.6691,2.6691,2.6539,2.7969,3.0886,3.0676,3.1301,3.251,3.2666,3.1955,3.0548,2.8416,0.0,0.0,0.0,2.7225,2.771,2.7855,0.0,0.0,0.0,0.0,0.0,0.0,0.0,0.0,0.0,0.0,0.0,0.0,0.0,0.0,0.0,0.0,0.0,3.043,3.0648,3.0858,0.0,0.0,0.0,0.0,0.0,0.0,0.0,0.0,0.0,0.0,0.0,0.0,0.0,0.0,0.0,0.0,0.0,0.0,0.0,0.0,0.0,0.0,0.0,2.8688,2.8402,2.9041,2.9427,2.9427,2.9427,2.9427,2.9427,2.9133,2.8987,2.8987,2.8987,2.9133,2.9464,2.9953,3.0797,3.1861,3.2669,3.333,3.3807,3.3807,3.3807,3.3807,3.3807,3.4284,3.5041,3.5312,3.6134,3.7162,0.0,0.0,0.0,0.0,0.0,0.0,0.0,0.0,0.0,0.0,0.0,0.0,0.0,0.0,2.6691,2.6691,2.6691,2.6691,2.6691,2.6691,2.6691,2.6691,2.6691,2.6691,2.6691,2.6691,2.6691,2.6691,2.6691,2.774,2.9736,2.9736,3.0006,3.048,3.0973,3.1041,0.0,0.0,0.0,2.7774,0.0,0.0,2.8379,0.0,0.0,0.0,0.0,0.0,0.0,0.0,0.0,0.0,0.0,0.0,0.0,0.0,0.0,0.0,2.8987,0.0,0.0,0.0,0.0,2.9247,2.9402,0.0,0.0,0.0,0.0,0.0,0.0,0.0,0.0,0.0,0.0,0.0,0.0,0.0,0.0,0.0,0.0,0.0,0.0,0.0,0.0,0.0,0.0,0.0,2.8602,2.8833,2.8987,2.8987,2.8987,2.8987,2.8987,2.8987,2.8987,2.8987,2.8987,2.8987,2.9023,2.9537,3.0393,3.1433,3.1971,3.2816,3.3807,3.3807,3.3807,3.3807,3.3807,3.4468,3.5481,3.5752,3.6743,3.7933,0.0,0.0,0.0,0.0,0.0,0.0,0.0,0.0,0.0,2.6015,0.0,0.0,0.0,0.0,0.0,2.6725,2.6725,2.6725,2.6691,2.6691,2.6691,2.6691,2.6691,2.6691,2.6691,2.6691,2.6691,2.6691,2.6691,2.7486,2.8942,2.896,2.9705,3.1007,2.9622,2.8554,2.7943,0.0,2.9803,2.7929,0.0,2.9045,2.9262,0.0,0.0,0.0,3.1323,3.0834,0.0,2.9244,0.0,0.0,0.0,0.0,0.0,0.0,0.0,0.0,0.0,0.0,0.0,0.0,0.0,0.0,2.7982,0.0,0.0,0.0,0.0,0.0,0.0,0.0,0.0,0.0,0.0,0.0,0.0,0.0,0.0,0.0,0.0,0.0,0.0,0.0,0.0,0.0,2.9464,2.8987,2.8987,2.8987,2.8987,2.8987,2.8987,2.8987,2.8987,2.8987,2.8987,2.8987,2.8987,2.8987,2.8987,2.8987,2.9879,3.136,3.136,3.2265,3.377,3.3807,3.3807,3.3844,3.3844,3.4871,3.6229,3.5371,3.6619,3.8579,0.0,0.0,0.0,0.0,0.0,0.0,2.6298,2.6402,2.6521,0.0,0.0,0.0,2.6759,2.7199,2.7486,2.7486,2.7486,2.7266,2.6725,2.6691,2.6691,2.6691,2.6691,2.6691,2.6691,2.6691,2.6691,2.6691,2.6691,2.6911,2.7351,2.7637,2.7975,2.8405,2.8802,2.8404,2.7443,2.7811,0.0,2.9075,2.8768,2.8971,0.0,0.0,0.0,0.0,0.0,2.95,2.9317,0.0,2.8987,2.8987,0.0,0.0,0.0,0.0,0.0,0.0,2.8987,0.0,0.0,0.0,0.0,0.0,0.0,0.0,0.0,0.0,0.0,0.0,0.0,0.0,0.0,0.0,0.0,0.0,0.0,0.0,0.0,0.0,0.0,0.0,0.0,0.0,0.0,0.0,2.9296,2.8987,2.8987,2.8987,2.8987,2.8987,2.8987,2.8987,2.8987,2.8987,2.8987,2.8987,2.8987,2.8987,2.8987,2.8987,2.9574,3.054,3.054,3.1458,3.2986,3.355,3.4137,3.4674,3.4674,3.5679,3.7125,3.689,3.7624,3.8689,0.0,0.0,0.0,0.0,0.0,2.801,2.7723,2.7656,2.7656,0.0,0.0,0.0,2.769,2.8315,2.8635,2.8349,2.7993,2.7621,2.7199,2.7044,2.6891,2.6708,2.7019,2.7115,2.6938,2.7115,2.721,2.721,2.721,2.721,2.721,2.7457,2.7562,2.7577,0.0,0.0,0.0,0.0,0.0,0.0,2.8844,0.0,0.0,3.0232,3.0108,0.0,0.0,0.0,3.0344,2.9354,2.8987,0.0,0.0,0.0,0.0,0.0,0.0,0.0,0.0,0.0,0.0,0.0,0.0,0.0,2.7329,2.7409,0.0,0.0,0.0,0.0,0.0,0.0,0.0,0.0,0.0,0.0,0.0,0.0,0.0,0.0,0.0,0.0,0.0,2.9722,2.9717,2.9379,2.9137,2.8987,2.8987,2.8987,2.8987,2.8987,2.8987,2.8987,2.8987,2.8987,2.8987,2.8987,2.8987,2.8987,2.8987,2.8987,2.9427,3.021,3.054,3.1421,3.2656,3.3476,3.41,3.4491,3.4491,3.5298,3.6486,3.6868,3.7514,3.8248,0.0,0.0,2.7858,2.8027,2.9176,2.9905,2.9348,2.9179,2.9111,0.0,2.8518,0.0,0.0,2.9939,2.9991,0.0,2.8573,2.8064,2.7947,2.7679,2.7294,2.6858,2.7532,2.7739,2.738,2.7725,2.7897,2.7897,2.7897,2.7897,2.7897,2.794,2.7968,2.7968,0.0,0.0,0.0,0.0,0.0,2.8669,2.8956,2.9594,0.0,0.0,3.1024,3.0726,3.1027,3.1604,3.1885,2.9721,2.8987,0.0,0.0,0.0,0.0,0.0,2.8987,0.0,0.0,0.0,0.0,0.0,0.0,0.0,2.667,2.665,2.64,0.0,0.0,0.0,0.0,0.0,0.0,0.0,0.0,0.0,0.0,0.0,0.0,0.0,0.0,0.0,3.0137,3.021,2.9916,2.9207,2.906,2.8987,2.8987,2.8987,2.8987,2.8987,2.8987,2.8987,2.8987,2.8987,2.8987,2.8987,2.8987,2.8987,2.8987,2.8987,2.9427,3.0246,3.0944,3.1715,3.2509,3.333,3.377,3.3917,3.3917,3.4504,3.5371,3.6156,3.6905,3.7639,0.0,0.0,2.8196,2.9413,2.9886,3.0243,3.0683,3.0277,2.9905,2.9905,0.0,0.0,0.0,0.0,0.0,0.0,3.0576,2.9779,2.889,2.8785,2.8432,2.7716,2.7826,2.7869,2.7797,2.7869,2.7897,2.7897,2.7897,2.7897,2.7911,2.8201,2.8298,2.8298,0.0,0.0,0.0,0.0,0.0,2.938,2.9471,0.0,3.1146,3.065,2.9978,2.9381,2.944,2.9574,2.9647,2.917,2.8987,2.8987,0.0,0.0,0.0,2.8987,0.0,0.0,0.0,0.0,0.0,0.0,0.0,0.0,2.8104,2.8013,2.7906,0.0,0.0,0.0,0.0,0.0,0.0,0.0,0.0,0.0,0.0,0.0,0.0,0.0,0.0,0.0,3.01,3.021,3.0136,2.9989,2.9354,2.8987,2.8987,2.8987,2.8987,2.8987,2.8987,2.8987,2.8987,2.8987,2.8987,2.8987,2.8987,2.8987,2.8987,2.8987,2.9427,3.021,3.0356,3.0907,3.1678,3.2509,3.361,3.4784,3.4784,3.5679,3.7052,3.7199,3.7382,3.7639,0.0,2.8721,2.9311,3.0446,3.1258,3.1867,3.2239,3.2002,3.1901,0.0,0.0,0.0,0.0,0.0,0.0,0.0,0.0,0.0,0.0,2.969,2.9098,2.8507,2.847,2.8347,2.8139,2.8347,2.8438,2.8438,2.8438,2.8438,2.8438,2.8639,2.8713,2.8725,2.8917,0.0,0.0,0.0,2.9744,3.0399,2.9419,0.0,3.0438,2.9819,2.9222,2.8737,2.8929,2.8987,2.9133,2.9953,2.9647,0.0,0.0,2.8987,2.8987,0.0,2.8987,2.8987,0.0,0.0,0.0,2.8987,0.0,0.0,0.0,2.8094,2.7901,2.7143,0.0,0.0,0.0,0.0,0.0,0.0,0.0,0.0,0.0,0.0,0.0,0.0,0.0,0.0,2.9525,2.961,2.961,2.961,2.9244,2.8987,2.8987,2.8987,2.8987,2.8987,2.8987,2.8987,2.8987,2.8987,2.8987,2.8987,2.8987,2.8987,2.8987,2.8987,2.9207,2.961,3.0026,3.043,3.087,3.1678,3.2693,3.383,3.4234,3.4908,3.5766,3.6611,3.6633,3.6486,2.8494,2.9274,3.0308,3.1346,3.2435,3.3254,3.3389,3.3288,3.3491,0.0,0.0,0.0,0.0,0.0,0.0,0.0,0.0,0.0,0.0,3.067,2.9593,2.9319,2.9124,2.887,2.8527,2.8821,2.8987,2.8987,2.8987,2.8987,2.8987,2.8987,2.8987,2.8987,2.8987,0.0,0.0,0.0,0.0,3.1041,0.0,2.9337,3.0101,2.9478,2.9016,2.8782,2.893,2.8987,2.9207,3.0503,3.0063,2.8987,2.8987,2.8987,0.0,0.0,0.0,0.0,0.0,0.0,0.0,0.0,0.0,2.884,0.0,0.0,0.0,2.6847,0.0,0.0,0.0,0.0,0.0,0.0,0.0,0.0,0.0,0.0,0.0,0.0,0.0,0.0,2.8987,2.8987,2.906,2.9207,2.9097,2.8987,2.8987,2.8987,2.8987,2.8987,2.8987,2.8987,2.8987,2.8987,2.8987,2.8987,2.8987,2.8987,2.8987,2.8987,2.9097,2.928,2.9904,3.021,3.0246,3.1054,3.1788,3.2449,3.3256,3.377,3.4211,3.5752,3.5862,3.5591,3.0706,3.0158,3.0265,3.2408,3.2593,3.2666,3.3322,3.2848,3.2936,0.0,0.0,0.0,0.0,0.0,0.0,0.0,0.0,0.0,3.5623,0.0,3.01,3.0064,2.9392,2.8964,2.8929,2.8964,2.8987,2.8987,2.8987,2.8987,2.8987,2.8987,2.8987,2.8987,2.8987,0.0,0.0,0.0,3.0246,0.0,3.01,3.0882,0.0,3.0638,3.0039,2.9905,2.9232,2.8987,2.9023,0.0,2.9133,2.8987,0.0,2.8987,2.8987,2.8987,0.0,0.0,0.0,0.0,0.0,0.0,2.8987,0.0,0.0,0.0,2.8828,2.8695,0.0,0.0,0.0,0.0,0.0,0.0,0.0,0.0,0.0,0.0,0.0,0.0,0.0,0.0,0.0,2.8987,2.9317,3.0026,2.939,2.8987,2.8987,2.8987,2.8987,2.8987,2.8987,2.8987,2.8987,2.8987,2.8987,2.8987,2.8987,2.8987,2.8987,2.8987,2.939,3.0063,3.0173,3.021,3.0246,3.1054,3.147,3.1604,3.2399,3.361,3.4968,3.5936,3.6229,3.6413,2.997,3.0258,0.0,3.2101,3.2727,3.3114,3.3371,3.4607,3.5622,0.0,0.0,0.0,0.0,0.0,0.0,0.0,0.0,3.6544,0.0,0.0,0.0,3.2302,3.1054,3.0173,2.9721,2.9684,2.9464,2.8987,2.8987,2.8987,2.9023,2.9464,2.9684,2.9684,2.9684,0.0,3.0246,0.0,3.0907,0.0,0.0,0.0,0.0,3.0271,2.95,2.9464,2.9133,2.8987,2.8987,0.0,2.8987,0.0,0.0,0.0,0.0,0.0,0.0,0.0,0.0,0.0,0.0,0.0,0.0,0.0,2.8987,0.0,2.8987,0.0,0.0,0.0,0.0,0.0,0.0,0.0,2.8767,0.0,0.0,0.0,0.0,0.0,0.0,0.0,0.0,0.0,0.0,0.0,2.9207,2.8987,2.8987,2.8987,2.8987,2.8987,2.8987,2.8987,2.8987,2.8987,2.8987,2.8987,2.8987,2.8987,2.8987,2.8987,2.917,2.95,2.95,2.9757,3.0246,3.0577,3.1237,3.2118,3.2472,3.3573,3.5114,3.5973,3.6303,3.6523,2.9767,0.0,0.0,0.0,3.2808,3.3406,3.3776,3.6058,3.7706,3.7615,0.0,0.0,4.1697,4.2085,0.0,0.0,4.0487,3.8872,0.0,0.0,3.3587,0.0,0.0,0.0,0.0,3.043,3.0246,2.9647,2.9427,2.9427,2.9647,3.0026,3.032,3.054,0.0,3.054,3.0577,0.0,3.1286,3.1127,3.1715,3.1812,3.1445,2.9904,2.9207,2.8987,2.8987,2.8987,2.8987,2.8987,2.8987,0.0,2.8987,0.0,0.0,0.0,0.0,0.0,2.8987,0.0,0.0,0.0,0.0,0.0,0.0,0.0,0.0,0.0,0.0,0.0,0.0,0.0,0.0,0.0,0.0,2.9004,0.0,0.0,0.0,0.0,0.0,0.0,0.0,0.0,0.0,2.8987,2.8987,2.8987,2.8987,2.8987,2.8987,2.8987,2.8987,2.8987,2.8987,2.8987,2.8987,2.8987,2.8987,2.8987,2.8987,2.8987,2.8987,2.9023,2.9244,2.9647,3.021,3.043,3.1347,3.2583,3.2583,3.3573,3.5114,3.5973,3.6303,3.6523,3.1335,3.1692,0.0,0.0,0.0,3.3066,3.4605,3.6272,3.7901,3.9497,0.0,0.0,0.0,0.0,0.0,0.0,0.0,4.0194,4.0948,0.0,3.3109,0.0,0.0,3.1029,0.0,0.0,3.136,3.1323,3.054,3.0577,3.1323,3.054,3.0613,3.136,3.136,3.136,3.136,3.1397,3.0944,3.0246,3.0283,2.9794,2.9207,0.0,2.9684,2.8987,2.8987,0.0,0.0,2.8987,2.8987,0.0,0.0,0.0,0.0,0.0,0.0,0.0,0.0,0.0,0.0,2.8987,0.0,0.0,0.0,0.0,2.8987,0.0,0.0,0.0,0.0,0.0,0.0,0.0,0.0,0.0,0.0,0.0,0.0,0.0,0.0,0.0,0.0,0.0,2.8987,2.8987,2.8987,2.8987,2.8987,2.8987,2.8987,2.8987,2.8987,2.8987,2.8987,2.8987,2.8987,2.8987,2.8987,2.8987,2.8987,2.8987,2.8987,2.9023,2.9843,3.0173,3.0246,3.1017,3.1861,3.2583,3.2583,3.3573,3.5114,3.5973,3.6303,3.6523,0.0,0.0,0.0,0.0,0.0,3.4935,3.7341,3.9199,4.1109,0.0,0.0,0.0,0.0,4.8639,4.882,0.0,0.0,4.4121,4.2763,4.0157,0.0,0.0,0.0,3.5349,0.0,0.0,0.0,0.0,3.1384,3.114,3.1397,3.1678,3.1935,3.2192,0.0,3.1898,0.0,0.0,0.0,0.0,0.0,3.0356,3.0577,0.0,2.9684,2.906,2.961,2.9464,0.0,2.8987,2.8987,2.8987,2.8987,2.8987,2.8987,2.8987,2.8987,0.0,0.0,0.0,2.9133,2.9647,0.0,0.0,0.0,0.0,0.0,0.0,0.0,0.0,0.0,0.0,0.0,0.0,0.0,0.0,0.0,0.0,0.0,0.0,0.0,0.0,0.0,0.0,0.0,2.8987,2.8987,2.8987,2.8987,2.8987,2.8987,2.8987,2.8987,2.8987,2.8987,2.8987,2.8987,2.8987,2.8987,2.8987,2.8987,2.8987,2.8987,2.9023,2.9843,3.0503,3.1054,3.1861,3.2669,3.3403,3.3403,3.3733,3.4307,3.5114,3.6156,3.7272,3.5083,0.0,0.0,0.0,0.0,3.7445,3.9504,4.2045,0.0,0.0,4.8237,0.0,5.0226,0.0,4.9921,0.0,4.7736,4.6104,4.3662,4.2543,0.0,3.8395,3.8542,0.0,0.0,0.0,0.0,0.0,0.0,3.2522,3.2278,3.2485,3.2729,3.3036,0.0,3.2412,3.1397,3.1397,3.076,0.0,0.0,3.0356,0.0,0.0,3.0528,2.9879,0.0,2.9684,2.8987,2.8987,2.8987,2.8987,2.8987,2.8987,2.8987,2.8987,2.8987,2.8987,2.8987,2.8987,0.0,2.9647,2.939,0.0,2.9647,0.0,0.0,0.0,0.0,0.0,0.0,0.0,0.0,0.0,0.0,0.0,0.0,2.9444,0.0,0.0,0.0,0.0,0.0,0.0,2.8987,2.8987,2.8987,2.8987,0.0,0.0,2.8987,2.8987,2.8987,2.8987,2.8987,2.8987,2.8987,2.8987,2.8987,2.8987,2.9023,2.9317,2.9427,2.95,3.0564,3.1347,3.1898,3.2706,3.333,3.3807,3.3807,3.3807,3.3917,3.4711,3.6083,3.7639,0.0,0.0,0.0,0.0,3.8432,0.0,0.0,0.0,4.749,0.0,5.0055,5.102,5.1104,5.0295,4.9721,4.961,4.8159,4.6195,4.3828,4.3698,0.0,0.0,3.8579,3.783,3.5298,0.0,0.0,0.0,0.0,0.0,3.3844,3.3023,3.306,3.3807,3.3807,0.0,3.1397,3.1397,3.0503,2.9133,2.9867,2.9794,2.9464,3.1739,3.2155,3.1433,3.0613,2.9794,2.9133,2.9133,2.9097,2.906,2.906,2.9023,2.9023,2.906,2.906,2.906,2.9097,2.9097,2.906,2.9097,2.906,0.0,0.0,0.0,2.906,0.0,0.0,0.0,0.0,0.0,0.0,0.0,0.0,0.0,0.0,0.0,0.0,0.0,0.0,0.0,0.0,2.8987,2.8987,2.8987,2.8987,2.8987,0.0,0.0,2.906,2.906,2.906,2.906,2.906,2.9023,2.9023,2.906,2.906,2.9097,2.9133,2.9916,3.0246,3.0356,3.1922,3.2583,3.2656,3.3476,3.3807,3.3807,3.3844,3.388,3.4027,3.4784,3.6119,3.7639,3.8288,3.9661,4.088,0.0,4.0267,4.0965,0.0,0.0,0.0,0.0,5.248,5.3234,5.2703,5.2407,5.1536,4.9757,4.9206,0.0,0.0,0.0,0.0,4.2083,4.2727,4.1735,3.8726,3.8469,0.0,3.6538,0.0,0.0,3.4674,3.3867,3.3587,3.3807,0.0,0.0,3.1397,3.1397,3.0834,2.9916,3.0136,3.1164,3.2559,0.0,3.2852,3.3073,3.2252,3.1458,3.076,3.076,3.0393,2.9867,2.9867,2.9464,2.9133,2.9721,2.9867,3.0026,3.0613,3.0356,3.0063,3.0613,2.9879,2.917,0.0,0.0,0.0,0.0,0.0,0.0,0.0,0.0,0.0,0.0,0.0,0.0,0.0,0.0,0.0,2.9653,0.0,0.0,0.0,2.8987,2.8987,2.8987,2.8987,2.8987,2.8987,0.0,0.0,2.9867,2.9867,2.9867,2.9867,2.9317,2.9317,2.9867,2.9867,3.021,3.0797,3.098,3.1091,3.1127,3.2155,3.2583,3.2656,3.3476,3.3807,3.3844,3.4454,3.5092,3.5679,3.5899,3.6597,3.7639,4.0509,0.0,0.0,4.4161,0.0,0.0,4.603,4.7755,0.0,5.172,5.3078,0.0,5.2747,5.238,5.1463,4.9757,4.9243,0.0,4.7186,0.0,0.0,4.4121,4.4452,4.302,3.946,3.8946,0.0,3.5877,0.0,0.0,3.4454,3.4027,3.3807,0.0,0.0,3.3109,3.1861,3.1164,3.0834,3.0723,3.0723,3.1531,0.0,3.3036,3.3183,3.3256,3.317,3.2375,3.1397,3.1397,3.087,3.021,3.021,2.9867,2.961,3.0063,3.0467,3.0834,3.1286,3.1054,3.0834,3.1286,3.0723,3.0173,3.0613,3.0723,3.0613,0.0,0.0,0.0,0.0,0.0,0.0,0.0,0.0,0.0,0.0,0.0,0.0,0.0,2.9671,0.0,0.0,2.9108,2.8987,2.8987,2.8987,2.8987,0.0,0.0,0.0,3.021,3.0858,3.1091,3.0723,3.0601,3.0601,3.0723,3.0723,3.0944,3.1397,3.1751,3.1935,3.1971,3.2779,3.3109,3.3183,3.3977,3.4307,3.4417,3.5224,3.6083,3.6831,3.6831,3.7125,3.7639,4.3328,0.0,0.0,0.0,0.0,0.0,0.0,4.9461,0.0,5.1867,0.0,5.2968,5.194,5.1206,5.0435,4.95,0.0,4.8012,4.7296,4.7883,4.7278,4.4966,4.4856,4.2983,3.8946,3.8652,3.7074,0.0,0.0,0.0,3.3954,3.3844,0.0,0.0,0.0,0.0,0.0,3.1017,3.0834,3.1568,3.1568,3.1604,3.1874,3.3256,3.3366,3.2839,3.355,3.2889,3.169,3.1568,3.1091,3.0503,3.0393,3.0283,3.0246,3.0467,3.0944,3.147,3.1654,3.1654,3.1568,3.1568,3.147,3.1397,3.1397,3.1397,3.1397,3.1397,3.1397,3.1213,0.0,0.0,0.0,0.0,0.0,0.0,0.0,0.0,0.0,0.0,0.0,0.0,0.0,0.0,2.9044,2.9044,2.901,0.0,0.0,0.0,0.0,3.021,3.1678,3.2155,3.1568,3.2155,3.2192,3.1727,3.1617,3.1617,3.1727,3.2546,3.2913,3.2949,3.377,3.4137,3.4174,3.4894,3.5224,3.5408,3.6156,3.6942,3.7676,3.7676,3.7676,3.7749,4.5289,0.0,0.0,0.0,0.0,5.0215,5.1022,5.0949,5.1096,5.1867,5.3261,5.3371,5.1242,5.0875,5.0178,4.8673,4.8379,0.0,0.0,0.0,0.0,4.5773,4.57,4.3791,3.979,3.841,3.7125,0.0,0.0,0.0,3.4784,0.0,0.0,0.0,0.0,0.0,3.2546,3.1604,0.0,3.2399,3.2399,3.2779,3.3403,3.3697,3.3697,3.3623,3.3733,3.3623,3.3293,3.2619,3.2289,3.2069,3.1384,3.0723,3.0467,3.1775,3.1825,3.169,3.2999,3.2889,3.2399,3.2399,3.1898,3.1397,3.1397,3.1397,3.1397,3.1397,3.1397,3.136,3.1213,0.0,0.0,0.0,0.0,0.0,0.0,0.0,0.0,0.0,0.0,3.0723,0.0,0.0,0.0,0.0,0.0,0.0,0.0,0.0,0.0,0.0,3.1127,0.0,0.0,0.0,3.2192,3.3366,3.2706,3.2742,3.3403,3.4197,3.4601,3.4637,3.5495,3.5862,3.5862,3.6009,3.645,3.7088,3.7235,3.7771,3.8505,3.8505,3.8505,3.8505,0.0,0.0,0.0,0.0,0.0,0.0,0.0,5.2931,5.2674,5.2637,5.3298,5.2858,5.0435,5.0545,5.0141,4.8453,4.8306,4.8306,4.8306,4.8306,4.7572,4.5957,4.5883,0.0,3.9989,3.8337,3.7125,3.6303,0.0,0.0,3.4968,0.0,0.0,3.3807,0.0,3.3587,0.0,0.0,0.0,3.3183,3.2766,3.3073,3.3807,3.3807,3.3807,3.3807,3.3807,3.3807,3.3733,3.3366,3.2669,3.1971,3.2008,3.1458,3.1054,3.2252,3.2632,3.2816,3.3587,3.3513,3.322,3.322,3.2926,3.2632,3.2632,3.2632,3.2632,3.2632,3.2632,3.2549,3.228,3.2093,0.0,0.0,0.0,0.0,0.0,0.0,0.0,0.0,0.0,0.0,0.0,0.0,0.0,0.0,0.0,0.0,0.0,0.0,0.0,0.0,0.0,0.0,0.0,0.0,0.0,3.4417,3.4014,3.405,3.4454,3.5298,3.5665,3.5716,3.6119,3.6303,3.634,3.6758,3.7404,3.8102,3.8102,3.8358,3.8689,3.8689,3.8906,3.9141,0.0,4.9901,0.0,0.0,5.2419,0.0,5.4216,5.4546,5.4363,5.3555,5.3314,5.2417,5.0345,5.0508,5.0215,4.871,4.8416,4.8306,4.8306,4.8159,4.7498,4.6214,4.5847,4.3901,4.023,3.841,3.7015,0.0,0.0,0.0,0.0,0.0,0.0,0.0,0.0,0.0,0.0,0.0,3.322,3.3733,3.3109,3.322,3.3807,3.3807,3.3807,3.3807,3.3807,3.3807,3.3807,3.3807,3.2963,3.1971,3.2449,3.2192,3.1825,3.2632,3.3183,3.3587,3.3733,3.3807,3.3807,3.3807,3.3807,3.3807,3.3807,3.3807,3.3834,3.3863,3.3941,3.3846,3.3437,3.3059,0.0,0.0,0.0,0.0,0.0,0.0,0.0,0.0,0.0,0.0,3.0769,0.0,0.0,0.0,0.0,0.0,2.91,0.0,0.0,0.0,0.0,3.4679,3.5078,0.0,3.5188,3.5518,3.5371,3.5298,3.5298,3.6156,3.6581,3.6652,3.6799,3.691,3.6947,3.7706,3.8358,3.8982,3.9129,3.9203,3.9203,3.9311,3.9621,4.0001,0.0,0.0,0.0,0.0,0.0,0.0,5.4363,5.5023,5.5207,5.4399,5.3665,5.2858,5.1867,5.1206,5.0435,4.9574,4.8746,4.8306,4.8306,4.7626,4.7149,4.7003,4.5572,4.359,4.1022,3.8704,3.6707,0.0,0.0,3.377,0.0,0.0,0.0,0.0,0.0,0.0,0.0,3.3733,3.3733,3.3807,3.3733,3.3733,3.3807,3.3807,3.3807,3.3807,3.3807,3.3807,3.3807,3.3807,3.3697,3.3476,3.2803,3.2546,3.2656,3.344,3.322,3.2876,3.3587,3.3807,3.3807,3.3807,3.3807,3.3807,3.3807,3.3807,3.3863,3.4129,3.4409,3.4603,3.4559,3.4699,3.4831,0.0,0.0,0.0,0.0,0.0,0.0,0.0,0.0,0.0,0.0,3.0834,0.0,0.0,2.9771,0.0,0.0,0.0,0.0,3.066,0.0,3.3657,3.5454,3.5132,3.5738,3.7272,3.6523,3.6193,3.6193,3.7015,3.7534,3.7774,3.8518,3.8853,3.8863,3.943,3.9732,3.9863,4.0581,4.0875,4.0887,4.123,4.1381,4.1482,0.0,0.0,0.0,0.0,0.0,0.0,0.0,5.5684,5.5317,5.4509,5.4106,5.3445,5.2123,5.1279,5.0472,4.9684,4.8783,4.8306,4.8306,4.8012,4.759,4.7113,4.6012,4.4305,4.1882,3.9937,3.8138,0.0,0.0,0.0,0.0,0.0,0.0,0.0,0.0,3.4564,3.3844,3.4321,3.4247,3.3807,3.3807,3.3807,3.3807,3.3807,3.3807,3.3807,3.3807,3.3807,3.3807,3.3807,3.3476,3.3109,3.3256,3.2986,3.2766,3.355,3.322,3.2766,3.3587,3.344,3.322,3.3697,3.3807,3.3807,3.3807,3.3807,3.3847,3.3954,3.4738,3.5413,3.5413,3.5775,3.6044,0.0,0.0,0.0,0.0,0.0,0.0,0.0,0.0,0.0,0.0,0.0,0.0,0.0,0.0,0.0,0.0,0.0,0.0,3.2267,0.0,3.5327,3.6932,3.6345,3.6542,3.7492,3.7162,3.7015,3.7052,3.8034,3.8907,3.9764,4.0553,4.0892,4.0917,4.1111,4.1207,4.1244,4.1567,4.1717,4.173,4.1854,4.1893,4.1995,5.3827,0.0,5.44,0.0,5.5628,5.5133,5.6271,5.5574,5.4693,5.4106,5.4069,5.3628,5.2491,5.1426,5.0582,4.9994,4.893,4.8306,4.8306,4.8067,4.7773,4.748,4.625,0.0,4.3057,4.1185,3.946,3.786,3.7052,0.0,0.0,0.0,0.0,0.0,3.4747,3.4674,3.416,3.4491,3.4454,3.4137,3.3917,3.3807,3.3807,3.3807,3.3807,3.3807,3.3807,3.3807,3.3807,3.3807,3.344,3.306,3.3623,3.3403,3.3073,3.3623,3.3403,3.3073,3.366,3.3403,3.3109,3.366,3.3807,3.3807,3.3807,3.3807,3.3907,3.4234,3.5163,3.5893,3.5893,3.6279,3.6489,3.6266,0.0,0.0,0.0,0.0,0.0,0.0,3.4359,3.3975,3.3353,3.2314,0.0,0.0,0.0,0.0,0.0,0.0,0.0,0.0,0.0,0.0,3.815,3.7503,3.7641,3.8479,3.8479,3.8479,3.853,3.9363,4.0363,4.1416,4.1984,4.2191,4.2095,4.2259,4.2232,4.2163,4.2425,4.25,4.2514,4.2621,4.2647,4.276,5.6602,5.6748,5.7005,5.7813,5.6661,5.5574,5.5633,5.4252,5.3203,5.3203,5.3203,5.3203,5.3188,5.1756,5.0802,5.0802,4.926,4.8306,4.8306,4.7553,4.7443,0.0,0.0,4.4691,4.4654,4.2306,4.0288,3.8689,0.0,0.0,3.5041,0.0,3.5004,3.5004,3.5004,3.5004,3.4931,3.4137,3.4284,3.4931,3.4137,3.3807,3.3807,3.3807,3.3807,3.3807,3.3807,3.3807,3.3807,3.3807,3.3807,3.3807,3.3807,3.3807,3.3807,3.3807,3.3807,3.3807,3.3807,3.3807,3.3807,3.3807,3.3807,3.3807,3.3807,3.3807,3.4134,3.5244,3.5702,3.5899,3.5899,3.6112,3.606,3.5238,0.0,0.0,0.0,0.0,0.0,0.0,3.4737,3.4205,3.4205,3.266,0.0,0.0,0.0,0.0,0.0,0.0,0.0,3.5034,3.56,0.0,3.8756,3.8515,3.9226,4.0849,4.0849,4.0849,4.0861,4.1151,4.1731,4.2591,4.2581,4.2411,4.2159,4.2604,4.2594,4.2376,4.3147,4.3495,4.351,4.3844,4.3998,4.4058,5.6859,5.6822,5.7042,5.785,5.6675,5.5596,5.5596,5.4693,5.3812,5.3298,5.3203,5.3203,5.3203,5.1756,5.0582,0.0,4.8967,4.8306,0.0,4.8086,4.8049,4.8306,4.6507,4.5259,4.4709,4.2856,4.0855,3.8689,0.0,0.0,0.0,3.6156,3.5555,3.5004,3.5004,3.5004,3.4968,3.4747,3.5114,3.5826,3.4968,3.4968,3.5422,3.4821,3.4601,3.4564,3.399,3.3807,3.3807,3.3807,3.3807,3.3807,3.3807,3.3807,3.3807,3.3807,3.3403,3.3096,3.366,3.3403,3.3109,3.366,3.3807,3.3807,3.3807,3.4197,3.4899,3.5869,3.6694,3.7255,3.7255,3.7024,3.6823,3.6766,3.59,0.0,0.0,0.0,0.0,0.0,3.5269,3.5084,3.5084,3.4083,0.0,0.0,0.0,0.0,0.0,0.0,0.0,0.0,3.8052,0.0,4.0501,4.1013,4.1418,4.1742,4.1742,4.1847,4.2085,4.2751,4.3191,4.3437,4.4058,4.4121,4.3806,4.3966,4.397,4.3896,4.4144,4.4256,4.427,4.4359,4.4401,4.4414,5.7336,5.7005,5.6969,5.7446,5.6198,5.5133,5.5133,5.4473,5.3775,5.3298,5.3203,5.3078,5.2784,5.1573,0.0,5.0068,4.8967,4.8306,4.8306,4.8306,4.8306,4.8306,4.7058,4.5993,4.5186,4.3864,0.0,4.0047,3.9643,3.8946,3.7933,3.6817,3.6009,3.5481,3.5151,3.5004,3.5004,3.5004,3.5481,3.6229,3.5334,3.5518,3.6156,3.5018,3.4747,3.4931,3.4417,3.4064,3.3844,3.4174,3.4064,3.3807,3.3807,3.3807,3.3807,3.3807,3.344,3.317,3.366,3.344,3.3183,3.366,3.3807,3.388,3.4174,3.4417,3.4968,3.645,3.7054,3.7404,3.7701,3.7306,3.6938,3.6909,3.5892,3.5198,3.5472,0.0,0.0,0.0,0.0,0.0,0.0,3.5007,3.493,0.0,0.0,0.0,0.0,0.0,0.0,3.74,3.9423,4.0901,4.1721,4.2441,4.2842,4.2944,4.2944,4.3128,4.3535,4.3764,4.3967,4.4136,4.468,4.4726,4.4359,4.4359,4.429,4.4198,4.4198,4.4198,4.4198,4.4198,4.4486,4.4876,5.7997,5.7336,5.6822,0.0,5.5464,0.0,5.4399,5.3739,5.3203,5.3203,5.3203,5.2931,5.216,5.1316,5.0802,5.0802,0.0,0.0,0.0,4.8306,4.8306,4.8306,4.7516,4.6709,4.592,4.5112,4.3901,4.2286,3.9937,3.8799,3.8762,3.7147,3.6376,3.634,3.5481,3.5114,3.5188,3.5114,3.5628,3.6376,3.5518,3.5701,3.6266,3.4614,3.4417,3.5078,3.5041,3.4527,3.4027,3.4821,3.4601,3.3954,3.3954,3.3917,3.388,3.3807,3.3807,3.3807,3.3807,3.3807,3.3807,3.388,3.3917,3.4174,3.5004,3.4614,3.4724,3.7088,3.7015,3.6707,3.7456,3.7151,3.6609,3.605,3.5515,3.5267,3.5458,0.0,0.0,0.0,0.0,0.0,3.5731,3.564,3.5633,0.0,0.0,0.0,0.0,0.0,3.7383,3.8785,4.0049,4.1285,4.2588,4.3023,4.359,4.4311,4.4379,4.4681,4.5121,4.4386,4.4253,4.4648,4.4648,4.4393,4.3989,4.3989,4.3791,4.3588,4.3622,4.3676,4.3713,4.3747,4.4469,4.5477,0.0,0.0,5.6822,5.6822,5.5464,5.4399,5.4399,5.3739,5.3203,5.3203,5.3203,5.3151,5.2931,5.1646,5.0802,5.0802,4.926,4.8306,4.8306,4.8306,4.8306,4.8306,4.7516,4.6709,4.592,4.5112,4.3901,4.2286,4.0487,3.9606,3.957,3.797,3.7235,3.7199,3.634,3.634,3.6853,3.6266,3.6817,3.8065,3.7221,3.7404,3.7955,3.634,3.5826,3.5899,3.5224,3.4894,3.4857,3.5716,3.5862,3.5716,3.5716,3.5238,3.4601,3.399,3.3807,3.3807,3.3807,3.3807,3.3954,3.4564,3.5238,3.5899,3.6707,3.6758,3.6978,3.8175,3.8248,3.8175,3.8395,3.7979,3.7379,3.6621,3.623,3.5836,3.5267,3.5913,0.0,0.0,3.7161,3.7623,3.743,3.7162,3.7016,0.0,0.0,0.0,3.7048,3.8748,3.9865,4.0065,4.1638,4.2811,4.3503,4.4263,4.4609,4.4533,4.5154,4.5521,4.5634,4.6074,4.581,4.5066,4.5066,4.4501,4.3631,4.3631,4.3931,4.445,4.4765,4.5228,4.5834,4.6121,4.6588,4.7061,5.7997,5.7336,5.6675,5.6308,5.5207,5.4289,5.3922,5.3482,5.3203,5.3203,5.3203,5.3203,5.3203,5.1756,5.0802,5.0802,4.926,4.8306,4.8306,4.8306,4.8306,4.8306,4.7883,4.7259,4.6471,4.5663,4.4452,4.2837,4.1222,4.0451,4.0414,3.8799,3.786,3.7492,3.7052,3.6905,3.6942,3.6868,3.7345,3.8102,3.7676,3.797,3.8505,3.6927,3.6523,3.6795,3.6303,3.5899,3.5716,3.656,3.6597,3.6303,3.6303,3.5973,3.5518,3.5055,3.4651,3.4417,3.4835,3.4651,3.4454,3.4894,3.5679,3.6486,3.7309,3.7235,3.7257,3.8469,3.8395,3.8309,3.8781,3.7928,3.714,3.7069,3.6212,3.5502,3.5315,3.6089,3.6846,3.7238,3.8392,3.9123,3.9123,3.9328,3.9238,3.869,3.9275,0.0,3.8832,4.0426,4.1062,4.042,4.2203,4.3433,4.3907,4.4523,4.4788,4.4612,4.5415,4.5697,4.5565,4.6375,4.6274,4.5514,4.5514,4.5156,4.4599,4.4599,4.4856,4.5313,4.5695,4.6131,4.6551,4.6968,4.7555,4.8201,5.7997,5.7336,5.6602,5.5904,5.5023,5.4179,5.3482,5.3277,5.3203,5.3203,5.3203,5.3203,5.3203,5.1867,5.0949,5.0802,4.9407,4.8453,4.8306,4.8306,4.8306,4.8306,4.8306,4.7939,4.7113,4.6214,4.5002,4.3515,4.2029,4.1279,4.1242,3.9643,3.8505,3.786,3.7749,3.7309,3.6707,3.7382,3.7676,3.7676,3.7676,3.8102,3.8542,3.7037,3.6905,3.7492,3.7492,3.7052,3.6597,3.7419,3.7235,3.667,3.667,3.656,3.6486,3.6633,3.6089,3.5565,3.6134,3.5862,3.5371,3.5371,3.6046,3.6853,3.7676,3.7345,3.7257,3.8762,3.8566,3.8346,3.9137,3.7964,3.7031,3.7546,3.6255,3.5352,3.5767,0.0,3.743,3.8277,3.9738,4.0746,4.09,4.1514,4.1489,4.0481,4.0961,4.1253,4.1105,4.1693,4.1645,4.0822,4.2428,4.3533,4.3998,4.4276,4.449,4.4626,4.5439,4.5701,4.5526,4.6327,4.6493,4.6176,4.6176,4.6156,4.6061,4.6027,4.6065,4.6192,4.661,4.6859,4.7034,4.7483,4.8275,4.9175,5.7997,5.7336,5.6748,5.6638,5.539,5.4363,5.4216,5.3665,5.3203,5.3203,5.3203,5.3203,5.3203,5.238,5.1536,5.0875,4.9921,4.9077,4.8343,4.8306,4.8306,4.8306,4.8306,4.7939,4.7113,4.5645,4.4415,4.3515,4.258,4.2103,4.2066,4.0451,3.9643,3.9512,3.8799,3.8432,3.8358,3.8469,3.8505,3.8505,3.8505,3.8579,3.8615,3.7676,3.7382,3.7492,3.7492,3.7419,3.7456,3.8248,3.8432,3.8322,3.8322,3.7845,3.7456,3.8138,3.7895,3.7273,3.6513,3.6707,3.7125,3.7125,3.7734,3.8542,3.935,3.9423,3.9606,4.0561,4.0858,4.0789,4.0207,3.9799,3.9223,3.8396,3.7841,3.7424,3.7271,0.0,3.9207,4.0015,4.1008,4.1893,4.2624,4.2574,4.2402,4.2199,4.1794,4.1842,4.2459,4.2341,4.2472,4.3011,4.3203,4.3533,4.3998,4.3791,4.4013,4.4697,4.5508,4.6192,4.682,4.7629,4.7793,4.7417,4.7417,4.7217,4.6896,4.6551,4.6801,4.745,4.7853,4.8451,4.9126,4.9859,5.0276,5.0422,5.7446,5.7409,5.7299,5.6895,5.6198,5.539,5.4546,5.4069,5.3702,5.324,5.3203,5.3041,5.2601,5.183,5.1022,5.0215,4.937,4.871,4.8343,4.8306,4.8306,4.8306,4.8306,4.7939,4.7113,4.5957,4.4966,4.4158,4.291,4.2286,4.2249,4.0634,3.99,3.9863,3.9056,3.8689,3.8689,3.8689,3.8689,3.8689,3.8689,3.8689,3.8652,3.8285,3.8138,3.8138,3.8138,3.8138,3.8212,3.8579,3.8689,3.8689,3.8689,3.8432,3.8257,3.8759,3.8734,3.842,3.796,3.8386,3.8958,3.8823,3.9386,4.0068,4.0451,4.0561,4.0781,4.1589,4.153,4.1438,4.1822,4.0616,3.9709,4.0158,3.8865,0.0,3.9035,3.9615,4.0593,4.2362,4.3316,4.4355,4.5663,4.5649,4.5495,4.5311,4.5012,4.4821,4.4789,4.4856,4.4727,4.442,4.3748,4.3509,4.3742,4.4005,4.4342,4.4691,4.5957,4.6746,4.7113,4.792,4.8199,4.8031,4.8255,4.8226,4.8077,4.8108,4.8348,4.8701,4.9105,4.9504,4.9898,5.0483,5.0712,5.0712,5.7189,5.7593,5.7813,5.7189,5.6932,5.6381,5.517,5.4656,5.4179,5.3555,5.3314,5.2968,5.2344,5.1573,5.0765,4.9941,4.9114,4.8526,4.8306,4.8306,4.8306,4.8306,4.8306,4.7939,4.7113,4.6489,4.5773,4.5002,4.3571,4.2873,4.2837,4.1222,4.0451,4.0414,3.9606,3.9166,3.8982,3.8982,3.8872,3.8689,3.8689,3.8689,3.8689,3.8689,3.8689,3.8689,3.8689,3.8689,3.8726,3.8909,3.8982,3.9019,3.9203,3.9276,3.9301,3.9489,3.9607,3.9703,3.9797,4.0259,4.0663,4.0467,4.0982,4.1551,4.1735,4.1875,4.2193,4.3098,4.2828,4.2791,4.3806,4.2134,4.0992,4.2194,0.0,3.9453,0.0,4.1401,4.2247,4.4624,4.547,4.6471,4.7971,4.8086,4.801,4.7739,4.7624,4.7441,4.7057,4.7095,4.6666,4.5679,4.4527,4.3875,4.3754,4.4599,4.5076,4.5278,4.6617,4.7298,4.7406,4.8126,4.8439,4.8458,4.8761,4.8994,4.9202,4.9416,4.9547,4.9659,4.9974,5.0111,5.0147,5.0535,5.0712,5.0712,5.7923,5.796,5.796,5.7923,5.7299,5.6785,5.6638,5.5354,5.4363,5.4326,5.3665,5.3167,5.3093,5.238,5.1573,5.0765,4.9958,4.915,4.8343,4.8306,4.8306,4.8306,4.8306,4.7939,4.7113,4.7039,4.6599,4.581,4.4966,4.4525,4.4488,4.2873,4.2103,4.2103,4.1295,4.0524,3.979,3.979,3.9386,3.8689,3.8689,3.8689,3.8689,3.8689,3.8689,3.8689,3.8689,3.8689,3.8799,3.957,3.979,3.9937,4.0691,4.0912,4.0928,4.0944,4.1154,4.1498,4.1795,4.192,4.1957,4.1933,4.2313,4.285,4.3617,4.4116,4.4758,4.5967,4.6398,4.645,4.6142,4.5561,4.4879,4.4231,0.0,0.0,4.3893,4.4008,4.4701,4.6509,4.6778,4.7163,4.8009,4.8086,4.8077,4.8058,4.7771,4.7899,4.8578,4.7668,4.7054,4.6952,4.5746,4.4934,4.4599,4.5406,4.6214,4.6929,4.7396,4.7861,4.8252,4.8674,4.8864,4.8864,4.8898,4.9341,4.9987,4.9631,4.97,5.0037,5.0099,5.0111,5.0147,5.0535,5.0712,5.0712,5.7262,5.7666,5.7997,5.7997,5.774,5.7373,5.6895,5.6271,5.5537,5.4546,5.4142,5.3555,5.2564,5.216,5.1683,5.0875,5.0068,4.9463,4.9133,4.86,4.8306,4.8306,4.8306,4.8159,4.7846,4.7369,4.6966,4.6636,4.5847,4.5186,4.4654,4.3571,4.2763,4.2249,4.1462,4.0912,4.0634,4.0634,4.0487,4.0178,4.0178,4.0178,4.0178,4.0178,4.0178,4.0178,4.0178,4.0178,4.023,4.0561,4.0634,4.0708,4.0985,4.1095,4.1234,4.1961,4.2737,4.3557,4.4207,4.4045,4.3907,4.4952,4.5337,4.5472,4.5543,4.5895,4.6312,4.6792,4.6965,4.7157,4.7414,4.6683,4.6176,4.6597,0.0,4.5124,4.6471,4.624,4.6445,4.7924,4.8094,4.84,4.9253,4.933,4.9444,4.9692,4.9585,4.9565,4.9577,4.8464,4.7782,4.7847,4.7124,4.6579,4.6195,4.6981,4.7526,4.7863,4.8273,4.863,4.9027,4.8928,4.9027,4.9265,4.9265,4.9589,5.0099,4.9936,5.0123,5.0472,5.0472,5.0472,5.0493,5.0634,5.0712,5.0712,5.7189,5.7629,5.7997,5.7997,5.7997,5.7813,5.7262,5.6969,5.6308,5.495,5.4546,5.3885,5.2527,5.216,5.1756,5.1206,5.0435,4.9978,4.9978,4.9407,4.8857,4.8343,4.8306,4.8306,4.8306,4.7736,4.748,4.748,4.6691,4.5883,4.5076,4.4232,4.3461,4.2653,4.2103,4.1781,4.1636,4.1528,4.1413,4.1267,4.116,4.1095,4.1095,4.1095,4.1095,4.1095,4.1095,4.1095,4.1132,4.1389,4.1462,4.1499,4.1772,4.2029,4.241,4.3458,4.4318,4.5163,4.6134,4.6003,4.582,4.6811,4.7267,4.7358,4.694,4.7372,4.7837,4.7677,4.7866,4.8198,4.8689,4.8184,4.7851,4.8404,4.7548,4.7201,4.8355,4.8048,4.8058,4.9105,4.9222,4.9451,5.0035,5.0111,5.0279,5.0692,5.0712,5.0594,5.0313,4.9341,4.8816,4.8867,4.8469,4.813,4.7871,4.8153,4.8315,4.8315,4.87,4.8961,4.9108,4.9092,4.9171,4.9326,4.9445,4.9714,5.0111,5.0111,5.0336,5.0712,5.0712,5.0712,5.0712,5.0712,5.0712,5.0712,5.7997,5.7997,5.7997,5.7997,5.7997,5.7997,5.7997,5.7336,5.6528,5.5706,5.4913,5.4106,5.3277,5.2491,5.2013,5.2034,5.1279,5.0802,5.0802,5.0802,5.0068,4.8379,4.8306,4.8306,4.8306,4.8306,4.8306,4.8306,4.748,4.6672,4.5883,4.5112,4.4305,4.3515,4.3515,4.325,4.2805,4.2484,4.2068,4.1599,4.1288,4.1132,4.1132,4.1132,4.1132,4.1132,4.1132,4.1132,4.1242,4.2066,4.2323,4.247,4.3294,4.4085,4.4874,4.5663,4.5883,4.6176,4.7384,4.7686,4.7596,4.7136,4.7613,4.8144,4.7788,4.864,4.9386,4.8978,4.9547,5.0111,5.0111,5.044,5.0442,4.9548,4.9394,4.9394,4.9394,4.9394,4.9555,5.0033,5.0111,5.0111,5.0111,5.0111,5.0279,5.0692,5.0712,5.0712,5.0712,5.0325,5.0111,5.0111,4.9725,4.9489,4.9489,4.8729,4.8306,4.8325,4.8709,4.8674,4.8344,4.9123,4.928,4.8928,4.9341,4.9714,5.0111,5.0111,5.0336,5.0712,5.0712,5.0712,5.0712,5.0712,5.0712,5.0712,5.8438,5.8503,5.8503,5.8503,5.8216,5.8097,5.8439,5.801,5.7152,5.5757,5.539,5.473,5.3371,5.3004,5.2966,5.3234,5.1955,5.0657,4.9562,4.9804,4.9738,4.9224,4.9206,4.893,4.8306,4.8306,4.8306,4.8306,4.8086,4.7241,4.592,4.6232,4.5645,4.4378,4.4929,4.5128,4.4974,4.4872,4.4743,4.4606,4.4504,4.4488,4.4415,4.3864,4.3627,4.3627,4.3627,4.3627,4.3754,4.4562,4.4819,4.4856,4.5112,4.5333,4.559,4.5847,4.6324,4.682,4.7187,4.7684,4.8196,4.8634,4.9157,4.9415,4.9062,4.9669,5.0147,4.946,4.9962,5.0451,5.0159,5.044,5.0596,5.0366,5.0078,4.9908,4.9908,4.9631,4.9516,4.9673,4.9673,4.9806,5.0049,5.0111,5.0279,5.0692,5.0712,5.0712,5.0712,5.0325,4.9962,4.9673,4.9295,4.8928,4.8676,4.8999,4.9139,4.9123,4.8961,4.9139,4.9561,4.9518,4.9728,5.0159,4.9987,5.0147,5.0493,5.0206,5.0336,5.0712,5.0712,5.0712,5.0712,5.0712,5.0712,5.0712,5.8934,5.8815,5.8713,5.8713,5.8326,5.8097,5.8375,5.7892,5.7042,5.5757,5.5317,5.4706,5.3551,5.3314,5.3359,5.3777,5.2883,5.1817,5.0675,5.1185,5.11,5.0134,5.0394,4.9991,4.8839,4.8489,4.8306,4.8306,4.8306,4.7645,4.6397,4.6856,4.6415,4.5223,4.5663,4.5992,4.6096,4.5956,4.5992,4.6114,4.6131,4.6148,4.6074,4.5758,4.556,4.5392,4.5409,4.5326,4.5259,4.5736,4.5883,4.5957,4.6287,4.6361,4.6434,4.6764,4.7205,4.7553,4.7553,4.792,4.8458,4.9092,4.9561,4.9819,4.9547,5.0135,5.0472,4.9659,5.0147,5.0584,5.0171,5.0313,5.0504,5.0654,5.0218,4.9974,5.0302,4.9987,4.9765,4.9765,4.9765,4.9846,5.0087,5.0111,5.0279,5.0692,5.0712,5.0712,5.0712,5.0325,4.9987,4.9765,4.9356,4.9011,4.8761,4.9249,4.9416,4.9265,4.9171,4.9401,4.9872,4.9792,4.9987,5.0462,5.0369,5.0483,5.0692,5.0451,5.0483,5.0712,5.0712,5.0712,5.0712,5.0712,5.0712,5.0712,5.9407,5.9065,5.8736,5.8733,5.8326,5.802,5.8065,5.7395,5.6602,5.5684,5.495,5.4296,5.3813,5.3404,5.3359,5.3777,5.3832,5.3636,5.311,5.3849,5.3305,5.0945,5.1465,5.1095,4.9688,4.8825,4.8383,4.8326,4.8326,4.794,4.7113,4.7186,4.6782,4.5993,4.6067,4.6282,4.655,4.6229,4.63,4.6583,4.6631,4.668,4.6744,4.7024,4.6951,4.6647,4.6663,4.6442,4.612,4.6158,4.614,4.625,4.6966,4.7223,4.7333,4.8086,4.8306,4.8306,4.8306,4.8306,4.8383,4.8796,4.9202,4.9504,4.9547,5.0147,5.0493,4.9779,5.0259,5.0661,5.0286,5.0264,5.0424,5.0678,5.0089,4.9855,5.0483,5.0291,5.0037,5.0111,5.0111,5.0123,5.0147,5.0159,5.0352,5.0769,5.075,5.075,5.0789,5.0385,5.0147,5.0111,4.9728,4.9532,4.9489,4.9532,4.9356,4.8945,4.9326,4.9518,4.9561,4.9936,5.0123,5.0171,5.0525,5.0712,5.0712,5.0712,5.0712,5.0712,5.0712,5.0712,5.0712,5.0712,5.0712,5.0712,5.9543,5.9319,5.9121,5.8756,5.8326,5.8119,5.8503,5.8091,5.7226,5.5816,5.5427,5.481,5.3502,5.3251,5.3359,5.3777,5.4135,5.3747,5.2333,5.2744,5.2482,5.1323,5.0526,5.0084,5.0006,4.9508,4.9075,4.8761,4.8761,4.8215,4.7113,4.7736,4.759,4.6856,4.7498,4.7812,4.7887,4.783,4.7812,4.7887,4.7905,4.8122,4.8336,4.7762,4.7702,4.7909,4.7909,4.7851,4.7845,4.8153,4.805,4.7829,4.7976,4.8049,4.8086,4.8269,4.8306,4.8306,4.8306,4.8306,4.8383,4.8796,4.9202,4.9575,4.9898,5.0347,5.0634,5.0483,5.1083,5.1533,5.1102,5.1612,5.1738,5.0854,5.0534,5.0302,4.9828,4.9673,4.9765,5.0049,5.0111,5.0206,5.0525,5.0584,5.0873,5.1577,5.1048,5.0971,5.1625,5.096,5.044,5.0123,4.9999,4.9832,4.9504,4.9832,4.9792,4.9371,4.946,4.9659,4.9962,5.0037,5.0291,5.0584,5.0644,5.0712,5.0712,5.0712,5.0712,5.0712,5.0712,5.0712,5.0712,5.0712,5.0712,5.0712,5.9526,5.9212,5.9009,5.8736,5.8326,5.8074,5.8348,5.7833,5.7116,5.6271,5.55,5.4801,5.4129,5.3555,5.3359,5.3777,5.4221,5.4201,5.3523,5.3687,5.3412,5.2582,5.1748,5.1034,5.0392,5.0575,5.0084,4.8878,4.8878,4.8489,4.7663,4.8122,4.8067,4.77,4.8122,4.8306,4.8306,4.8306,4.8306,4.8325,4.8495,4.8709,4.8874,4.8658,4.8687,4.8876,4.8876,4.8876,4.8923,4.9114,4.9027,4.883,4.8658,4.8586,4.8532,4.8382,4.8306,4.8344,4.8513,4.89,4.9304,4.9674,5.0206,5.07,5.0685,5.0966,5.1355,5.1552,5.194,5.2162,5.1942,5.2129,5.2227,5.1929,5.1561,5.131,5.1269,5.076,5.0507,5.091,5.0944,5.1201,5.1846,5.1895,5.2087,5.25,5.2125,5.2087,5.25,5.2125,5.1795,5.1606,5.1557,5.1297,5.0659,5.0864,5.0673,5.0049,5.0049,5.0183,5.038,5.038,5.0724,5.1241,5.0856,5.0933,5.1241,5.0856,5.0712,5.0712,5.0712,5.0712,5.0712,5.0712,5.0712,5.0712,5.9372,5.8971,5.8693,5.8591,5.826,5.7997,5.7997,5.7446,5.6969,5.6822,5.5537,5.468,5.4869,5.39,5.3318,5.3663,5.4101,5.4532,5.4862,5.4876,5.4496,5.3622,5.3223,5.2301,5.0839,5.1328,5.0719,4.8878,4.9027,4.8822,4.8306,4.8306,4.8306,4.8306,4.8306,4.8306,4.8306,4.8306,4.8306,4.8344,4.8639,4.8898,4.9027,4.9371,4.9575,4.9725,4.9725,4.9645,4.9589,4.9589,4.9547,4.9445,4.9108,4.8994,4.8965,4.8789,4.8587,4.8532,4.9148,4.97,5.0219,5.0628,5.1296,5.1828,5.1592,5.1723,5.2005,5.2412,5.2587,5.2702,5.2702,5.2541,5.2594,5.3127,5.2716,5.2506,5.3026,5.2246,5.1752,5.2095,5.2115,5.2423,5.3126,5.3203,5.328,5.3395,5.328,5.328,5.3395,5.328,5.3203,5.3203,5.3203,5.2856,5.2115,5.2115,5.1779,5.1135,5.1135,5.1048,5.0894,5.1048,5.1471,5.2077,5.1241,5.1356,5.2038,5.1241,5.0971,5.1135,5.1135,5.1058,5.0894,5.0894,5.0894,5.0933,5.8894,5.8736,5.857,5.8186,5.8065,5.7997,5.7997,5.7923,5.7593,5.6895,5.6014,5.5214,5.4543,5.3708,5.3209,5.3293,5.3662,5.3923,5.3977,5.3977,5.3621,5.2816,5.2381,5.1878,5.124,5.0644,4.986,4.8878,4.9606,4.936,4.8306,4.8306,4.8306,4.8306,4.8306,4.8306,4.8306,4.8306,4.8306,4.8306,4.8382,4.8796,4.9431,4.9475,4.9936,5.0525,5.0525,5.0325,5.0012,5.0012,4.9806,4.9489,4.9431,4.9416,4.9566,5.0252,4.9669,4.9145,5.0629,5.038,4.9874,5.0595,5.1102,5.1573,5.2275,5.214,5.191,5.1964,5.2606,5.3134,5.3134,5.367,5.395,5.3316,5.3404,5.3352,5.2742,5.2828,5.2969,5.3,5.301,5.3087,5.3203,5.3203,5.351,5.428,5.3626,5.3549,5.428,5.3626,5.3203,5.3203,5.3203,5.3126,5.3049,5.301,5.2972,5.2856,5.2856,5.2472,5.1769,5.251,5.2933,5.2972,5.2115,5.2231,5.2972,5.2077,5.2202,5.2856,5.2856,5.2395,5.1731,5.1731,5.1731,5.1846,5.8397,5.8326,5.8238,5.8042,5.7997,5.7997,5.7997,5.7997,5.7886,5.7519,5.6381,5.5486,5.5097,5.3959,5.3203,5.3203,5.3565,5.3777,5.3777,5.3777,5.3646,5.3274,5.2887,5.2373,5.1727,5.1782,5.1228,4.9954,4.9596,4.9045,4.8306,4.8306,4.8306,4.8306,4.8513,4.8495,4.8325,4.8532,4.8532,4.8306,4.8306,4.8658,4.9171,4.9171,4.9659,5.038,5.0614,5.0594,5.0451,5.0451,5.0325,5.0212,5.0418,5.0504,5.0616,5.1267,5.1088,5.083,5.1813,5.1866,5.1703,5.2041,5.2398,5.2735,5.2914,5.2958,5.2943,5.2943,5.3461,5.394,5.394,5.4406,5.479,5.4613,5.4764,5.4745,5.4373,5.409,5.3933,5.3933,5.3933,5.4087,5.4549,5.4587,5.4741,5.5126,5.4818,5.4741,5.5164,5.4818,5.4587,5.4587,5.4587,5.4395,5.3933,5.3933,5.3664,5.3203,5.3703,5.3472,5.2654,5.301,5.3472,5.3895,5.301,5.3126,5.3857,5.301,5.2856,5.3203,5.3203,5.2972,5.2615,5.2615,5.2615,5.2692]}]]